GFSNGP_sfc_30mbdewp_000.txt.gz
Dewpoint
29 29 26 26 27 27 28 28 26 22 23 24 24 26 27 34 35 34 35 35 33 34 34 35 41 43 42 42 39 36 37 38 39 40 38 38 38 38 38 38 39 39 39 39
24 22 19 19 20 20 23 25 26 26 25 27 27 34 34 34 34 36 35 33 33 33 35 41 42 41 39 38 36 35 35 35 36 36 36 36 36 36 37 37 37 37 37 38
19 21 23 22 23 24 24 24 23 22 24 27 28 32 34 35 36 36 35 32 33 39 42 40 39 38 35 33 31 32 32 32 31 29 29 30 32 31 32 31 30 33 35 36
23 25 21 24 27 27 27 26 26 26 27 29 33 36 36 34 36 37 34 37 39 39 38 38 36 34 29 27 26 26 26 26 25 26 26 26 26 26 26 27 28 28 30 34
25 26 26 27 28 28 27 27 28 28 29 30 35 33 33 35 35 37 38 38 38 37 35 33 30 26 26 25 24 22 21 19 21 22 21 22 22 22 21 22 25 24 25 27
28 26 25 27 29 30 29 26 34 32 32 36 34 30 32 34 38 38 38 38 35 32 30 28 25 23 21 19 16 14 12 13 15 16 17 17 17 17 16 19 19 20 19 23
26 27 29 30 31 31 26 28 36 36 35 37 35 33 34 35 37 36 35 33 31 29 26 22 19 16 13 9 6 8 9 10 11 12 12 12 13 14 14 13 17 17 17 19
30 28 26 32 32 29 31 34 35 37 35 31 30 34 36 36 35 34 33 30 25 24 21 15 10 7 6 6 8 9 10 9 10 10 10 9 10 12 12 11 12 16 16 17
32 32 34 33 32 33 33 34 34 34 33 32 32 34 35 34 34 33 29 23 18 15 12 7 6 6 6 6 8 9 9 9 10 11 10 10 11 11 11 11 10 13 13 16
31 30 31 32 33 33 33 33 34 35 35 35 34 35 35 36 35 32 25 17 14 13 9 7 7 6 6 8 9 10 10 11 11 11 12 12 13 12 11 11 12 13 14 15
33 34 34 34 34 34 34 33 33 33 33 33 34 35 36 35 33 24 17 12 11 9 8 7 8 8 8 10 11 11 11 11 12 13 13 13 13 13 13 14 17 20 21 21
32 32 33 34 35 35 34 34 33 32 32 35 36 36 35 31 22 15 11 11 9 9 9 8 9 9 10 12 12 12 12 13 13 14 14 15 14 14 16 19 22 24 24 25
33 33 34 35 35 34 34 33 32 33 34 36 34 29 24 15 10 10 11 9 9 8 9 10 11 12 13 13 13 13 13 13 14 15 15 14 15 17 18 20 20 20 21 23
34 34 34 35 34 33 33 35 36 35 34 33 29 19 12 10 9 9 9 9 9 10 11 11 12 12 13 13 13 14 14 15 15 16 16 17 19 19 20 19 19 20 21 21
34 36 35 34 34 34 34 33 32 31 28 23 17 11 9 9 10 10 10 10 11 11 11 12 12 12 13 14 14 14 14 15 15 17 19 19 19 19 20 20 20 20 21 21
36 35 34 34 34 33 32 31 30 29 24 11 9 9 9 10 10 11 11 11 10 10 11 12 12 13 14 15 15 15 16 17 18 18 19 19 19 20 20 20 21 21 21 22
33 32 34 32 33 32 30 30 28 13 11 11 10 9 10 10 11 11 10 10 11 11 12 12 13 14 14 16 16 17 17 17 18 19 19 19 19 19 19 20 21 20 20 22
34 34 34 34 32 30 29 17 12 12 11 10 10 10 10 10 9 10 11 11 11 12 12 13 13 15 16 16 16 16 17 18 19 19 18 18 18 19 19 19 20 21 22 23
29 31 31 32 32 29 18 13 12 10 9 11 11 11 11 10 10 11 11 11 11 11 11 12 14 17 16 16 17 17 18 17 17 17 18 18 18 20 21 20 20 20 20 21
24 22 24 27 22 12 10 9 9 9 11 11 11 11 10 10 11 11 12 12 13 13 14 14 15 15 16 16 17 17 17 18 18 18 18 18 18 18 18 18 18 19 19 21
19 12 9 9 9 9 10 10 11 11 11 11 11 10 11 11 12 12 12 12 12 13 14 15 15 15 15 16 17 19 19 19 19 19 18 17 18 18 19 18 18 18 19 20
16 12 10 9 10 11 13 14 13 12 12 11 11 11 11 11 12 13 13 13 13 14 14 14 15 16 17 18 18 19 19 18 18 18 18 18 18 17 16 17 17 18 19 21
17 12 11 11 11 13 14 14 13 13 12 11 11 11 12 12 13 13 12 12 14 14 14 14 15 16 17 18 18 18 18 18 18 17 15 15 16 16 17 18 18 18 18 19
21 15 15 16 15 14 13 14 13 13 14 14 14 14 14 13 12 13 14 14 13 13 14 15 16 16 17 17 16 15 15 15 14 15 16 16 17 17 17 18 18 19 20 20
23 18 17 16 15 15 16 15 13 13 13 12 11 11 12 13 13 12 11 12 13 14 14 15 15 14 14 13 13 13 14 15 15 16 18 21 21 21 19 19 19 19 18 17
20 19 18 18 17 14 12 12 12 12 11 11 12 11 11 11 12 13 13 13 13 13 12 12 11 12 13 13 13 14 15 15 16 17 17 19 20 20 20 19 17 17 17 18
19 17 15 14 13 12 12 12 12 12 11 11 11 12 12 12 12 12 12 11 10 10 10 11 12 13 13 14 14 14 14 15 15 16 17 20 21 21 21 20 19 18 18 18

GFSNGP_sfc_30mbdewp_003.txt.gz
Dewpoint
27 27 25 26 26 27 29 29 24 20 22 24 25 27 29 34 35 36 35 33 33 36 42 41 39 37 35 33 32 32 34 33 34 31 29 29 30 32 32 33 34 35 33 32
19 22 21 18 19 19 21 25 27 28 26 28 28 29 34 36 35 35 32 32 38 42 39 37 36 34 31 29 27 28 26 26 26 25 26 26 27 27 28 28 29 29 29 34
16 24 24 22 24 23 23 22 21 20 23 25 28 32 34 36 36 35 32 39 40 38 37 35 34 28 25 24 24 23 22 22 19 20 21 22 22 23 23 24 23 22 29 27
22 24 22 24 28 27 25 27 27 26 26 29 32 36 35 35 36 33 38 38 37 36 33 31 26 24 23 22 20 16 18 12 13 14 15 17 17 18 18 19 18 19 22 20
24 25 26 27 29 28 27 27 30 30 32 35 34 33 34 36 37 38 38 38 35 32 29 26 22 20 18 15 12 8 9 8 9 10 11 12 13 13 14 14 16 14 14 19
26 24 22 28 30 31 30 23 34 34 34 35 34 31 32 38 38 38 37 34 31 29 27 22 18 15 11 8 5 5 7 9 10 10 11 11 11 10 11 12 12 13 11 12
27 27 27 31 31 31 25 27 34 37 36 36 35 35 36 38 36 35 33 31 28 26 23 18 13 8 5 5 5 7 10 11 11 11 11 11 10 10 10 11 11 11 11 12
28 26 25 32 32 30 32 34 35 34 35 33 35 37 37 36 35 34 33 28 23 21 17 12 7 6 5 6 7 8 10 11 11 11 12 12 11 12 12 12 12 10 10 14
31 29 32 33 33 33 33 33 33 33 33 33 35 36 35 35 34 33 29 23 17 14 12 8 8 7 6 7 8 10 11 11 12 12 13 12 13 13 13 13 12 12 14 15
31 31 33 34 33 34 34 34 34 35 34 34 34 35 35 36 35 33 26 18 13 12 9 8 8 8 8 9 10 12 12 12 13 13 14 14 14 14 14 14 15 16 18 20
33 33 33 33 34 34 34 34 34 34 33 33 33 35 36 36 35 28 19 14 11 9 9 9 9 9 10 11 12 13 13 13 13 14 14 14 15 15 15 16 18 20 21 22
32 34 33 33 35 35 35 35 34 33 32 34 35 36 36 33 24 17 12 11 10 10 10 9 10 11 11 13 14 14 13 13 14 15 15 15 15 15 17 19 21 22 22 22
35 33 33 34 35 34 35 34 33 33 33 35 36 33 29 21 12 11 10 10 10 10 10 11 11 12 13 14 15 14 14 14 15 15 15 15 15 17 18 20 21 21 21 21
34 35 34 35 35 34 34 36 36 35 36 35 31 25 16 11 9 9 9 10 10 11 11 12 12 13 14 14 15 15 15 16 16 16 16 17 18 20 20 19 20 20 20 21
36 36 35 35 34 35 35 34 33 33 33 30 25 17 11 9 9 10 11 11 11 12 12 12 12 13 14 15 15 15 15 16 16 17 19 20 20 20 20 20 20 19 20 20
35 34 34 34 34 34 32 32 32 32 29 24 16 10 9 10 10 11 12 12 11 11 11 12 12 13 14 15 15 16 17 17 18 18 18 19 19 20 19 19 19 20 21 20
31 28 29 31 33 34 34 33 32 31 26 12 10 10 10 11 11 11 11 11 11 12 12 13 13 13 15 15 16 16 17 17 18 18 19 20 19 19 19 20 22 21 20 21
31 32 33 34 33 34 33 32 29 14 12 11 10 11 10 10 10 10 10 11 12 12 12 13 13 14 16 17 17 17 18 18 18 19 19 18 18 19 19 19 21 19 19 19
29 29 30 32 33 32 30 18 14 12 10 10 10 10 11 11 11 11 11 12 12 12 11 11 14 17 17 17 18 17 17 17 18 18 19 19 18 20 21 21 19 19 19 19
22 20 23 31 31 26 20 15 12 9 10 11 11 11 11 10 11 11 12 12 12 13 14 15 16 16 16 16 17 17 18 19 20 21 19 19 19 18 19 19 19 19 16 16
23 19 15 14 11 10 10 9 9 9 11 12 11 11 10 11 12 12 12 11 11 13 14 15 15 15 15 16 18 19 19 19 19 19 19 19 19 20 20 19 17 16 16 17
24 19 15 11 9 9 11 12 12 12 13 12 12 12 11 11 12 12 13 13 13 15 15 15 15 15 16 17 18 18 18 19 19 20 19 18 18 17 16 16 16 17 18 18
27 21 15 12 10 9 12 13 14 14 13 13 12 11 12 12 13 13 12 12 14 15 14 13 14 16 17 17 17 17 16 15 15 15 15 16 16 16 17 17 18 19 18 18
28 24 16 13 12 13 13 14 15 14 13 14 14 14 14 13 13 14 14 14 13 13 14 14 15 16 16 15 14 13 13 14 14 15 16 16 17 18 18 19 19 19 19 19
26 24 17 15 15 15 15 15 15 14 12 12 11 12 12 13 13 12 12 13 13 14 13 13 13 13 12 12 13 13 13 14 15 16 18 19 19 19 20 20 20 20 20 20
24 22 18 17 17 17 15 13 12 12 12 13 12 12 12 12 13 13 13 12 12 11 11 10 11 12 13 13 13 14 14 15 15 15 16 18 19 19 19 19 19 19 19 18
21 20 17 16 14 13 13 12 13 12 12 12 12 13 13 12 11 11 11 9 9 9 10 11 12 13 13 13 14 14 14 14 14 15 17 18 19 19 19 19 20 20 19 18

GFSNGP_sfc_30mbdewp_006.txt.gz
Dewpoint
27 27 27 29 29 31 29 27 22 22 23 24 26 26 28 29 32 36 36 34 36 41 40 38 35 32 29 27 26 26 25 27 23 23 22 22 22 21 21 22 21 23 20 20
20 21 22 19 21 21 25 28 29 28 23 26 27 28 32 35 35 36 34 34 41 40 37 35 33 29 26 24 23 22 22 18 16 15 15 16 16 17 17 17 17 18 18 18
14 24 23 18 23 23 20 21 19 18 20 26 28 33 35 36 35 35 33 39 39 37 35 33 28 26 24 22 20 14 17 11 10 11 11 12 12 13 14 13 15 14 14 16
20 23 16 24 28 27 24 26 26 25 28 31 34 34 34 35 36 33 37 39 37 34 32 29 25 23 20 16 11 7 9 8 10 10 10 11 11 11 11 11 11 11 12 12
23 23 25 27 28 28 27 29 31 32 33 34 34 33 33 37 36 37 38 37 34 31 29 25 20 17 12 7 5 5 7 9 10 11 11 11 11 11 11 10 11 11 11 11
26 23 21 26 30 31 29 24 34 35 34 35 35 32 33 37 38 38 36 33 31 29 25 20 14 8 5 5 5 5 7 9 10 11 11 11 11 11 11 12 12 12 12 12
27 25 26 29 31 31 25 22 35 35 34 35 34 36 36 38 36 35 33 31 28 25 20 14 7 6 5 6 5 7 9 10 12 12 12 12 12 12 12 13 13 14 13 13
27 25 22 32 32 30 31 35 33 32 33 33 35 37 37 37 35 34 32 27 23 20 14 8 7 7 6 6 8 9 10 11 12 13 13 12 13 13 14 14 14 14 14 15
28 27 32 33 32 33 34 33 33 33 33 33 36 36 37 36 35 34 29 21 16 14 12 9 8 8 7 8 10 10 11 12 13 13 13 13 14 14 14 14 14 15 16 19
31 32 33 33 33 34 34 34 34 34 34 33 33 35 36 35 34 31 25 17 14 11 8 8 9 9 9 10 11 12 12 13 13 13 14 15 15 15 14 15 16 17 20 21
33 34 33 34 34 34 34 34 34 35 34 33 33 34 35 36 35 29 19 16 11 9 9 9 10 10 11 11 12 13 14 14 13 14 15 15 15 15 15 16 19 21 21 21
31 34 33 33 34 35 35 34 35 34 33 34 34 34 36 35 28 20 14 12 9 10 10 9 11 11 11 12 14 14 14 13 14 15 15 15 15 14 17 20 21 21 21 21
34 34 33 34 35 35 35 35 34 34 33 33 35 36 33 20 14 13 10 9 9 9 10 11 11 12 13 13 14 14 14 14 15 16 16 15 15 17 18 20 20 20 20 20
34 34 33 35 34 34 34 35 36 35 36 36 35 29 21 15 11 9 9 10 11 11 11 12 12 12 13 14 14 15 15 16 17 16 17 17 18 19 19 18 18 18 19 19
35 36 35 35 34 35 34 33 32 32 32 32 29 22 13 10 8 9 11 11 12 11 11 12 12 12 13 14 14 14 15 16 17 17 18 18 19 19 19 19 18 18 18 20
35 35 33 33 33 33 33 32 32 32 32 28 23 13 10 9 10 10 11 11 11 10 11 12 12 12 14 14 14 15 16 18 17 17 18 18 18 19 18 18 18 19 20 19
33 31 28 27 30 32 33 33 32 32 31 23 13 10 10 10 10 10 10 11 11 11 12 12 12 13 14 15 16 17 17 17 18 17 18 18 18 18 18 20 21 19 19 20
30 30 31 31 31 32 33 33 32 29 20 13 11 10 10 10 9 10 10 11 12 12 12 12 13 14 16 17 17 18 18 18 17 17 18 18 18 19 18 18 19 20 19 19
30 28 29 30 31 32 33 32 27 15 12 10 10 9 10 11 11 11 11 11 11 11 10 11 14 16 16 17 17 16 16 17 17 18 19 19 21 21 22 19 18 19 20 18
24 24 25 30 32 31 29 22 15 12 10 10 10 11 10 10 11 11 11 11 12 12 14 15 16 16 15 16 16 17 18 19 19 20 19 18 18 19 20 19 18 19 16 16
24 22 18 20 24 21 20 16 12 9 9 11 11 10 11 11 12 11 11 11 11 13 14 16 16 16 15 16 17 18 18 18 18 18 18 18 18 18 18 17 16 16 16 16
24 24 22 16 12 10 10 9 9 10 11 12 12 12 12 11 11 12 13 12 13 15 15 15 15 15 16 17 18 18 17 17 16 15 14 15 15 16 16 16 16 17 18 18
24 25 25 19 14 12 9 11 12 13 13 13 13 12 12 12 13 13 12 12 14 15 14 14 14 15 17 17 16 15 14 13 13 14 14 15 16 16 17 18 18 20 19 19
23 25 26 21 14 11 10 11 13 14 14 14 14 14 14 13 13 13 14 14 13 14 14 14 14 15 16 14 13 12 13 13 14 15 15 16 17 18 19 19 19 19 19 19
22 24 24 20 15 13 13 15 14 14 14 12 11 12 12 13 12 12 13 13 13 13 13 12 13 13 12 12 13 13 13 14 15 16 18 17 16 17 18 19 19 19 20 20
24 25 23 19 16 16 16 15 14 12 12 12 12 12 12 13 13 13 12 12 11 10 10 9 10 11 13 13 13 13 14 14 14 14 15 16 17 17 18 19 19 19 19 19
21 21 19 18 17 15 13 12 12 12 12 12 12 13 13 13 11 11 10 9 9 9 10 10 11 12 13 13 14 14 14 14 15 15 17 18 18 17 17 18 19 19 20 19

GFSNGP_sfc_30mbdewp_009.txt.gz
Dewpoint
27 28 31 30 30 28 26 25 23 23 24 25 26 28 27 29 31 35 37 35 38 41 39 37 33 30 27 24 23 21 21 14 13 14 14 14 14 14 15 15 14 14 14 13
21 23 22 21 25 31 31 30 28 28 27 26 27 30 32 35 35 35 36 34 39 40 37 34 31 27 25 22 18 14 14 9 11 11 12 12 12 12 12 12 12 12 12 12
20 24 23 16 20 20 21 22 24 21 19 27 32 34 34 35 35 36 35 36 40 37 35 33 27 24 21 17 9 6 9 9 10 11 12 12 12 12 12 12 12 11 11 12
17 23 10 21 28 27 24 26 24 30 31 33 34 35 34 35 36 35 35 39 38 35 32 26 23 20 15 9 5 6 7 8 10 11 11 12 12 11 12 12 11 12 12 12
20 20 22 27 28 26 27 30 32 33 33 35 34 33 33 36 36 36 38 38 35 32 29 23 19 13 7 5 5 6 7 9 10 11 12 12 12 12 12 12 13 13 13 13
25 22 20 26 29 31 27 29 35 35 35 35 35 31 33 37 38 37 37 34 31 28 24 20 12 6 5 6 5 6 8 9 11 12 12 12 12 12 13 13 13 14 14 14
26 24 26 28 30 31 24 23 35 33 33 32 32 34 36 38 37 36 34 32 28 25 21 13 7 6 6 6 5 8 10 11 12 13 13 12 12 13 14 14 14 15 14 15
27 25 23 32 32 29 31 34 33 33 32 32 33 35 37 37 36 34 31 28 24 21 14 8 8 7 6 5 8 10 11 12 13 13 13 13 13 14 15 15 15 14 15 17
27 26 32 33 32 34 33 33 33 33 33 33 34 36 37 37 36 34 30 23 18 16 12 8 9 9 6 8 10 11 12 12 13 14 14 14 15 15 15 15 14 15 16 19
31 32 33 32 34 34 34 34 34 34 34 34 33 34 35 36 35 33 25 21 16 13 8 7 9 9 9 10 11 12 12 13 14 14 15 15 15 16 15 15 15 17 20 20
32 33 34 33 34 34 34 34 34 35 34 34 33 33 35 35 35 31 23 17 14 10 9 8 9 10 11 11 13 12 13 14 14 14 15 16 16 15 15 16 18 20 21 21
30 33 32 33 34 35 34 34 35 35 34 34 34 34 35 35 33 25 20 13 10 9 9 9 10 11 11 12 13 13 13 13 14 16 16 16 15 15 17 19 20 20 20 20
33 34 33 34 35 35 35 34 35 34 34 33 35 35 35 27 19 17 11 9 9 9 10 11 11 11 12 13 14 14 14 14 15 17 16 16 16 17 17 19 19 19 19 19
34 34 34 34 33 34 34 35 35 35 35 35 35 33 28 20 15 11 8 9 11 11 11 11 12 11 12 13 14 14 14 16 16 16 17 17 18 18 18 18 18 18 18 18
35 35 34 34 34 34 34 34 33 33 33 33 33 29 19 14 11 8 10 11 12 11 10 11 11 11 13 14 14 14 15 15 16 18 18 18 17 17 17 18 17 17 17 19
34 33 33 32 32 32 33 32 32 32 32 32 30 23 15 10 9 10 11 11 9 7 10 11 11 12 13 14 14 15 16 17 18 17 17 17 17 17 17 17 17 19 19 18
33 33 31 26 25 28 31 32 33 32 32 30 26 18 10 9 10 9 9 10 11 11 11 12 12 13 14 15 16 17 17 18 18 17 17 17 17 17 18 20 21 18 18 18
32 29 27 28 28 29 31 33 33 32 31 29 16 11 9 9 7 8 9 10 10 11 11 11 12 14 17 17 17 17 18 17 17 17 17 18 18 19 19 19 19 19 18 19
29 28 27 28 29 31 31 32 32 31 20 14 11 9 9 9 10 11 11 10 10 10 10 11 15 16 16 17 17 17 17 17 17 18 19 19 19 20 21 18 19 19 19 18
26 26 26 26 30 31 31 30 28 20 14 11 10 9 9 10 11 11 11 10 11 11 13 15 16 16 16 16 17 17 18 18 19 18 18 17 17 17 17 16 16 16 16 16
23 23 21 20 22 28 29 26 20 17 13 10 9 9 10 11 12 12 10 10 11 12 14 16 16 16 16 16 17 18 18 18 17 17 15 14 14 14 15 15 15 16 16 16
21 22 22 21 18 16 14 14 15 13 10 9 11 12 12 12 12 12 12 12 13 15 16 15 15 15 16 17 17 17 17 16 14 13 13 13 14 15 16 16 16 17 17 19
20 22 24 24 22 18 14 11 10 9 10 11 12 13 13 12 13 12 11 12 14 15 14 14 15 15 16 16 16 15 13 13 13 13 14 14 15 16 17 17 18 19 18 18
20 22 23 25 23 18 16 12 11 12 13 14 14 14 14 12 12 13 13 14 14 14 13 14 14 14 15 14 13 12 13 13 13 14 14 16 17 18 17 16 17 17 17 17
20 21 22 23 22 21 16 13 13 14 15 14 12 12 13 13 12 12 13 13 13 13 12 12 12 12 12 12 12 13 13 14 14 16 18 17 15 16 17 17 17 17 18 19
20 22 23 23 21 18 16 16 15 14 12 12 12 12 12 13 13 13 12 12 11 10 9 9 10 11 12 12 12 13 14 14 14 15 15 16 16 17 17 17 16 16 17 18
22 22 20 19 17 16 15 13 12 12 12 12 12 13 13 12 11 10 10 9 9 9 9 10 10 11 12 13 13 13 14 14 15 15 17 17 16 16 17 17 17 18 18 18

GFSNGP_sfc_30mbdewp_012.txt.gz
Dewpoint
27 30 30 29 28 27 25 25 24 25 25 25 27 28 29 29 32 35 36 37 40 41 38 34 30 27 24 21 15 16 10 9 10 12 12 12 13 13 13 14 13 13 12 12
22 24 25 27 30 28 27 27 25 26 25 28 29 30 34 35 35 34 37 36 40 40 37 33 28 25 22 17 8 9 9 9 11 11 12 13 13 13 12 12 12 13 12 12
23 23 22 19 21 30 29 29 29 26 27 27 33 33 33 34 34 35 36 35 39 38 35 30 26 23 19 10 6 7 8 8 10 11 12 13 13 12 12 12 13 12 12 13
18 22 17 19 28 24 24 24 23 26 30 32 34 34 34 35 35 35 36 38 39 36 32 26 23 18 12 6 6 6 6 8 10 12 12 13 12 12 12 13 13 13 13 14
17 17 20 27 27 27 25 29 32 33 34 34 34 33 33 36 37 36 36 38 36 33 28 23 18 10 5 5 5 6 8 9 10 12 12 13 12 12 13 13 13 13 14 14
25 18 11 24 29 29 31 27 34 34 35 35 34 30 32 36 37 37 37 35 31 28 23 17 9 6 5 5 5 6 9 10 11 12 13 12 12 13 13 14 14 15 14 15
25 23 25 28 31 30 25 26 36 35 34 34 32 32 35 38 37 36 33 31 27 24 20 12 7 6 6 6 6 9 10 12 12 12 13 13 13 14 14 14 15 15 15 15
27 25 22 31 31 28 31 33 32 32 33 32 33 35 37 37 36 33 31 28 24 20 14 8 8 7 6 5 9 10 11 12 12 12 13 13 14 15 15 15 15 14 14 16
27 27 32 33 32 34 34 32 33 33 33 33 34 35 36 36 36 34 30 25 20 17 12 8 9 9 6 8 10 11 11 11 12 13 13 14 15 15 15 15 15 15 16 18
29 31 32 33 34 34 34 34 34 34 34 34 33 34 34 36 36 33 27 22 17 14 9 7 9 9 9 10 11 12 11 12 12 13 15 16 16 16 16 15 15 16 19 20
31 33 34 33 34 34 34 34 35 35 34 33 33 34 34 34 34 31 25 19 15 10 8 8 9 9 10 11 12 12 12 13 13 14 15 16 16 16 16 16 18 19 19 20
29 33 33 33 34 34 34 34 34 35 34 34 34 34 34 34 34 27 22 15 11 9 8 8 10 10 11 12 13 13 13 13 13 16 16 16 16 16 17 18 19 19 19 19
33 34 33 34 35 35 34 35 34 34 34 33 35 35 35 29 24 21 13 10 8 8 9 10 10 10 11 12 13 13 13 14 15 16 16 15 16 17 17 17 18 18 19 18
34 34 33 33 33 34 35 35 36 35 35 35 35 33 29 20 18 14 11 9 10 10 10 10 10 10 12 13 14 13 14 16 16 15 17 17 18 17 16 16 16 17 18 18
34 33 34 34 34 34 34 33 31 31 32 33 33 32 25 20 15 12 9 10 11 10 9 10 11 11 13 13 13 14 15 15 16 17 18 18 17 16 16 17 17 17 17 19
33 33 33 32 32 33 33 32 30 30 32 32 32 30 23 16 11 9 10 10 8 6 9 11 11 11 13 13 14 15 16 17 18 17 17 16 17 17 17 17 18 19 20 18
33 32 31 25 22 26 28 30 32 32 32 32 31 28 17 11 9 9 10 10 10 10 11 11 10 12 13 15 16 17 17 17 17 17 17 17 17 18 19 20 19 18 18 18
32 27 24 23 24 26 29 31 32 32 32 31 29 22 14 9 7 8 9 10 10 10 10 10 11 14 17 17 16 17 17 17 17 17 17 18 18 18 17 18 18 17 17 17
27 25 26 26 28 28 29 30 31 32 31 27 20 15 11 9 9 10 11 10 9 9 9 11 14 16 16 16 16 17 17 17 17 18 18 18 17 17 16 16 16 16 16 15
27 26 25 25 27 29 29 30 31 30 25 16 13 11 9 9 10 10 11 10 11 11 12 14 16 17 16 16 17 18 18 18 18 18 17 16 14 14 14 14 15 15 15 15
23 23 21 21 21 24 28 28 26 24 19 13 12 9 8 10 11 12 11 10 11 12 15 17 16 16 16 17 18 18 18 18 17 16 14 13 13 13 14 14 15 15 15 15
22 22 22 22 20 20 19 19 20 19 17 13 10 11 11 11 12 12 12 12 12 15 16 16 15 16 16 17 17 17 17 16 14 13 12 13 14 14 15 15 15 16 17 17
20 21 21 23 23 22 19 15 12 11 11 10 10 11 12 13 13 12 10 12 14 15 15 14 15 15 16 15 15 15 13 12 12 13 13 14 15 15 16 16 16 16 15 16
21 21 21 24 24 22 21 19 13 11 11 13 14 14 14 12 12 12 13 14 15 14 13 14 13 14 14 13 12 12 12 13 13 14 14 15 16 17 16 15 15 16 17 16
22 20 21 21 22 22 20 15 13 13 14 14 13 12 12 13 12 12 13 13 12 13 12 11 11 11 11 12 12 12 12 13 14 15 16 16 15 16 16 16 16 16 18 17
22 21 22 22 22 19 17 15 15 14 13 12 12 11 12 13 13 12 11 12 11 10 9 9 9 11 12 12 12 12 13 13 14 14 15 15 16 16 16 16 16 16 16 16
21 22 20 19 17 16 15 14 13 12 12 11 11 12 12 11 10 10 9 9 9 9 9 10 10 11 11 12 12 12 13 13 14 15 16 16 16 15 16 15 15 15 16 16

GFSNGP_sfc_30mbdewp_015.txt.gz
Dewpoint
27 29 29 27 27 25 24 25 24 24 24 25 27 30 32 33 35 35 36 38 40 40 37 32 28 25 22 16 12 11 9 9 10 12 13 13 13 13 13 13 12 12 12 11
24 27 29 29 29 27 25 25 25 25 25 27 29 31 32 34 33 33 36 37 40 40 36 31 27 24 21 12 7 9 8 8 12 12 13 13 13 13 13 12 12 12 11 11
25 23 23 25 25 29 27 28 26 25 26 28 32 33 34 34 35 35 36 36 40 39 35 30 26 23 17 6 6 7 8 9 11 12 12 13 13 12 12 12 13 12 11 12
21 21 21 24 27 29 29 27 29 26 26 30 33 34 34 35 34 35 36 37 39 37 32 26 23 17 9 6 6 7 8 8 11 12 12 13 12 12 12 13 13 12 12 13
20 19 20 25 27 25 27 27 26 29 33 34 34 33 34 36 37 37 36 39 38 34 27 22 17 10 6 5 5 6 8 9 11 12 12 12 11 12 13 13 13 12 13 13
24 15 13 22 29 29 30 23 34 34 34 33 33 29 32 36 37 37 37 36 33 27 22 16 9 6 5 5 5 6 9 11 12 12 12 11 12 13 13 14 13 14 13 14
24 19 22 28 31 29 24 23 35 35 35 34 31 32 35 37 36 35 33 30 26 23 20 12 7 7 6 5 5 9 11 12 12 12 12 12 13 14 14 14 14 14 14 14
25 22 17 30 31 27 31 34 34 33 33 32 33 35 36 37 35 33 30 28 23 18 12 8 8 7 6 4 8 10 12 12 11 12 12 12 14 15 15 15 15 14 14 15
25 24 32 33 32 34 33 32 33 33 33 33 34 35 36 36 36 33 29 26 22 17 11 9 9 8 5 7 10 11 11 11 11 12 12 14 15 15 15 15 15 14 15 17
28 31 32 33 34 33 33 33 34 34 33 34 34 35 35 36 35 32 27 21 18 15 11 9 9 8 9 10 12 12 11 11 11 12 14 14 16 16 15 15 16 16 18 18
31 33 33 33 34 34 34 35 34 34 34 33 34 34 34 34 35 32 25 20 18 13 9 8 9 9 10 11 12 11 11 11 12 13 14 16 16 15 15 16 18 18 18 19
29 33 33 33 34 35 34 34 34 34 33 34 34 33 34 34 34 28 22 17 13 9 8 8 9 9 11 12 12 12 11 11 12 15 16 15 15 15 18 19 19 18 19 19
32 34 34 34 34 34 34 34 34 33 33 33 35 35 34 32 29 26 19 14 10 8 9 9 9 10 11 12 13 12 12 13 14 16 14 15 16 17 17 16 17 18 18 18
34 34 33 33 33 34 35 36 35 35 35 35 35 34 30 25 23 17 12 9 10 10 9 9 9 9 11 12 13 13 14 16 15 15 16 17 18 17 16 16 16 16 17 18
34 33 34 33 33 34 34 33 30 30 32 33 32 32 29 23 18 14 10 10 11 9 8 9 9 9 12 13 13 14 15 15 15 17 18 18 17 16 16 17 16 17 18 17
32 32 32 32 32 33 32 30 28 29 31 32 31 31 26 20 15 10 10 10 7 5 8 9 9 11 12 13 15 16 15 16 17 17 17 16 17 17 17 17 18 17 17 17
32 32 31 29 28 28 28 29 29 30 31 31 31 31 23 15 10 9 9 9 9 9 10 10 10 11 13 16 16 16 16 17 17 16 17 17 17 17 18 18 17 17 16 16
33 33 30 21 23 25 27 29 30 31 32 32 30 27 20 13 11 7 8 10 10 9 9 10 11 14 17 17 16 17 17 17 17 17 17 18 18 17 16 16 15 15 15 15
24 24 25 25 26 26 28 29 30 31 31 30 28 25 19 13 9 9 10 10 9 9 9 11 14 17 16 16 17 17 17 17 17 17 18 17 16 16 14 14 15 15 15 14
25 25 25 26 27 27 27 29 30 30 29 25 20 16 12 9 9 10 10 10 10 11 12 14 17 16 15 16 17 18 18 18 17 17 17 15 13 13 13 14 14 14 14 14
24 24 23 23 23 26 27 28 27 26 24 17 15 13 11 9 10 11 11 10 11 12 15 17 15 16 16 17 18 18 18 17 16 16 14 13 12 13 13 14 14 14 14 14
22 22 22 21 21 21 20 21 23 22 20 16 13 11 10 10 12 12 12 12 12 15 16 16 15 16 16 17 17 16 16 15 13 12 12 12 13 14 15 15 15 15 16 16
20 21 21 22 22 22 20 18 15 14 14 13 11 10 11 12 13 12 11 12 14 16 15 14 15 15 15 15 14 14 12 12 12 12 13 14 14 15 16 16 16 15 15 15
22 21 21 23 23 22 21 20 15 12 11 11 13 13 14 13 12 13 13 14 14 14 14 13 13 13 13 12 11 11 12 12 13 14 14 15 16 17 16 15 15 15 15 15
22 20 20 22 22 22 20 14 13 13 14 14 13 12 12 13 11 12 13 12 12 12 12 11 11 11 11 11 12 12 12 13 13 14 15 15 15 15 16 15 16 15 16 15
22 21 21 21 21 19 17 15 15 14 13 12 12 12 12 13 11 10 10 11 9 9 8 9 9 11 12 11 12 12 12 13 13 13 14 15 15 16 16 14 14 14 14 14
22 21 18 17 16 16 15 14 14 12 12 11 11 12 10 9 8 8 8 8 8 9 9 10 10 11 12 12 12 12 12 12 13 14 16 16 15 15 15 14 14 14 14 14

GFSNGP_sfc_30mbdewp_021.txt.gz
Dewpoint
25 28 31 33 34 35 34 33 29 27 26 25 27 29 32 33 34 36 37 38 38 40 39 37 34 31 27 25 20 16 13 13 12 12 10 10 10 10 9 10 11 11 11 11
27 29 28 26 29 32 32 32 30 28 27 30 29 28 32 33 33 35 36 38 38 40 39 37 33 30 26 22 17 14 11 10 10 9 9 10 10 10 10 11 11 12 11 11
26 27 28 27 27 28 29 30 29 28 29 31 28 29 30 33 34 34 35 37 38 40 40 37 33 29 25 19 14 12 10 8 8 8 8 9 9 8 9 10 11 11 10 10
31 26 27 28 27 29 28 28 30 31 30 29 30 30 32 34 34 35 36 37 39 40 39 35 31 28 21 15 13 10 9 7 7 7 7 7 7 8 9 10 10 10 10 10
28 25 25 26 25 26 28 28 29 28 28 29 33 34 35 36 35 36 36 39 40 40 36 32 28 21 17 13 10 8 8 6 6 6 7 7 7 8 10 10 10 10 10 10
29 25 24 24 28 27 30 25 29 30 29 31 34 30 33 36 37 38 39 39 39 36 31 28 23 19 17 12 7 7 6 6 6 7 7 6 7 9 10 10 10 10 9 8
35 31 32 28 29 30 22 28 30 30 31 33 33 34 36 36 36 37 37 35 32 30 28 22 18 17 14 9 7 6 7 7 7 7 7 8 9 10 11 10 10 9 7 7
36 34 30 30 30 26 33 34 33 33 34 35 36 36 36 35 35 34 33 31 29 27 22 19 16 15 10 7 7 7 8 8 8 8 8 9 9 10 9 9 8 6 7 10
33 33 33 33 34 34 35 35 35 35 35 35 35 35 36 35 34 32 31 29 27 25 20 16 13 10 8 7 7 7 7 7 7 9 9 9 10 9 9 8 6 7 9 13
27 30 32 33 34 35 36 35 35 35 34 34 34 35 36 35 34 33 30 28 27 23 20 16 12 8 7 8 8 8 7 6 9 9 10 10 10 9 7 6 9 12 15 17
30 32 33 34 34 35 34 34 34 34 34 34 34 35 35 35 35 33 31 29 26 25 21 17 11 7 7 9 8 8 7 9 9 10 10 10 9 7 7 9 14 16 18 18
27 31 31 32 35 35 34 34 35 35 35 35 35 35 35 35 36 34 30 27 26 25 20 12 8 6 7 9 9 9 9 10 10 10 10 8 7 8 9 13 14 15 16 17
32 33 34 34 35 35 35 35 35 35 35 35 35 35 35 35 34 32 29 27 25 19 14 10 8 7 8 9 11 11 11 10 10 12 9 8 9 10 11 12 13 13 14 15
35 35 34 35 34 35 35 35 34 34 34 33 34 35 34 34 32 29 26 24 19 14 11 9 8 8 9 10 11 11 11 12 12 10 10 10 11 12 12 11 11 12 13 14
34 34 35 35 35 35 35 35 33 31 32 32 33 32 30 30 29 26 21 16 13 11 9 9 8 8 10 11 11 11 12 12 11 13 13 12 13 12 12 12 12 12 12 13
36 36 36 35 36 36 35 32 28 28 30 30 31 31 30 29 27 20 16 13 12 9 8 8 8 9 11 11 12 13 12 12 12 13 12 12 12 12 12 12 12 13 12 12
34 34 34 34 35 33 30 25 26 28 29 30 30 31 28 26 22 18 14 12 10 8 9 9 9 10 12 13 14 13 11 11 12 12 13 13 13 12 12 13 13 12 12 12
36 35 35 34 33 29 27 28 29 29 30 31 31 32 28 24 22 18 14 11 9 9 10 10 10 12 15 15 13 12 12 11 12 14 14 13 12 13 12 12 12 12 12 13
35 34 33 32 28 27 28 29 30 31 32 32 31 31 29 25 23 18 11 9 8 8 8 11 13 16 14 13 14 14 13 14 15 14 13 12 10 11 11 11 11 12 13 12
27 26 26 27 27 28 28 29 30 31 31 31 31 29 27 24 18 12 9 8 9 10 13 13 15 14 12 12 13 16 16 15 13 11 10 10 9 8 10 11 11 12 13 14
26 26 26 26 27 27 28 29 29 29 29 28 27 25 22 18 13 11 10 9 12 14 15 15 14 13 12 13 17 16 15 13 10 8 7 7 8 9 11 13 14 14 15 15
25 25 26 26 25 26 26 26 25 25 23 21 19 18 15 13 11 12 12 12 14 16 14 13 13 13 15 17 16 14 12 10 8 8 8 9 11 14 15 16 16 16 16 16
23 23 23 23 23 22 20 20 19 20 19 18 16 14 12 11 12 11 12 13 14 14 15 11 12 14 15 15 12 10 8 8 9 9 11 14 15 16 16 17 17 16 16 16
22 22 23 23 22 22 21 19 15 14 13 12 12 12 13 13 13 13 12 12 12 13 12 11 11 13 15 13 9 9 10 10 11 14 14 15 16 17 16 16 16 16 16 15
24 24 25 24 23 23 21 19 17 15 14 13 13 13 12 12 11 11 9 7 8 8 7 7 9 12 11 10 10 10 10 12 13 14 14 15 15 16 16 16 16 15 16 15
23 23 23 23 23 20 17 15 15 14 13 12 12 12 10 8 7 7 5 6 6 6 6 7 8 10 10 10 11 11 11 12 12 13 14 15 15 16 16 15 15 14 14 15
23 21 20 18 18 17 17 16 15 14 13 13 11 8 7 5 4 5 5 3 4 4 6 7 8 9 11 11 11 11 12 13 14 14 15 15 14 14 14 14 14 14 14 14

GFSNGP_sfc_30mbdewp_024.txt.gz
Dewpoint
36 37 36 36 36 37 36 34 30 28 23 27 31 32 32 33 36 37 38 38 39 40 38 37 34 31 28 23 19 16 15 15 13 12 11 11 12 12 12 12 12 13 14 14
28 36 36 34 35 36 36 35 34 33 29 27 29 32 32 33 35 37 37 39 39 40 38 36 33 29 26 20 16 15 13 12 11 10 10 11 11 11 11 11 12 13 13 13
26 28 28 27 29 34 35 35 35 32 32 31 29 31 32 33 35 36 37 39 39 40 38 35 32 26 23 18 15 12 11 9 8 9 9 9 10 10 10 11 12 12 11 11
32 27 25 27 27 28 28 30 33 32 30 31 30 33 34 35 34 35 37 38 40 40 38 34 30 26 19 15 13 12 10 8 8 8 8 8 8 9 10 11 11 11 11 11
30 26 27 27 25 27 28 28 29 30 31 33 34 34 35 36 37 37 38 40 41 39 34 30 26 18 16 12 11 10 9 7 6 7 7 8 8 9 10 11 11 11 11 10
32 26 25 26 27 27 29 27 30 31 30 33 33 30 34 37 38 40 40 39 36 33 29 26 19 17 13 11 9 8 7 7 7 7 8 8 8 9 11 12 11 11 10 9
33 31 32 28 28 29 25 28 31 31 33 35 33 35 36 38 38 38 37 34 31 29 27 21 19 17 12 8 8 7 8 8 8 8 8 8 10 11 11 10 10 10 8 8
35 33 28 30 29 27 33 34 33 35 36 36 36 36 36 36 36 34 32 31 29 22 19 18 17 14 10 7 7 8 8 8 9 8 9 10 10 11 11 10 9 8 8 11
37 36 33 34 34 34 36 34 36 36 37 36 36 35 35 34 33 32 30 28 24 20 18 15 14 11 8 8 8 8 8 7 8 9 10 11 11 11 10 9 8 8 10 14
32 31 32 33 34 36 37 36 36 36 36 36 35 35 35 33 32 30 29 27 23 19 16 14 10 8 8 9 8 8 7 7 9 10 12 11 11 11 9 7 9 10 14 16
30 32 33 34 34 36 35 35 35 35 36 36 36 36 35 34 32 30 29 28 24 21 17 14 10 8 9 9 9 9 9 10 11 12 11 11 11 9 9 10 13 15 15 16
30 31 31 33 35 35 35 35 35 35 35 36 36 35 36 35 34 31 29 27 26 23 17 11 8 8 9 9 10 10 11 11 12 12 12 12 9 9 12 13 15 15 15 15
32 34 34 35 35 35 35 35 36 36 36 35 35 35 36 35 33 31 28 27 25 18 12 9 8 7 9 10 11 12 12 12 12 14 12 10 11 11 12 13 14 14 14 14
35 35 34 35 34 36 36 36 36 35 35 35 35 35 34 33 31 28 26 24 18 13 11 10 9 9 9 11 12 12 12 14 14 13 12 13 13 13 13 12 12 12 13 15
34 35 35 36 36 35 34 34 33 32 33 33 33 33 32 31 28 26 20 16 14 12 10 9 9 9 11 12 12 12 13 14 13 13 14 14 14 13 13 13 12 12 13 14
36 36 35 35 35 35 33 31 30 30 31 31 31 30 29 28 23 18 15 13 12 10 10 9 9 11 12 12 12 14 14 15 14 14 14 13 14 14 14 13 13 13 13 12
34 34 35 35 34 33 30 28 29 30 30 30 31 30 27 23 19 16 14 13 10 9 10 10 10 12 12 13 15 15 13 13 13 13 13 15 15 14 13 13 13 12 12 12
36 36 36 35 33 27 27 29 29 30 30 31 31 27 25 23 20 17 14 11 10 10 10 10 12 13 15 16 14 14 14 14 14 15 15 14 13 13 11 11 11 11 12 13
36 35 34 31 28 29 29 30 31 31 31 31 31 29 27 24 22 17 12 10 9 8 10 12 15 15 15 14 15 15 15 16 16 16 14 12 10 11 10 10 11 12 13 13
32 30 28 28 29 29 30 31 31 31 32 31 30 28 26 22 15 11 10 9 12 13 14 15 15 14 13 12 15 17 17 17 15 13 10 10 8 8 10 11 13 14 15 14
27 27 27 27 28 29 30 30 30 29 29 29 27 25 23 17 13 11 10 10 14 16 16 15 15 14 14 16 18 18 16 15 12 9 8 8 9 10 13 14 16 15 15 15
25 26 26 27 27 27 26 27 26 24 23 20 19 17 14 12 12 12 13 14 15 16 15 14 13 15 16 17 16 15 12 10 9 9 9 10 12 14 15 16 16 17 17 16
25 24 24 24 23 22 21 20 21 20 19 17 15 13 13 13 14 12 13 15 14 16 14 12 13 14 16 15 14 12 10 10 10 10 12 14 15 16 17 18 16 16 16 17
23 23 23 22 21 20 19 15 15 14 13 14 14 14 14 13 13 12 13 12 12 14 10 9 11 13 14 12 11 10 10 10 11 12 14 15 15 16 16 15 15 16 17 16
24 23 23 23 23 21 18 16 14 14 13 13 13 12 11 11 12 10 7 7 8 8 8 8 10 11 11 11 11 10 11 12 12 13 14 14 16 15 15 16 16 15 16 15
23 23 23 23 21 19 17 16 14 13 13 13 12 10 8 7 8 6 5 6 5 6 6 7 8 10 11 10 11 12 12 12 12 13 15 16 16 16 14 14 14 14 14 14
22 21 19 18 17 17 16 15 14 14 13 13 9 7 5 4 4 3 4 4 4 5 6 7 9 10 11 11 12 11 12 13 13 14 15 14 14 14 13 13 13 14 14 13

GFSNGP_sfc_30mbdewp_027.txt.gz
Dewpoint
37 36 36 36 37 37 36 36 28 26 26 29 30 30 32 36 37 38 39 40 40 39 38 36 33 29 24 19 17 16 16 15 13 12 11 12 12 12 12 12 12 13 14 14
36 36 36 34 35 36 37 36 35 34 32 29 32 32 32 36 37 38 38 39 40 39 38 35 31 26 21 18 16 16 14 13 12 10 11 11 11 10 10 11 12 13 12 12
30 35 34 32 34 35 36 36 35 32 30 30 31 32 32 35 37 38 38 39 40 39 37 33 29 24 19 16 15 13 11 10 10 9 9 9 9 9 9 10 12 11 11 12
31 27 23 27 29 36 36 36 36 35 33 30 33 35 35 35 37 38 39 39 40 38 35 31 26 21 17 15 13 12 10 9 9 8 8 8 8 9 9 10 11 11 11 11
28 27 28 27 25 27 30 30 33 35 34 33 34 34 35 38 37 38 39 40 40 37 32 27 21 17 15 13 12 11 9 7 7 7 7 8 8 8 10 11 11 11 11 11
31 26 24 26 27 27 29 27 31 31 32 33 33 29 34 39 39 39 38 36 33 29 23 19 17 14 12 11 10 9 7 7 7 8 8 8 8 10 11 11 11 11 10 10
32 31 30 31 28 30 25 26 33 33 34 34 30 33 37 38 36 34 32 30 28 24 20 18 15 13 12 9 8 8 8 8 8 9 8 9 10 11 11 11 11 10 9 9
33 31 27 31 27 24 31 34 36 36 36 36 37 37 37 35 34 33 31 28 24 21 19 18 14 12 9 7 8 9 9 8 9 8 10 11 11 11 11 10 9 8 8 11
35 32 35 34 33 35 36 35 36 36 36 36 36 36 35 33 32 30 27 22 20 18 17 15 13 11 8 7 8 8 8 7 8 10 11 12 11 11 11 9 8 9 11 14
36 34 33 33 34 36 36 36 37 37 36 36 35 34 33 32 30 28 25 22 18 16 14 11 10 9 9 9 9 8 7 8 10 11 14 12 12 11 9 10 11 13 15 16
31 32 33 33 34 36 36 36 36 36 36 35 34 33 32 31 29 28 26 21 18 16 13 9 8 9 9 9 9 8 9 11 11 13 13 12 12 10 12 13 15 16 16 16
33 32 30 32 35 36 35 35 36 36 36 36 35 34 33 31 30 29 26 23 20 17 15 10 8 9 9 10 10 10 10 11 12 15 13 12 11 12 14 15 16 16 16 16
32 33 34 35 36 36 35 36 36 36 36 35 36 35 34 32 30 29 27 25 22 17 11 9 8 9 10 11 11 12 11 12 14 14 13 12 13 14 14 14 15 14 15 15
35 35 34 35 34 36 36 36 36 35 35 36 36 35 33 32 30 28 27 23 16 12 10 9 9 9 10 12 12 12 12 15 15 14 14 14 14 14 14 14 13 13 14 15
35 35 35 36 36 35 35 34 34 34 34 34 34 33 31 29 27 25 21 15 13 12 11 10 9 10 12 12 12 12 14 15 15 15 14 15 14 14 15 14 14 13 13 13
36 36 35 35 34 34 33 32 32 32 32 31 32 31 29 26 21 17 15 13 13 11 10 9 9 12 12 12 13 15 15 16 16 14 13 13 15 15 15 13 12 12 12 11
34 34 34 33 33 32 30 31 31 31 30 29 29 28 23 19 16 15 14 12 12 10 10 10 11 12 13 14 15 14 14 14 16 14 15 16 16 14 14 12 11 11 11 12
35 35 35 34 32 29 29 30 30 30 30 29 27 24 21 19 17 15 12 10 10 10 10 11 13 14 15 15 14 14 14 15 16 16 17 15 13 11 10 10 10 11 12 14
36 35 34 30 28 29 29 30 30 31 30 27 26 24 23 21 18 14 11 10 9 9 11 15 17 15 14 15 16 15 16 17 17 16 14 12 10 10 10 10 11 13 14 14
35 32 29 29 29 30 30 31 31 31 30 29 27 24 21 18 14 11 10 11 11 12 14 16 14 14 13 15 18 18 17 17 16 13 10 10 9 10 10 12 14 14 15 14
29 29 29 29 30 30 31 31 30 30 29 28 26 23 18 13 12 11 12 12 15 17 16 16 15 14 16 18 17 15 15 13 11 9 9 10 10 11 13 14 15 16 16 15
28 28 28 28 28 28 29 28 27 25 23 21 18 15 13 12 13 14 14 14 17 18 15 13 13 16 17 18 15 14 12 10 10 10 10 11 13 14 15 16 17 16 15 15
27 27 26 25 25 24 23 22 20 19 17 16 15 13 13 13 13 12 13 16 15 16 12 11 13 15 16 13 12 11 11 11 11 11 12 13 14 15 15 15 15 15 15 16
24 23 22 20 19 18 17 15 15 14 14 14 15 14 13 12 12 13 14 13 13 10 9 12 13 14 14 11 11 11 11 11 12 12 13 14 13 14 15 15 15 15 14 14
23 22 22 21 19 16 15 15 14 13 13 12 11 10 11 12 12 8 7 7 9 9 6 10 11 12 11 11 11 11 12 12 12 13 13 14 16 15 15 14 13 13 15 13
23 23 22 21 19 16 15 14 13 13 12 11 8 7 7 8 8 5 5 7 6 7 6 7 9 11 10 11 12 11 11 11 12 13 14 15 14 13 13 13 13 13 13 13
21 20 18 17 17 16 15 14 14 14 12 9 7 5 4 4 6 5 5 5 5 7 7 8 9 10 11 11 9 10 11 12 12 13 13 13 13 13 13 12 13 13 13 13

GFSNGP_sfc_30mbdewp_030.txt.gz
Dewpoint
32 33 35 34 35 35 31 30 26 25 31 30 29 30 35 37 39 39 41 41 40 39 37 33 29 26 21 19 17 16 15 14 13 12 12 12 12 11 11 12 12 13 13 13
32 38 36 36 36 36 35 35 33 36 29 30 32 32 35 37 38 39 40 41 40 38 36 33 29 24 19 18 17 16 16 14 13 11 11 11 10 10 10 10 11 12 12 12
31 35 36 33 34 38 36 39 38 34 31 31 31 31 35 37 38 38 40 40 39 38 36 33 27 22 18 17 16 15 14 12 10 10 9 9 9 9 9 10 11 11 11 11
33 29 23 27 28 36 36 36 36 35 30 31 31 34 35 37 38 38 39 40 39 38 35 30 24 20 17 15 14 13 11 10 10 9 8 8 8 8 9 10 11 11 11 11
31 28 28 26 25 30 34 32 36 36 34 33 35 35 35 38 38 39 39 41 39 37 31 25 20 17 15 14 13 11 10 9 8 7 7 8 8 9 10 11 11 11 11 11
32 27 24 26 28 28 29 26 31 32 34 33 34 31 33 38 39 39 39 37 34 29 25 20 17 15 14 13 11 10 8 8 8 8 8 8 9 10 11 11 11 11 10 9
32 31 29 32 29 30 24 24 32 33 34 34 32 33 37 35 33 33 31 29 25 23 21 16 14 13 12 11 10 9 9 8 9 9 8 9 11 11 11 11 11 9 9 10
34 31 24 32 27 23 28 35 36 36 36 35 37 36 34 32 31 29 26 23 22 19 16 14 14 13 11 9 8 9 9 9 8 9 10 11 11 11 11 10 10 10 11 12
33 31 34 34 32 35 36 35 36 36 37 37 36 34 33 31 28 25 23 22 20 18 15 13 13 11 9 8 9 8 8 7 9 11 13 12 12 11 10 11 11 12 14 16
35 35 36 33 35 36 36 36 36 37 37 36 35 33 32 29 26 23 21 19 18 15 13 12 10 9 8 9 9 7 7 9 11 12 15 13 12 11 12 13 14 16 16 16
34 33 33 33 34 36 36 37 36 36 35 34 33 32 31 28 26 23 20 18 16 14 11 10 9 9 9 9 8 8 9 11 11 14 14 13 12 12 15 16 17 17 17 17
34 33 32 32 35 36 36 36 36 35 34 34 32 31 30 28 26 22 20 18 16 12 9 9 9 9 10 10 9 9 10 11 13 15 13 12 13 13 16 16 17 16 16 16
34 34 35 35 36 36 36 36 36 35 34 33 32 31 30 29 27 25 21 19 17 14 10 9 9 9 10 11 11 11 10 13 14 14 13 13 14 14 14 15 16 15 15 15
35 35 34 35 35 36 36 36 36 36 35 35 33 32 30 30 29 25 23 21 17 12 10 9 9 9 11 12 12 11 12 17 15 14 14 14 15 14 14 14 14 13 14 14
35 35 35 36 36 35 35 35 35 34 34 33 33 31 30 28 27 25 20 16 13 11 10 10 9 10 12 12 11 13 14 15 16 15 14 16 14 15 15 15 14 12 12 12
35 35 35 35 34 34 34 34 34 33 33 32 31 30 28 26 22 17 15 13 12 11 10 10 10 12 12 12 14 15 14 16 17 16 15 15 16 15 15 13 11 11 11 11
34 33 34 33 33 33 33 33 33 32 32 31 29 25 22 19 16 14 13 13 12 10 10 10 11 13 13 15 15 14 14 14 17 16 16 17 15 14 13 11 10 10 11 12
35 35 35 34 32 31 31 31 30 30 30 28 24 21 18 17 16 13 12 11 10 10 11 12 13 14 15 15 15 15 15 16 16 16 16 14 13 11 10 10 11 12 13 14
35 35 33 31 30 30 30 30 30 29 28 25 22 20 19 17 15 11 10 9 9 9 12 17 19 15 13 16 17 17 16 16 16 15 12 11 10 10 11 11 13 14 14 14
34 31 30 30 30 30 29 30 30 28 26 24 23 21 19 16 13 11 10 10 11 11 15 16 14 13 13 16 20 15 15 14 12 10 10 11 10 11 12 13 14 14 15 15
30 30 30 30 30 30 30 30 29 27 26 24 22 19 16 13 12 13 13 13 16 17 17 17 14 15 16 19 15 13 13 11 10 10 10 11 11 12 14 15 15 15 14 14
29 29 29 29 29 29 29 29 28 27 25 22 16 13 12 12 13 14 15 15 18 17 13 13 14 16 18 15 12 11 11 10 11 11 11 12 13 14 14 15 14 14 15 14
28 28 28 28 27 25 24 23 22 21 19 16 14 13 13 14 14 13 13 16 16 14 10 13 15 16 17 11 11 11 11 11 11 12 12 13 14 13 14 14 14 14 14 14
26 25 24 22 21 20 19 16 16 15 15 15 14 14 14 13 13 15 16 16 13 10 11 14 14 15 13 11 10 11 12 11 11 12 13 13 13 14 14 14 13 13 13 13
23 22 21 20 18 17 16 15 14 13 12 12 12 12 12 12 10 8 8 10 12 6 6 11 12 13 10 11 11 12 11 11 11 13 13 13 14 14 13 12 12 12 14 12
22 21 20 18 16 16 14 13 13 11 9 8 8 8 7 8 9 7 7 7 8 8 7 8 10 11 11 11 11 9 10 10 11 12 14 13 12 12 12 12 12 12 12 12
22 20 18 16 16 15 14 14 13 12 9 6 5 5 5 6 8 6 6 6 7 8 8 8 8 9 10 10 9 9 10 11 12 13 13 11 12 12 12 12 12 13 13 13

GFSNGP_sfc_30mbdewp_033.txt.gz
Dewpoint
32 33 33 32 31 30 28 25 22 23 26 27 26 31 36 40 41 42 42 41 39 37 33 29 26 23 19 17 17 15 14 14 13 12 12 12 11 11 11 11 12 13 12 12
30 33 33 31 33 30 30 26 27 32 29 30 32 35 36 39 40 41 41 41 40 37 32 29 26 21 19 17 17 16 15 14 13 12 12 11 10 10 10 11 11 12 11 11
29 33 34 29 34 31 32 31 28 31 32 32 32 33 36 38 39 40 41 41 39 37 33 29 25 20 18 17 17 16 15 13 12 12 10 10 9 9 9 10 11 11 11 11
30 32 26 32 38 37 34 36 37 37 36 37 37 34 37 38 39 40 41 40 39 37 33 28 22 19 18 17 16 15 13 11 11 10 9 8 8 9 10 10 11 11 11 11
31 29 29 26 37 36 35 34 38 38 39 35 35 35 36 38 39 40 41 40 39 36 31 24 20 18 16 15 15 13 11 10 9 8 8 8 9 9 10 11 11 11 11 10
32 28 24 26 28 31 34 33 38 39 37 33 34 29 32 38 39 40 40 39 35 30 25 21 18 16 15 14 12 11 10 8 8 8 8 9 10 11 11 11 11 11 10 10
31 29 29 32 32 29 24 24 32 33 35 34 32 35 36 36 36 37 36 32 28 26 23 18 15 15 14 12 11 10 9 8 9 8 9 10 11 11 11 11 10 10 11 12
32 30 24 32 27 24 28 35 36 35 35 35 35 33 32 31 30 30 29 26 23 20 17 15 15 14 12 11 10 9 9 9 8 10 11 11 11 11 11 11 11 12 14 15
34 31 34 34 33 35 36 35 36 36 37 35 33 32 30 27 26 24 23 21 19 17 15 14 14 13 11 9 9 9 8 8 10 12 12 12 11 11 11 12 13 14 15 16
35 34 35 34 34 36 36 36 37 37 36 35 32 30 26 24 23 22 21 19 17 16 14 12 11 10 9 9 8 7 8 10 11 13 14 13 12 12 13 14 15 16 17 16
35 35 35 33 34 36 36 36 36 36 35 33 31 29 26 24 23 21 19 17 16 15 13 10 9 9 9 9 8 8 10 11 13 14 13 13 12 13 16 16 17 17 17 17
33 35 33 32 35 37 36 36 35 34 34 33 32 29 27 24 21 20 18 16 14 12 10 9 9 9 9 9 9 9 10 11 15 15 13 13 13 14 16 17 17 17 17 16
36 34 35 36 36 37 36 35 35 34 33 31 30 28 26 23 21 22 18 15 13 11 10 9 9 9 11 11 10 10 10 14 14 14 14 13 14 14 14 15 16 15 15 15
35 35 34 35 35 36 36 36 35 34 33 31 30 29 27 26 24 20 18 16 12 10 10 10 9 10 12 12 11 11 13 18 15 15 15 15 15 15 15 14 14 13 13 14
35 36 35 36 36 36 36 35 33 32 32 31 30 29 27 24 22 21 18 15 12 11 10 10 10 11 12 12 12 13 14 15 17 16 15 17 16 15 14 14 14 12 11 11
35 36 36 35 35 35 34 33 32 32 31 30 29 28 27 24 21 18 15 12 11 10 10 10 10 12 12 13 15 14 14 17 18 17 16 16 15 14 14 12 10 11 11 11
34 34 34 34 34 34 33 33 33 32 31 30 28 25 22 19 16 14 13 13 12 11 10 11 12 13 14 15 14 14 14 15 17 16 16 16 13 13 11 10 10 11 11 13
35 35 35 34 33 33 32 32 32 31 30 26 23 21 19 17 15 14 12 11 10 11 11 12 13 15 15 15 15 15 16 15 16 15 14 11 12 11 10 11 11 12 14 14
35 35 34 33 32 32 31 30 30 28 25 23 21 20 18 15 13 12 10 9 9 9 13 17 19 14 13 19 19 17 14 14 13 11 10 12 10 10 12 12 13 14 14 14
33 32 31 31 31 30 30 29 27 25 23 22 20 18 15 12 11 10 10 10 10 12 16 16 14 13 15 19 19 13 13 12 10 10 10 12 11 12 12 14 14 14 14 13
30 30 30 30 30 30 29 27 26 24 23 21 19 17 15 12 12 13 12 13 17 18 18 17 14 16 17 17 13 12 11 10 10 11 11 11 12 13 14 14 14 13 13 14
30 30 30 29 29 29 28 27 25 24 21 18 16 14 13 13 14 14 15 15 18 16 13 14 15 17 19 13 11 10 10 11 11 11 11 12 13 13 13 13 13 13 14 13
29 29 29 28 27 26 25 24 23 20 17 15 14 13 13 14 15 14 15 18 14 14 12 14 16 18 15 10 10 11 11 11 11 11 12 12 13 12 13 13 13 13 12 12
27 26 25 24 24 23 22 18 17 16 15 15 15 14 14 13 14 16 17 16 14 12 14 14 15 16 12 10 11 12 11 10 10 11 12 13 12 13 13 13 12 12 12 12
25 24 23 22 20 18 17 16 14 13 13 13 13 13 12 12 11 11 12 13 10 6 7 12 13 13 10 10 11 10 9 10 11 13 12 12 13 12 12 11 11 12 14 13
23 21 19 18 17 15 14 13 12 11 10 10 9 8 8 9 8 6 7 8 8 9 7 8 10 11 10 10 11 9 9 10 11 12 13 13 12 11 11 11 11 12 12 12
19 18 17 15 15 14 14 12 11 11 9 7 5 5 5 6 7 6 7 7 8 8 8 7 6 9 10 10 9 9 10 10 11 12 12 10 10 10 11 12 12 12 13 13

GFSNGP_sfc_30mbdewp_036.txt.gz
Dewpoint
32 32 32 32 31 31 29 28 24 21 21 22 26 28 31 38 43 43 40 38 36 32 29 26 22 19 17 16 15 14 14 14 12 12 13 12 11 12 12 12 12 13 12 11
30 33 34 31 32 32 32 31 29 25 23 25 31 34 34 37 42 42 40 38 36 32 28 25 21 18 17 16 15 16 15 14 13 13 12 11 11 10 11 11 11 12 11 11
27 33 32 30 32 33 33 31 29 26 26 26 30 33 36 37 41 42 41 39 36 32 28 25 21 18 17 16 17 16 15 13 13 12 11 10 10 10 10 10 11 11 11 11
29 32 26 32 38 37 34 32 31 29 30 34 36 37 37 39 41 41 41 39 36 32 28 24 20 19 18 17 17 16 13 12 12 11 9 9 10 10 10 11 11 11 10 11
30 29 31 29 36 35 32 33 35 35 33 34 38 36 36 38 40 41 41 40 37 33 27 22 20 18 17 17 16 14 12 11 10 9 8 9 10 10 11 11 11 10 11 10
32 28 26 28 29 38 37 33 40 38 37 37 36 31 33 38 40 41 40 39 35 29 24 21 18 17 16 15 14 12 11 9 9 9 9 10 11 11 11 11 11 11 10 12
32 29 30 32 33 37 28 25 36 40 39 41 38 37 37 39 39 39 37 34 29 26 23 19 17 16 15 14 13 11 10 9 9 10 10 11 11 11 11 10 11 11 13 15
31 29 25 33 29 27 29 33 35 35 36 39 37 35 34 34 34 33 31 29 25 22 19 17 16 16 14 13 11 9 10 9 10 11 11 12 11 11 10 11 12 13 15 16
32 31 34 35 33 35 36 35 36 36 36 35 33 32 30 29 28 26 25 23 21 19 16 15 15 14 12 10 10 9 9 10 12 13 12 12 11 11 11 13 14 15 16 17
35 34 34 34 34 36 36 36 37 37 35 33 30 28 26 25 24 23 22 20 18 17 15 13 12 11 10 10 9 8 9 11 13 16 13 12 12 12 14 14 15 16 17 17
35 35 35 35 34 36 36 36 35 34 33 30 28 26 25 23 22 20 19 18 17 15 12 11 10 9 9 8 8 9 10 12 14 14 13 12 13 13 16 17 18 18 18 17
32 35 34 32 36 36 36 35 34 33 31 30 28 26 23 21 20 18 17 15 14 12 10 9 9 9 9 9 9 10 11 13 17 13 13 13 13 13 16 17 17 17 16 16
36 34 35 36 37 37 35 35 34 33 31 29 27 24 22 21 19 19 16 14 13 11 10 10 9 9 10 10 10 10 12 14 14 14 13 13 14 15 14 14 15 14 14 15
35 35 35 36 35 36 35 34 33 31 30 29 26 25 24 22 19 17 15 13 11 11 10 10 10 10 12 12 11 13 18 19 15 15 14 14 16 15 15 14 13 11 12 14
35 36 36 36 36 35 34 33 32 30 29 28 27 25 22 20 19 16 13 11 11 11 10 10 10 11 12 12 13 13 14 16 17 16 15 17 16 14 14 13 12 11 11 12
36 36 36 36 35 34 33 32 31 30 29 28 26 24 22 20 17 14 12 12 11 10 10 10 11 12 13 14 14 14 14 18 18 16 15 15 14 13 13 11 10 11 11 11
34 34 35 35 34 34 32 32 31 30 29 27 25 22 19 17 15 13 13 12 11 11 11 11 12 13 15 15 14 14 14 14 17 15 14 13 11 13 10 10 11 11 12 13
35 35 36 35 34 33 32 32 31 29 27 25 22 20 18 16 14 13 11 11 11 11 12 13 15 15 15 15 15 16 15 14 14 13 11 10 13 11 10 12 12 13 14 14
35 35 35 34 33 32 32 31 29 26 24 22 21 19 16 14 13 11 10 10 10 10 13 18 19 15 18 21 17 14 12 12 10 9 10 12 11 11 12 13 14 14 13 13
33 33 33 32 32 31 30 28 25 24 23 20 18 15 14 13 11 10 10 10 11 14 18 15 13 15 18 20 16 12 11 10 9 10 10 12 11 13 13 13 13 13 13 13
32 31 31 30 29 28 27 25 24 22 20 19 16 14 13 11 12 12 11 13 18 18 17 17 16 17 20 14 11 10 10 10 10 10 11 11 12 13 13 13 13 12 12 13
30 30 29 28 27 26 25 24 22 21 19 17 14 13 13 13 14 15 16 16 19 17 14 15 16 21 17 12 10 10 11 11 10 10 11 12 12 12 12 12 12 12 13 12
30 29 28 27 26 25 23 21 20 18 17 15 14 14 14 15 16 15 15 17 15 15 14 16 18 19 14 10 10 11 11 10 10 10 11 12 12 12 11 11 12 12 11 12
28 27 26 24 23 22 20 17 16 16 15 15 15 15 14 14 15 17 17 15 16 15 15 15 16 16 12 10 10 11 10 9 10 10 12 13 11 11 11 11 11 11 11 12
26 25 25 24 21 19 18 16 15 14 14 13 13 13 13 13 14 13 13 13 12 8 10 13 14 13 9 9 11 10 9 9 10 13 11 11 12 11 10 10 10 11 13 13
24 23 21 21 19 17 15 15 13 12 11 10 10 9 10 11 12 9 9 10 9 9 6 7 9 10 9 10 11 9 10 10 10 11 12 12 11 10 10 10 11 11 11 12
20 19 17 16 15 14 14 13 12 12 10 8 7 6 6 6 8 8 8 7 7 7 6 5 4 8 10 11 9 10 10 10 10 12 11 9 9 9 9 10 11 11 12 12

GFSNGP_sfc_30mbdewp_039.txt.gz
Dewpoint
29 30 31 32 31 32 29 28 25 22 24 25 24 28 28 32 41 41 39 36 34 31 29 25 22 20 18 16 14 14 14 14 13 13 13 13 13 13 13 13 13 13 12 12
30 32 32 32 34 33 33 31 30 29 27 30 26 33 34 35 40 41 39 36 32 30 26 23 21 18 17 15 15 16 15 14 15 13 13 13 12 13 13 13 12 12 11 11
27 31 32 30 34 33 33 33 31 28 29 30 29 30 33 37 39 42 39 35 31 28 25 22 19 17 16 16 16 16 15 14 13 13 12 12 12 12 12 12 12 11 11 11
28 31 25 30 38 38 35 35 34 32 30 30 32 35 38 39 40 43 39 35 31 28 23 20 18 17 17 17 16 15 14 13 13 12 11 11 11 11 11 11 11 10 10 11
29 29 29 29 31 36 35 34 37 34 33 32 34 38 36 39 42 42 39 35 31 28 23 20 18 17 17 17 16 14 13 12 11 10 10 11 11 11 11 11 10 10 11 11
31 28 25 29 32 37 37 32 38 35 35 36 38 34 35 39 42 41 38 34 30 25 22 19 18 17 17 16 14 13 12 10 10 10 11 11 11 11 11 11 10 11 11 14
30 29 30 33 32 38 28 31 33 38 38 38 39 36 37 39 40 39 37 32 27 24 21 19 18 17 16 15 13 12 10 10 10 11 11 11 11 11 10 11 11 11 13 15
31 29 26 34 31 27 30 34 35 36 39 41 37 36 35 35 34 33 31 28 25 21 19 18 17 17 15 13 11 10 10 11 12 12 11 11 11 11 11 12 12 13 16 16
31 30 32 36 35 34 36 35 36 36 36 38 34 34 33 31 30 28 26 24 21 19 17 17 16 15 13 10 10 10 11 12 12 12 12 11 11 11 12 13 13 15 16 16
35 34 35 36 35 36 36 36 36 37 35 34 32 30 28 26 25 24 22 20 18 17 15 14 14 12 10 10 10 10 11 13 14 13 12 12 13 12 14 14 15 17 17 16
35 35 35 35 35 36 36 35 33 32 31 29 29 27 25 23 22 21 20 19 17 15 13 11 11 10 9 9 10 10 12 13 14 13 12 12 13 13 16 17 18 17 17 17
32 35 34 33 36 36 35 34 32 30 29 28 27 24 23 21 20 19 17 15 14 12 11 10 9 8 9 10 11 11 13 15 14 13 13 13 13 13 17 17 17 17 16 16
36 35 35 36 37 36 35 33 32 29 27 25 24 22 21 19 18 19 15 14 12 11 10 9 9 9 10 11 11 12 13 15 16 13 13 13 14 14 13 12 14 13 14 15
35 35 35 36 35 35 34 33 31 28 26 25 23 22 21 19 17 15 14 12 11 11 10 10 10 10 11 12 16 18 18 17 15 14 13 16 16 15 13 12 10 9 11 14
35 36 36 36 36 34 33 31 30 28 26 25 23 21 19 17 15 13 12 11 11 11 11 11 11 11 13 14 14 14 16 17 16 15 16 17 14 12 13 11 10 9 10 12
36 36 36 36 35 34 33 32 30 28 26 24 22 20 17 15 13 12 12 11 10 9 10 11 11 13 15 14 14 14 17 19 17 14 14 13 11 12 11 9 10 10 11 11
35 35 35 34 34 33 32 32 30 28 25 23 20 18 15 14 13 12 12 12 11 11 12 11 12 15 15 14 14 14 14 14 16 12 11 10 11 13 10 10 11 12 12 13
35 36 36 35 34 32 31 30 29 26 24 21 19 17 16 15 13 12 11 11 12 12 12 14 15 15 15 16 16 14 12 12 11 9 9 10 13 10 11 12 12 13 13 13
35 35 35 34 33 32 30 29 27 24 22 20 19 17 15 13 12 11 11 11 11 11 15 19 21 19 20 20 13 12 10 9 8 9 10 13 11 12 12 12 13 13 12 12
34 34 33 33 32 30 27 26 24 23 21 18 16 15 13 12 11 11 11 10 12 17 18 15 16 19 19 17 13 11 9 9 9 10 10 11 11 13 12 13 12 12 12 11
32 32 32 31 29 27 26 24 23 21 19 17 16 14 12 11 12 12 13 15 18 17 17 17 17 19 16 13 10 9 9 10 10 10 10 10 12 12 12 12 11 11 11 12
31 30 29 28 26 25 25 23 21 19 17 15 14 13 12 13 14 16 16 16 20 18 16 17 19 19 15 11 10 10 11 10 10 10 10 11 12 12 12 11 11 12 12 13
30 28 27 26 25 23 22 21 19 17 15 14 13 13 14 15 16 15 16 17 16 17 16 18 21 17 13 9 10 11 10 9 9 10 11 12 12 12 11 11 12 12 12 12
28 27 26 23 21 20 19 17 16 16 15 15 15 15 15 15 16 17 17 17 18 16 16 17 18 15 11 9 10 10 9 9 9 10 11 13 11 11 11 11 11 11 11 12
26 25 24 22 20 18 18 17 16 15 14 14 14 14 15 15 15 15 15 17 17 13 13 14 15 12 8 9 11 10 9 10 11 13 11 11 11 11 10 10 10 11 13 13
25 24 22 20 19 18 16 16 14 13 12 11 11 12 13 14 14 10 10 10 9 9 5 7 9 9 9 10 11 9 10 10 10 10 12 12 11 9 9 9 10 10 11 11
21 20 19 17 17 16 15 14 14 13 11 10 10 9 9 9 10 9 9 7 6 5 4 3 3 9 10 10 9 10 10 10 10 11 12 9 9 8 8 9 9 10 11 11

GFSNGP_sfc_30mbdewp_045.txt.gz
Dewpoint
29 27 27 28 29 30 32 31 27 26 28 30 32 32 30 29 27 26 34 40 40 40 41 42 41 37 32 30 26 23 22 20 19 18 17 16 16 15 14 14 14 13 12 11
28 29 28 28 29 30 33 36 35 35 33 35 33 30 32 30 28 35 36 41 39 39 39 34 30 27 24 21 20 20 21 20 19 18 17 16 15 15 15 15 14 14 12 11
24 27 26 30 33 34 37 38 36 31 31 31 31 35 38 38 39 38 40 39 37 36 31 26 22 20 19 19 20 21 21 19 18 17 17 16 15 15 15 14 14 13 12 11
26 26 24 26 34 35 35 37 37 37 35 35 35 35 40 41 43 40 38 36 34 30 26 22 21 20 21 22 20 21 20 19 17 16 15 15 15 15 15 14 13 12 11 11
26 24 24 25 32 31 35 36 37 37 37 36 36 41 40 43 41 39 36 32 29 25 23 24 24 24 24 24 21 19 18 17 15 14 14 14 14 13 13 12 12 11 12 11
27 24 21 28 33 36 38 34 36 39 40 39 38 37 38 41 38 35 30 29 28 28 30 33 32 32 31 28 26 25 19 14 13 13 13 14 14 13 13 13 12 12 10 11
27 26 25 27 33 39 29 33 36 39 39 40 36 38 41 40 35 33 31 31 30 29 31 29 29 25 22 20 17 14 12 12 13 13 13 14 13 13 13 13 12 11 9 9
31 28 24 33 34 33 34 38 37 41 39 38 38 38 38 36 32 30 28 28 26 24 22 21 21 20 18 14 12 12 13 13 13 13 13 13 13 12 12 12 11 9 8 10
30 28 30 35 35 36 37 36 36 37 42 39 38 38 37 34 34 33 28 27 24 21 21 22 20 18 14 12 13 13 13 13 13 13 13 13 13 13 12 11 9 8 10 10
32 32 34 35 36 36 37 36 36 36 38 43 37 37 35 32 29 29 31 31 28 25 20 16 14 12 12 12 13 12 12 13 13 12 12 13 13 12 11 9 9 10 9 10
33 34 35 35 36 36 36 35 33 33 35 39 36 34 33 33 29 27 24 23 22 19 15 13 12 11 12 12 12 12 13 13 14 14 12 12 12 11 10 12 15 14 12 12
30 35 35 35 36 37 35 33 32 32 33 35 35 33 31 28 27 25 24 21 17 14 12 12 11 11 12 14 14 14 13 13 13 13 12 11 10 8 16 15 16 18 17 16
35 36 36 37 36 35 33 31 30 30 30 30 29 29 27 26 24 23 20 17 15 13 12 12 12 12 13 13 13 13 13 13 13 11 10 9 8 7 5 9 16 15 12 12
38 37 36 36 35 33 32 30 30 28 27 27 26 25 24 23 22 19 17 14 13 13 13 13 13 12 13 14 15 15 15 14 13 12 11 9 8 6 5 5 4 4 7 11
36 36 37 36 35 33 30 28 27 26 25 24 24 23 22 19 17 15 14 14 14 13 13 13 14 15 15 16 16 15 14 14 12 11 12 10 6 5 6 5 4 6 8 9
37 37 36 35 34 32 31 29 27 26 25 24 22 21 19 16 15 14 14 14 13 12 12 13 14 14 14 15 17 18 18 15 11 7 6 4 4 7 6 5 7 8 9 10
37 36 36 35 34 33 32 31 28 27 25 22 19 17 16 15 15 14 14 13 13 12 13 13 14 14 14 14 14 13 13 12 10 5 4 5 7 7 6 8 9 10 10 10
37 38 38 37 36 34 33 31 26 24 21 19 17 16 16 15 14 13 12 12 12 12 13 14 15 15 15 14 11 9 8 6 5 5 5 6 9 9 9 10 10 10 10 10
36 37 40 38 37 35 31 28 25 22 19 18 18 18 16 15 14 12 12 12 12 12 14 17 18 16 14 13 8 7 5 4 4 4 6 9 8 8 10 10 10 11 10 10
35 36 36 37 35 34 29 26 22 20 19 19 17 16 14 13 13 12 12 12 12 15 18 20 19 16 14 12 8 6 5 5 5 5 6 9 8 9 10 11 11 11 11 11
35 35 34 33 32 30 27 24 21 19 19 18 17 15 14 13 13 14 16 16 17 18 19 19 17 15 12 9 7 6 7 6 5 6 7 8 9 10 11 12 13 13 13 12
34 33 32 30 28 25 24 22 21 20 19 18 16 14 14 14 15 15 16 15 17 19 17 18 15 13 12 8 7 7 7 6 6 7 8 9 12 14 15 14 14 14 15 15
32 31 30 28 26 24 23 21 20 19 17 16 15 15 15 16 16 15 15 18 19 18 18 18 18 16 11 6 7 7 7 7 8 9 11 13 14 16 15 15 14 15 15 15
30 29 28 26 23 22 21 20 19 18 17 16 16 16 16 16 17 18 19 18 19 20 20 19 17 13 6 5 7 7 7 8 11 14 14 14 15 15 15 14 14 14 14 14
28 26 26 24 23 21 21 20 19 17 16 16 16 17 17 17 16 17 18 20 20 19 19 18 15 9 5 6 8 8 8 11 13 13 12 14 15 15 15 14 14 14 15 15
27 26 25 24 21 21 19 18 17 16 16 15 16 16 16 17 18 18 18 18 15 13 9 8 7 6 6 6 8 7 8 10 11 11 13 14 15 14 14 13 13 13 14 14
25 23 21 20 20 19 19 17 16 16 15 15 15 15 16 15 14 11 11 8 5 3 1 1 1 6 5 6 5 6 10 11 13 13 14 13 13 14 14 13 13 14 14 14

GFSNGP_sfc_30mbdewp_048.txt.gz
Dewpoint
29 29 27 27 28 30 29 29 26 25 27 31 36 35 35 36 38 37 32 39 40 40 41 45 44 39 34 30 26 22 22 22 21 19 18 18 17 16 17 16 15 14 13 12
27 28 28 28 29 29 30 31 34 35 35 38 36 32 34 36 38 39 38 40 40 40 41 37 32 31 29 26 23 22 22 22 19 17 17 17 17 17 16 15 15 14 13 12
24 27 27 26 29 30 35 37 37 33 35 36 36 35 38 39 40 40 39 40 40 39 31 27 26 24 24 22 24 24 22 20 19 18 18 18 17 16 15 15 14 13 12 12
26 26 24 25 34 35 34 37 38 38 37 38 37 39 41 43 42 38 39 40 38 30 25 23 22 21 22 22 23 23 22 20 19 18 17 17 17 16 15 15 13 12 12 12
25 23 24 28 32 31 32 36 38 37 40 40 40 42 39 40 35 36 33 31 28 24 22 21 22 23 25 24 25 23 24 22 18 18 17 16 15 14 13 12 12 12 12 11
29 23 21 26 33 35 38 33 38 39 40 39 38 37 37 37 30 29 26 25 25 26 26 28 27 26 26 25 24 24 22 21 21 22 18 16 14 14 15 14 13 12 10 11
28 26 26 26 36 39 32 32 38 40 40 38 37 40 39 35 35 35 35 33 32 33 34 35 35 35 33 33 32 32 32 30 25 17 15 14 15 14 14 13 13 11 10 10
29 26 23 32 34 34 36 38 39 40 40 38 38 37 34 31 34 34 35 35 35 35 35 37 38 35 32 30 28 22 17 14 15 15 17 14 13 12 12 12 11 9 10 11
30 28 29 34 34 37 37 36 37 37 41 39 39 37 34 30 29 28 27 25 26 25 22 21 18 14 13 14 14 14 14 14 15 14 14 14 13 13 12 11 9 10 11 11
33 33 33 35 36 37 37 36 35 36 41 42 39 38 34 36 34 32 30 30 29 26 23 22 21 18 16 14 14 14 13 13 13 13 13 13 13 13 11 11 11 11 11 12
33 33 35 36 36 36 35 34 33 34 37 42 38 34 32 33 31 32 31 30 22 19 15 13 13 13 13 13 14 13 14 14 15 14 13 12 11 11 11 17 15 14 16 16
33 35 36 35 36 36 34 32 32 33 36 37 36 35 33 31 26 24 22 17 15 13 12 12 12 13 15 16 15 15 14 14 14 13 12 11 9 11 16 15 14 16 17 16
36 36 37 36 35 34 32 31 31 32 33 34 33 31 29 27 23 21 19 16 14 13 12 12 14 14 15 15 14 14 14 13 13 11 10 8 8 7 5 9 13 12 15 12
38 37 36 36 34 31 30 30 30 29 29 28 27 26 25 24 20 18 16 15 14 14 14 14 14 15 16 16 15 15 16 17 13 12 11 9 8 6 6 6 5 5 9 11
37 37 37 35 33 31 30 28 26 25 25 25 25 24 22 19 16 15 15 14 14 14 14 14 14 15 17 17 16 15 14 13 12 12 10 8 6 6 7 6 6 7 9 11
37 37 35 34 32 30 30 29 26 25 24 23 22 20 18 16 15 15 14 14 14 14 16 16 15 16 17 17 18 17 15 14 10 7 5 5 6 8 7 7 9 10 10 11
37 36 36 34 33 31 30 28 27 25 23 21 18 16 16 15 15 15 14 14 14 15 15 15 15 16 16 16 16 16 13 11 8 5 5 6 8 9 8 9 10 11 11 11
38 38 38 36 33 32 31 29 27 24 20 18 17 16 16 15 13 13 13 14 14 14 15 15 15 16 14 12 10 9 8 6 6 5 6 7 11 10 9 10 11 11 11 11
36 38 39 37 36 34 32 29 24 21 19 17 17 16 15 14 13 13 13 13 13 14 16 18 19 14 12 11 9 7 5 5 5 5 6 9 9 9 10 11 11 11 11 11
36 37 41 38 36 32 30 28 21 19 19 19 16 15 14 13 13 13 13 13 14 17 19 19 16 13 12 11 9 7 6 6 5 5 7 9 8 10 10 11 12 12 13 13
35 36 36 36 33 29 25 21 20 19 18 17 16 15 14 13 15 16 15 16 20 21 21 19 15 12 11 9 8 7 7 6 6 6 8 9 10 11 13 14 15 14 14 14
34 34 33 31 28 26 23 21 20 19 18 17 16 14 14 15 16 16 17 17 20 21 18 16 13 13 11 9 8 8 7 7 7 8 9 11 13 14 15 15 15 15 15 15
33 32 30 28 25 23 22 21 20 19 18 16 15 15 15 16 16 15 15 19 19 19 18 17 17 14 10 7 8 7 7 7 8 10 13 13 14 14 14 14 15 14 14 14
31 30 29 26 23 22 21 20 19 18 17 16 16 17 17 16 17 18 20 20 20 20 19 18 16 11 7 6 7 7 8 9 12 13 14 14 13 14 14 15 14 14 14 14
28 26 25 23 22 21 21 20 18 17 16 17 17 17 18 18 18 19 20 21 22 21 19 18 14 9 6 6 8 8 8 9 11 13 12 12 13 14 14 14 13 13 14 14
27 26 25 24 22 21 20 18 17 17 16 17 17 17 17 18 19 20 20 20 19 19 16 12 8 6 6 6 8 7 7 10 11 12 13 13 13 13 13 13 13 13 13 13
26 24 22 21 21 20 19 18 17 17 17 17 17 18 18 18 19 17 16 12 7 5 4 4 4 6 5 6 5 5 9 11 12 14 14 12 12 12 13 13 13 13 13 13

GFSNGP_sfc_30mbdewp_051.txt.gz
Dewpoint
28 29 29 28 27 27 25 26 25 23 24 26 30 35 38 39 37 37 39 40 42 40 41 44 38 36 32 29 27 27 26 27 25 25 23 21 21 20 19 19 17 17 18 19
26 27 29 28 28 28 29 28 27 27 29 35 37 38 37 40 40 40 41 41 41 40 41 36 33 29 28 31 29 27 24 24 23 21 21 20 19 18 17 16 16 16 16 17
23 26 27 26 28 29 29 31 31 32 35 39 39 39 39 40 40 39 39 42 40 31 28 25 26 26 27 28 27 25 23 20 19 19 21 23 22 20 16 15 14 14 14 13
24 27 22 26 31 32 32 34 37 38 39 39 40 40 39 34 36 34 34 36 28 25 25 23 24 25 26 26 24 22 21 22 25 26 27 25 19 18 19 20 20 16 12 13
26 25 24 28 34 32 32 34 39 38 37 40 39 41 38 31 28 27 26 24 24 23 23 24 25 25 26 27 25 24 23 24 28 26 22 20 19 17 14 13 14 13 13 12
28 21 20 29 33 35 38 33 39 39 40 39 39 38 37 36 29 27 26 25 25 25 26 26 26 27 29 28 30 31 30 29 25 24 24 24 25 25 23 17 14 12 11 11
25 25 25 27 33 39 30 31 38 40 42 38 38 38 36 36 34 32 31 32 32 33 32 32 32 31 31 31 31 32 32 32 32 32 31 28 24 19 15 13 12 10 10 11
28 26 21 30 37 33 34 37 39 40 40 38 37 32 34 35 35 35 34 34 34 33 33 35 35 34 32 32 32 33 32 32 30 25 20 17 15 13 13 12 10 10 11 11
28 26 27 31 34 37 37 36 37 38 41 38 36 30 29 30 32 35 35 34 34 33 34 35 34 34 32 31 32 28 22 19 18 18 15 14 13 12 11 10 10 11 11 12
32 33 32 33 36 37 36 35 35 36 41 40 37 34 31 30 28 28 27 26 26 25 23 18 17 17 17 15 16 17 20 20 15 13 13 13 14 12 12 11 11 11 12 13
32 33 35 36 36 36 35 33 33 34 39 41 38 36 34 33 31 30 29 27 26 25 22 19 19 19 19 18 16 14 14 15 15 14 12 11 11 11 15 16 12 11 15 15
33 35 36 36 36 35 34 32 33 35 39 38 35 35 35 35 33 30 24 20 18 16 14 14 14 14 15 15 15 14 14 14 13 13 12 10 10 11 18 17 16 17 16 15
35 37 37 36 34 33 32 31 33 35 37 36 36 33 33 25 20 21 17 16 15 14 13 14 15 16 16 16 16 15 14 14 14 11 9 8 7 5 4 8 13 12 12 12
38 37 36 35 34 31 31 31 31 30 31 32 31 31 30 27 23 24 20 15 14 14 16 16 16 16 16 16 15 15 16 15 12 11 9 7 6 6 7 6 5 7 11 14
38 37 37 35 32 30 30 28 28 27 26 26 26 24 22 24 21 16 15 15 15 15 16 16 16 16 17 17 16 14 13 13 11 9 9 7 6 8 7 7 8 9 10 12
37 36 34 33 32 30 28 27 26 25 25 24 21 19 18 17 16 16 16 16 15 15 16 17 16 17 17 16 15 15 15 14 9 5 5 6 9 9 8 9 10 11 11 11
37 36 35 33 31 30 28 27 26 25 23 20 18 17 16 16 16 15 16 16 17 16 16 16 17 18 19 17 14 12 11 11 10 6 6 8 10 10 9 10 11 11 11 12
38 38 38 36 33 31 29 27 25 23 20 18 18 17 16 15 14 15 15 15 15 15 15 16 16 14 12 12 11 8 7 6 6 6 6 9 11 9 10 11 11 11 12 12
37 37 38 36 33 31 30 27 24 20 20 19 17 16 15 14 14 14 14 14 14 13 15 18 17 11 10 12 8 6 5 5 5 6 7 11 9 10 11 11 12 12 13 13
36 39 38 36 35 33 32 29 21 19 18 17 16 15 14 14 14 14 14 14 15 17 19 16 12 11 12 13 10 7 6 5 5 6 10 9 9 11 12 14 15 14 14 14
35 38 40 36 33 32 30 27 22 18 18 17 16 15 14 14 14 15 14 14 18 20 18 15 10 10 12 12 8 7 6 5 6 7 8 9 11 13 14 15 15 14 15 15
34 34 34 32 29 25 23 21 20 19 18 17 16 15 15 15 16 16 18 17 21 22 17 14 11 12 12 11 8 7 6 7 7 8 10 12 13 13 14 14 14 15 15 14
32 32 30 28 26 23 21 21 20 19 18 17 15 15 15 16 16 16 17 21 21 19 15 14 15 14 13 8 7 7 7 7 9 12 13 14 14 13 13 14 14 14 13 13
30 30 29 26 23 22 22 24 23 20 17 16 16 16 17 16 17 18 20 22 21 19 17 18 15 13 9 7 7 7 7 9 11 11 13 14 11 12 13 13 13 13 13 14
27 26 25 23 22 22 21 20 19 18 17 17 17 18 18 18 18 20 20 21 22 20 19 17 14 12 6 7 7 7 7 8 9 11 11 11 12 12 13 13 12 13 14 13
27 26 24 23 22 21 20 18 17 17 17 17 18 18 18 19 20 21 22 23 21 20 17 14 9 7 6 6 7 6 6 9 11 11 13 13 12 12 11 12 12 12 12 12
26 25 24 22 22 20 19 18 17 17 18 18 18 19 20 20 21 21 21 20 18 14 10 9 9 6 5 6 4 4 8 11 12 13 13 11 11 11 11 12 12 12 12 12

GFSNGP_sfc_30mbdewp_054.txt.gz
Dewpoint
28 28 29 27 26 27 27 26 23 22 23 24 25 27 34 40 40 41 41 41 41 42 43 43 35 31 30 31 32 33 31 30 28 28 27 25 24 22 22 21 20 19 21 24
26 27 28 28 29 28 27 27 26 26 26 27 29 39 40 40 39 39 37 39 42 41 40 33 28 31 33 33 33 34 31 29 27 26 26 26 24 24 23 24 26 27 28 29
22 26 26 25 27 28 28 29 28 26 28 32 38 39 39 34 34 34 31 39 36 27 25 26 28 30 31 31 33 31 28 28 27 24 24 24 25 25 26 26 26 26 23 20
24 26 22 25 31 30 29 29 31 33 37 39 39 39 33 31 29 28 28 26 26 24 25 27 29 32 33 32 32 30 30 29 28 29 30 30 29 28 28 27 26 26 25 25
25 25 24 28 34 32 32 32 36 37 38 38 40 40 36 35 26 25 23 26 25 25 25 26 27 27 28 29 30 31 30 31 31 31 30 29 28 26 23 20 21 21 17 14
27 22 18 28 32 36 37 31 37 39 39 41 39 37 38 35 29 26 25 26 26 27 27 28 28 28 28 29 29 30 31 32 32 32 30 29 28 29 31 31 29 23 19 14
26 23 25 26 29 39 30 29 37 39 40 39 38 38 36 35 31 31 33 32 32 31 30 30 30 31 32 32 31 32 32 32 32 32 32 32 32 31 30 26 17 11 11 11
28 25 20 29 36 33 33 37 38 40 40 38 35 35 35 35 33 33 34 34 34 33 33 35 34 33 31 30 31 32 33 33 33 33 33 32 30 27 21 13 10 11 12 13
27 25 27 31 31 36 37 36 37 38 40 37 33 33 34 34 35 34 33 33 34 34 33 32 35 33 31 31 32 32 32 31 30 26 19 15 12 12 10 11 11 11 12 11
31 33 32 33 33 36 36 35 35 36 40 37 32 31 30 31 34 34 34 34 35 33 31 30 31 32 32 32 29 24 22 19 16 14 13 13 13 12 11 10 9 10 11 11
32 33 34 36 36 36 35 33 33 34 40 39 32 31 30 30 30 28 28 25 24 21 20 19 20 21 20 19 23 24 17 15 16 15 12 11 13 14 13 13 10 10 13 14
32 35 36 36 36 36 35 33 33 36 40 38 36 33 31 31 30 28 27 26 23 19 18 18 19 18 17 17 18 16 14 14 13 12 11 12 13 14 19 17 17 17 19 17
35 36 37 36 35 34 33 32 33 37 39 36 36 35 34 32 30 25 22 20 18 16 15 15 16 16 17 16 15 15 14 15 14 9 8 6 5 4 4 7 13 15 16 16
38 37 36 36 35 32 31 32 33 35 36 36 35 34 29 31 27 22 22 17 16 16 16 17 17 16 16 16 15 14 15 15 10 9 7 6 6 7 7 5 6 8 12 15
37 37 36 35 32 31 30 29 30 30 31 31 31 30 28 26 28 24 16 16 17 17 17 17 16 16 17 17 16 15 14 12 10 8 7 8 8 8 7 8 9 10 11 12
37 35 34 34 32 30 29 28 28 26 26 25 24 25 27 28 25 18 16 17 16 16 17 16 16 17 17 15 13 12 12 12 9 6 7 8 9 8 8 10 10 11 11 11
37 37 35 34 33 31 29 28 26 25 23 21 20 20 21 21 18 16 16 17 17 17 17 16 16 17 16 15 14 14 13 12 10 6 7 10 10 9 9 11 11 11 11 12
36 37 38 37 35 31 29 27 26 24 21 19 19 21 22 21 17 17 17 17 16 16 16 17 18 17 15 13 11 9 7 6 6 5 9 11 9 9 11 11 11 12 12 13
36 36 38 38 36 32 29 27 25 21 20 20 22 23 21 19 17 17 16 15 15 15 16 16 18 13 11 11 8 6 5 5 5 6 10 10 9 11 11 13 14 14 14 14
35 39 37 35 33 31 28 25 22 23 23 24 18 16 15 16 16 15 15 14 14 15 18 18 12 11 13 14 10 6 5 4 5 7 10 8 11 12 13 15 15 14 14 14
35 36 40 37 33 32 30 28 26 24 21 18 16 15 15 15 15 15 14 14 17 20 16 15 11 11 13 13 8 6 5 5 5 7 8 10 11 13 14 14 14 14 14 14
33 33 35 34 32 31 29 28 21 19 18 17 16 15 15 15 15 16 16 15 20 20 16 12 11 13 13 12 7 5 6 6 7 8 11 12 13 13 13 13 13 14 14 13
31 31 32 31 28 26 26 23 21 19 18 17 16 15 15 15 16 15 15 20 22 20 13 11 13 16 14 7 7 6 6 6 8 11 13 13 13 12 12 12 14 13 13 12
28 28 29 26 23 22 23 24 25 24 21 17 16 16 16 16 17 18 20 23 22 19 13 15 17 17 11 7 7 6 6 8 11 11 12 14 11 11 12 12 12 12 12 13
27 26 25 24 23 22 23 25 23 20 17 17 17 17 17 17 17 21 22 22 22 18 18 19 17 14 7 6 6 6 6 8 8 10 11 11 12 12 12 11 11 12 13 12
26 27 25 24 23 22 21 21 20 18 17 17 18 18 19 19 20 21 21 22 21 20 17 16 14 8 5 6 7 5 6 8 11 11 13 13 12 11 10 10 11 11 11 11
27 26 24 23 22 21 20 19 18 18 18 18 18 19 19 21 21 21 23 22 20 18 14 10 10 7 5 7 5 4 7 10 12 13 13 11 10 10 10 11 11 11 11 11

GFSNGP_sfc_30mbdewp_057.txt.gz
Dewpoint
26 27 28 27 26 28 27 26 22 22 23 23 25 26 27 38 39 38 38 36 37 41 43 38 33 33 33 34 34 33 33 34 35 34 33 32 29 26 24 22 21 22 23 27
25 27 28 27 28 27 28 28 28 27 26 28 28 29 38 39 35 35 33 29 37 32 31 29 31 32 32 31 32 31 29 29 29 27 26 25 25 25 26 27 28 30 30 31
21 25 26 23 27 28 28 28 27 26 26 28 32 38 40 36 33 30 30 28 25 25 27 29 30 31 31 31 29 29 28 28 26 27 28 28 28 29 30 31 32 32 31 30
24 26 20 23 27 29 28 28 29 28 29 31 37 40 35 33 28 27 25 27 27 26 29 31 32 31 32 32 32 32 31 31 32 32 31 31 31 31 31 31 31 31 31 31
25 24 24 28 33 30 29 31 32 30 32 38 40 38 38 34 26 25 24 26 26 27 28 29 31 32 32 33 33 33 32 32 33 32 32 31 31 31 31 31 31 31 31 29
27 21 18 25 33 36 35 31 35 36 37 39 39 37 38 33 28 27 28 27 27 29 29 29 28 29 29 30 31 32 32 32 32 32 32 31 31 31 31 32 31 30 27 25
25 22 23 26 28 38 28 29 36 38 39 40 38 38 35 32 31 33 32 31 32 32 32 32 33 32 32 31 30 32 33 33 33 33 32 32 31 31 31 30 28 23 13 14
29 25 19 28 36 32 33 36 37 39 40 40 37 35 35 33 32 33 33 33 34 33 34 34 33 32 31 30 31 32 32 32 32 32 33 32 31 29 27 18 12 12 13 12
26 24 26 29 33 33 36 36 36 37 40 38 35 34 35 35 34 33 33 33 34 33 33 35 34 33 31 31 33 33 32 32 32 31 28 21 16 13 11 11 11 11 11 10
30 31 31 31 33 34 36 35 35 35 39 36 34 34 34 35 34 33 33 33 34 33 32 32 33 33 32 33 32 30 28 23 16 14 13 13 12 12 11 10 9 10 10 10
31 32 33 34 36 36 36 35 33 33 39 36 33 32 32 33 32 33 33 32 29 27 24 29 32 31 28 26 24 18 16 16 16 13 12 13 13 10 11 12 9 10 12 13
30 34 35 35 37 36 35 34 33 34 39 38 33 32 32 32 29 28 26 24 22 23 23 23 22 20 20 23 20 16 15 14 12 12 14 16 16 17 19 18 17 19 20 18
34 35 37 37 37 35 34 32 33 36 40 38 35 34 32 32 29 29 27 24 21 21 21 19 17 17 17 19 17 15 14 14 13 9 7 5 5 5 4 9 15 17 18 17
38 38 37 36 36 34 32 32 35 38 38 37 37 34 33 31 30 25 24 21 18 17 17 18 17 17 17 17 15 15 15 14 9 7 6 6 6 6 6 5 6 8 13 16
37 37 36 35 33 31 31 30 32 35 35 34 35 33 33 33 29 26 24 18 17 18 18 18 17 16 16 16 15 16 13 11 8 7 7 8 8 7 7 9 9 10 11 12
35 36 36 34 33 31 29 29 30 30 31 30 31 30 30 30 28 23 17 18 18 18 18 17 16 17 17 15 14 12 12 13 10 8 8 8 8 8 9 10 10 11 11 11
34 33 36 36 34 33 31 29 29 28 27 26 27 28 28 28 26 22 19 22 19 19 18 16 16 17 15 14 13 13 13 12 9 6 8 9 9 8 10 10 11 11 12 13
35 35 35 36 37 36 32 29 27 26 24 22 23 25 26 26 24 22 21 18 18 17 17 17 17 16 14 14 13 12 11 9 5 5 10 10 8 10 10 11 12 13 13 13
35 35 36 37 37 37 33 29 26 24 21 21 23 25 25 25 24 22 18 17 16 15 16 17 20 15 13 13 10 8 6 5 5 8 11 11 10 10 11 14 14 14 14 13
34 35 38 35 34 32 29 26 23 23 22 24 25 26 25 25 23 19 17 16 16 16 17 20 16 12 11 15 11 6 5 4 4 8 8 8 11 11 13 15 15 14 14 14
33 33 38 36 32 29 25 24 25 26 26 26 25 25 23 20 17 16 15 14 16 19 18 18 12 12 13 14 10 5 4 4 5 6 8 8 11 12 13 14 14 13 14 14
32 32 33 33 33 31 30 29 28 26 26 24 20 17 16 16 16 16 16 15 19 21 18 13 13 14 14 15 6 5 4 5 5 7 9 11 12 13 13 12 12 13 14 13
30 29 31 33 30 30 28 26 21 20 20 18 17 16 16 16 16 15 15 19 20 20 14 12 14 16 16 8 6 5 5 5 6 8 11 12 13 11 11 12 12 13 12 11
28 27 26 26 28 27 27 28 26 25 19 18 17 16 16 16 17 17 19 21 22 20 12 12 17 18 17 6 6 5 5 6 8 11 12 14 12 11 11 11 11 11 11 12
27 27 26 24 23 23 24 26 26 25 24 23 19 17 17 17 17 20 21 23 23 18 14 17 19 20 11 6 6 5 5 7 9 9 11 11 11 12 12 11 10 10 11 12
27 26 26 25 23 23 23 24 23 21 19 19 19 19 18 19 20 22 22 22 22 18 16 20 20 15 6 6 6 5 6 7 11 11 11 12 12 12 11 10 10 10 11 11
27 28 28 26 25 23 21 21 20 20 20 18 18 19 19 20 21 21 22 22 21 19 17 17 17 11 5 6 7 4 5 8 11 11 12 12 11 10 10 10 10 10 10 11

GFSNGP_sfc_30mbdewp_060.txt.gz
Dewpoint
25 27 28 26 27 27 25 25 22 21 21 22 24 26 27 29 38 36 34 30 29 31 32 32 33 32 32 33 32 33 34 35 35 35 35 34 31 30 30 29 27 26 26 28
25 27 28 27 27 27 28 27 26 26 26 28 28 29 30 39 35 33 31 29 27 27 29 31 31 31 30 29 29 28 29 28 28 29 30 30 30 31 33 30 29 31 31 33
21 26 27 23 26 27 28 28 28 26 27 27 29 32 39 37 33 30 27 28 27 27 30 30 31 31 31 30 30 30 28 28 29 30 31 32 32 32 31 32 32 33 34 34
24 25 19 22 27 28 28 27 29 28 28 28 30 39 36 33 29 27 25 27 27 27 31 32 32 32 33 34 33 32 31 31 31 32 32 32 32 32 32 32 32 32 33 33
24 23 23 29 31 29 29 31 30 29 30 30 38 39 37 31 27 25 25 26 27 29 29 30 31 33 33 33 33 33 33 33 33 32 32 32 32 32 32 32 32 31 32 32
26 20 17 22 32 34 34 33 34 34 33 36 39 36 38 33 27 28 27 28 29 30 30 29 30 31 32 32 32 31 32 33 33 33 32 31 31 31 31 31 30 30 29 31
25 24 21 24 30 34 30 30 34 37 37 39 38 38 36 31 32 32 31 31 33 33 33 33 33 32 31 31 31 32 33 33 33 33 32 32 32 32 31 30 28 24 21 18
28 25 20 26 35 33 34 35 36 37 38 40 37 36 34 32 33 33 33 33 34 33 34 33 33 32 31 30 32 33 33 32 32 32 32 32 31 30 27 19 14 13 13 12
26 24 26 29 33 34 34 34 35 36 37 39 36 35 34 33 33 32 32 32 34 34 34 34 33 33 31 32 33 33 33 32 32 32 27 23 18 13 12 12 12 12 10 9
30 30 30 31 32 33 35 36 35 35 36 38 36 35 35 34 33 32 31 32 33 33 33 32 33 33 33 33 33 32 30 23 16 13 12 12 13 12 10 10 9 9 8 10
30 32 33 35 36 37 36 35 34 33 36 38 35 34 35 35 33 33 33 34 32 31 32 32 33 32 31 29 24 19 15 16 15 13 12 11 10 8 10 9 10 10 12 13
29 32 34 34 36 37 36 35 34 33 36 38 34 33 34 34 34 32 31 28 25 26 28 30 27 24 25 22 18 16 14 12 13 14 16 17 18 19 20 19 20 20 21 18
33 35 36 37 38 37 35 34 33 33 37 38 34 34 34 31 30 29 27 25 26 27 25 24 22 22 22 20 17 15 13 13 14 10 9 8 9 7 5 13 18 18 19 18
38 37 37 36 36 35 33 32 35 37 38 39 35 36 35 31 33 29 27 25 24 24 23 21 19 18 20 18 15 15 15 14 8 6 5 5 6 6 5 5 5 8 13 16
34 35 36 36 34 33 31 31 33 35 36 36 36 35 34 32 31 30 24 21 20 20 20 19 17 17 18 16 15 16 13 10 7 6 7 8 7 7 8 9 9 10 11 12
34 35 35 35 35 33 31 30 31 32 34 34 34 34 34 33 31 29 25 20 19 19 19 18 17 17 17 16 15 13 11 11 10 10 9 8 7 7 8 9 10 10 11 11
33 33 35 35 35 35 33 31 30 30 30 32 32 31 31 30 29 27 24 23 21 19 19 18 17 17 16 15 12 13 14 13 10 7 7 8 8 8 9 10 10 11 12 13
34 35 35 35 35 35 36 34 31 29 28 28 29 29 29 29 29 28 26 22 21 19 18 17 17 16 14 14 13 13 11 10 5 6 10 9 8 9 10 11 12 13 13 13
34 34 35 36 37 36 36 35 31 28 25 25 27 27 28 29 27 26 26 25 27 23 17 17 20 15 13 14 13 10 8 5 5 8 9 13 11 10 11 13 14 14 13 13
34 33 34 37 32 33 34 30 26 24 22 24 25 26 27 26 27 27 28 27 26 22 18 20 17 13 13 18 13 7 5 4 4 7 7 7 9 10 12 14 15 13 13 13
32 33 33 34 32 27 26 25 24 24 25 26 26 26 26 26 27 27 26 26 23 20 19 21 13 12 14 16 9 5 4 4 4 7 10 9 9 12 12 13 13 13 13 14
31 31 32 34 33 31 28 27 27 27 27 26 26 26 26 25 26 24 20 19 18 22 21 15 14 14 15 17 6 4 4 4 4 6 7 9 10 11 12 12 12 12 13 13
29 29 29 30 32 30 29 27 27 28 27 26 25 24 23 20 18 17 16 18 20 22 16 13 15 18 18 11 5 4 4 4 4 6 8 10 11 12 11 11 11 12 12 11
28 27 27 25 26 30 28 29 26 21 21 20 19 18 17 17 17 17 18 21 22 21 14 14 19 19 19 8 5 4 4 5 5 7 11 13 12 12 10 11 11 11 10 11
27 27 27 26 24 23 24 26 28 28 26 22 18 17 17 18 17 18 20 22 23 20 14 18 20 20 15 6 5 4 5 5 7 9 10 11 11 10 11 11 11 10 10 11
26 27 27 26 24 23 23 23 24 23 24 25 25 24 22 21 19 20 21 23 23 18 13 18 20 20 12 6 5 5 5 6 11 12 12 12 10 11 11 11 10 10 10 10
24 24 24 24 26 26 24 22 22 21 21 20 21 22 22 20 21 22 23 23 22 18 15 19 22 17 10 6 6 5 5 6 10 9 10 11 12 11 10 10 10 10 10 10

GFSNGP_sfc_30mbdewp_063.txt.gz
Dewpoint
24 27 27 26 27 25 23 23 21 21 21 21 23 25 28 29 37 36 32 31 29 29 31 32 32 30 30 29 29 31 30 31 32 33 32 31 30 31 31 29 29 29 30 31
25 27 28 27 27 28 26 26 24 24 25 27 28 29 30 37 36 34 31 30 28 28 30 31 31 30 30 30 30 29 30 30 31 32 32 33 33 32 33 34 34 34 35 35
21 25 27 24 27 27 28 28 28 26 27 28 27 29 38 37 34 31 27 29 27 29 31 31 31 32 32 32 32 31 31 30 31 32 33 33 33 34 34 34 34 34 35 35
23 24 19 21 27 28 27 28 29 28 28 28 29 36 36 33 31 28 26 27 27 29 31 32 32 33 33 33 33 33 33 32 32 32 33 33 33 32 32 32 32 32 32 32
23 23 22 30 30 29 28 32 29 28 29 30 32 39 37 30 27 25 26 27 28 29 29 30 32 33 33 33 33 33 33 33 33 33 33 32 32 32 32 32 31 31 32 32
26 20 16 22 33 33 33 33 36 32 34 35 39 36 38 31 27 27 28 29 30 30 30 31 32 33 33 33 33 32 32 32 33 33 32 32 32 31 31 31 30 31 31 32
25 23 22 23 29 31 30 32 34 36 37 37 38 38 35 30 31 31 31 32 33 33 33 33 32 33 32 32 31 33 33 33 33 33 32 32 32 31 30 29 28 26 24 22
27 23 19 26 32 33 35 34 34 35 37 39 38 35 32 32 32 33 33 33 34 33 33 33 33 32 31 30 32 33 33 32 32 32 32 32 30 26 22 19 16 14 13 12
25 24 26 28 31 33 32 31 34 36 36 39 37 35 33 33 33 32 31 33 34 33 33 33 33 33 31 32 33 33 33 32 31 27 23 18 13 12 12 13 12 11 9 10
29 30 30 30 32 32 34 36 36 35 35 38 36 36 34 33 32 32 32 31 33 33 32 32 33 33 33 34 34 32 27 18 14 12 12 12 12 11 11 10 9 8 9 12
30 31 33 35 35 37 38 36 35 34 35 37 36 35 35 33 32 32 32 33 33 33 32 31 33 33 34 32 26 19 15 15 14 13 9 9 10 9 10 9 10 10 13 14
29 32 32 33 36 37 37 37 36 33 35 37 36 35 35 34 33 33 33 32 30 32 32 32 32 31 29 22 18 15 13 12 13 14 17 19 20 20 22 22 22 21 21 18
33 36 36 35 37 36 35 35 35 33 34 38 35 34 36 35 34 33 31 28 29 30 31 29 28 27 23 20 16 14 12 14 15 13 14 16 14 12 14 16 19 19 19 18
36 35 36 37 36 36 34 33 34 36 37 38 35 34 34 34 34 32 30 28 29 28 27 25 25 25 21 18 15 14 14 15 9 6 5 6 5 4 4 4 5 7 13 16
34 34 34 35 35 34 32 32 32 33 36 37 35 35 35 33 33 30 29 26 27 27 26 24 22 19 20 17 15 15 14 10 7 6 7 7 6 7 8 8 8 9 10 12
32 33 35 35 36 36 33 32 31 32 33 35 36 35 35 33 33 32 28 25 25 26 25 22 19 18 19 16 15 14 11 11 8 11 11 7 7 7 8 9 9 10 10 11
32 32 34 34 35 35 35 35 32 31 31 33 34 34 34 33 32 30 26 24 24 24 23 20 19 18 17 16 14 12 13 15 12 7 7 6 7 7 9 9 10 11 11 12
32 33 34 35 34 34 34 35 36 33 31 31 32 33 32 31 31 30 28 27 25 21 21 20 18 17 16 15 14 14 13 12 7 6 9 8 7 9 9 10 11 12 12 13
34 34 33 34 35 36 36 36 36 34 30 29 30 30 31 31 30 29 29 29 27 24 20 19 20 17 15 15 14 12 10 5 5 8 9 12 12 9 10 12 13 14 13 12
33 34 33 34 34 29 30 34 33 29 26 27 28 29 29 29 29 29 29 28 27 29 25 21 22 15 14 18 16 10 6 4 5 7 9 8 7 8 10 13 14 13 12 12
31 31 32 33 34 31 26 25 24 24 24 26 26 27 27 27 28 29 28 27 29 30 28 28 17 14 16 19 14 6 4 3 3 5 7 9 7 12 11 12 12 12 12 12
30 30 30 31 32 32 31 28 27 27 26 26 27 27 27 27 27 28 29 29 28 30 28 23 15 15 17 18 6 4 4 3 3 5 6 7 7 9 10 12 12 12 12 12
29 29 28 28 29 31 31 30 29 29 28 28 27 27 27 27 28 26 26 27 28 29 22 16 16 19 20 10 5 4 3 3 3 4 5 7 9 10 11 12 11 12 12 12
27 28 28 27 25 25 27 28 28 24 24 26 26 26 25 24 24 20 19 22 23 24 17 16 20 21 22 7 4 4 3 3 4 5 6 11 10 11 12 11 11 11 11 11
26 27 27 27 25 24 23 25 27 29 28 24 22 19 19 19 19 18 20 22 24 23 17 20 22 22 16 7 4 4 3 4 5 6 8 10 11 12 11 11 11 12 11 11
24 25 25 24 26 26 25 23 23 23 24 25 26 25 23 24 21 20 20 22 24 21 16 20 22 22 14 8 5 4 4 6 10 13 10 9 11 11 11 11 11 11 10 10
18 17 18 18 22 25 27 28 24 23 22 22 22 23 25 25 26 24 22 23 24 20 15 20 22 19 14 9 6 5 5 6 10 10 13 13 12 11 12 12 10 10 10 10

GFSNGP_sfc_30mbdewp_069.txt.gz
Dewpoint
25 26 27 28 28 27 26 25 22 19 18 19 22 23 26 32 36 38 37 35 34 35 35 34 33 33 33 33 34 34 35 36 36 35 35 35 34 34 33 33 32 32 32 33
26 26 27 27 27 28 27 25 24 23 22 23 23 28 30 33 38 38 36 34 32 33 33 33 33 33 33 33 33 33 34 34 35 35 35 35 35 35 35 36 36 36 37 37
24 26 26 25 26 27 27 27 25 24 24 27 27 28 30 35 38 37 33 33 32 33 33 33 34 33 33 33 33 33 32 33 34 34 34 34 34 34 34 34 34 33 33 33
23 24 20 24 27 28 27 27 27 27 27 27 29 30 33 36 37 34 32 31 31 32 33 33 34 35 34 34 33 33 33 33 34 34 34 34 34 33 33 33 32 32 31 32
23 21 21 29 29 27 28 31 29 28 28 30 33 37 37 36 35 32 30 30 31 32 33 34 34 34 34 34 34 34 33 33 34 34 34 33 32 33 33 32 32 32 32 31
26 22 17 29 34 33 33 33 34 31 32 34 38 35 39 34 30 28 30 31 31 31 32 32 33 34 34 34 34 34 34 34 34 34 32 32 32 32 33 33 32 32 32 31
23 22 22 26 28 30 30 33 35 33 34 35 36 37 37 31 29 30 31 31 31 31 31 32 33 34 34 34 33 34 35 34 34 34 32 32 32 33 33 32 30 28 25 27
23 21 20 33 33 28 36 35 35 35 36 37 39 36 33 32 32 31 31 32 32 32 32 33 33 34 33 32 33 34 34 34 33 34 33 33 32 29 25 23 19 16 16 16
23 24 29 28 32 31 32 34 36 37 37 37 38 35 34 33 33 33 33 32 33 32 32 33 32 34 32 33 34 34 34 34 33 31 24 16 15 14 12 11 9 7 8 10
28 27 27 28 31 36 34 36 37 37 36 36 37 38 35 34 34 33 32 32 32 31 32 32 32 34 35 35 35 33 32 29 20 12 12 13 13 11 9 7 5 6 8 10
28 29 31 31 33 37 36 38 37 37 36 35 37 38 35 35 34 33 33 32 32 32 32 32 33 34 35 34 32 29 21 14 13 13 10 8 8 10 7 15 16 9 13 12
25 29 29 33 36 36 37 37 37 38 37 36 38 38 36 35 34 33 32 32 33 33 32 33 35 34 34 33 30 20 13 14 12 11 12 16 18 21 24 23 23 22 21 19
27 35 35 36 37 37 37 37 36 35 36 35 38 38 37 36 34 34 33 33 34 33 33 34 34 34 33 30 24 14 13 14 14 14 15 15 14 17 20 21 21 21 19 20
35 36 34 36 35 36 35 36 35 35 35 35 37 38 38 36 35 34 34 34 34 34 34 34 34 33 31 28 18 15 15 15 14 14 14 12 8 6 5 5 3 7 14 17
35 35 35 35 35 35 36 35 34 34 34 36 38 37 37 37 35 35 34 33 34 34 34 33 33 33 30 23 17 16 16 16 13 12 9 7 5 5 4 4 4 4 7 12
35 34 34 34 35 35 35 35 35 34 34 34 36 37 37 37 37 36 33 32 33 33 33 33 33 31 26 21 17 16 16 13 12 9 9 7 5 5 4 4 4 5 6 7
32 33 34 34 33 33 34 35 35 35 35 34 34 37 37 36 36 36 33 31 32 33 33 32 33 29 24 20 17 17 15 15 12 9 9 6 5 5 4 5 5 7 7 9
32 32 33 33 33 34 34 35 35 36 36 36 35 35 36 36 35 34 33 31 31 32 32 32 31 26 23 20 18 16 15 15 14 9 7 6 5 5 5 6 6 7 9 10
33 34 34 34 34 34 34 35 34 33 34 36 37 34 34 36 35 35 33 30 30 31 31 31 30 24 23 21 18 15 15 15 12 7 7 7 8 6 6 7 8 9 10 10
32 33 33 33 33 34 34 31 27 26 29 35 37 35 33 34 35 34 32 31 31 32 31 31 30 25 21 21 19 16 15 13 8 6 7 8 8 7 6 8 8 10 11 10
31 31 31 31 31 33 33 33 31 27 26 28 31 32 32 33 33 32 31 31 31 32 30 31 31 29 27 23 22 15 13 10 6 5 7 10 8 6 6 7 8 9 10 10
31 30 31 31 31 31 31 31 31 31 28 26 27 29 30 30 31 31 31 31 31 33 32 31 31 30 29 30 22 14 11 8 6 5 7 8 7 6 9 11 13 14 14 14
29 29 30 30 30 30 31 30 30 29 29 30 30 29 28 28 29 29 29 30 31 32 31 31 30 31 31 30 21 12 10 8 5 4 6 10 12 13 14 15 16 16 16 16
24 26 26 27 28 28 28 28 29 30 29 29 29 30 30 29 29 30 30 31 31 32 31 31 31 31 31 28 23 12 9 7 6 8 7 10 15 16 16 15 15 16 16 16
22 24 21 20 24 24 27 28 28 27 25 29 29 29 28 29 29 28 29 29 31 31 30 31 31 31 30 25 20 11 9 9 11 13 10 13 15 15 15 15 16 16 16 16
16 16 15 16 20 21 25 27 27 27 26 23 24 26 28 27 25 25 23 28 29 31 28 30 31 31 30 26 23 10 8 9 11 13 13 14 16 17 16 16 16 15 16 16
15 15 15 13 15 18 21 22 24 25 26 26 25 23 23 26 27 28 26 22 24 29 26 27 30 31 29 24 15 9 8 10 12 14 15 16 16 16 15 15 16 16 16 16

GFSNGP_sfc_30mbdewp_072.txt.gz
Dewpoint
25 26 27 30 29 28 25 25 21 22 19 21 24 25 24 32 34 37 37 36 36 36 35 35 33 33 34 34 34 35 36 36 35 36 35 35 35 35 35 35 35 35 35 35
24 26 26 26 27 28 28 27 25 23 22 21 23 24 30 32 37 39 37 35 34 35 34 33 34 33 34 33 33 34 34 35 35 35 35 35 35 34 34 36 36 35 36 37
25 26 26 24 26 27 28 28 26 23 25 27 27 28 30 34 38 38 36 34 33 33 33 34 34 34 33 33 33 33 33 34 34 34 34 34 34 34 34 32 33 33 33 34
25 24 20 25 27 28 28 28 27 27 26 27 28 31 32 35 37 37 34 33 32 33 33 34 34 34 34 34 33 33 34 34 34 34 34 34 33 33 32 32 31 31 31 32
23 21 22 28 28 27 27 28 28 27 28 28 34 36 35 36 36 34 32 32 32 33 33 34 34 34 34 34 34 33 33 35 34 35 34 33 32 32 32 31 30 31 31 30
25 22 19 31 31 31 30 32 30 29 29 34 37 35 38 32 30 30 30 31 32 32 33 33 34 34 34 34 34 34 34 34 33 33 33 32 32 31 32 33 31 31 31 30
24 23 23 33 33 31 30 33 34 34 34 35 36 38 36 31 30 30 32 31 31 31 32 33 34 34 34 34 33 35 35 33 33 33 33 33 31 33 32 30 29 28 28 27
23 22 20 31 30 29 36 36 36 37 37 37 37 35 32 31 31 32 31 32 32 32 33 34 34 35 33 32 34 35 34 34 33 33 33 32 31 29 27 25 21 18 18 19
23 23 29 33 31 31 32 35 36 37 37 37 38 36 34 33 33 32 32 32 33 33 33 33 33 35 33 33 34 34 34 34 33 33 32 32 23 19 16 13 11 9 10 13
27 28 29 30 34 35 35 36 37 37 36 37 38 37 35 34 33 33 33 32 33 32 32 31 33 34 34 35 35 34 33 33 30 18 13 13 13 12 10 8 6 8 9 12
27 28 30 31 32 37 37 38 38 38 37 36 37 38 36 35 34 34 33 32 32 32 32 31 33 34 35 35 34 33 30 19 13 14 13 13 22 13 14 21 18 12 14 14
27 30 30 35 36 37 37 37 37 37 37 36 37 38 36 35 35 34 33 33 32 32 32 31 33 34 35 34 32 25 15 14 13 11 9 17 21 23 25 24 23 22 21 19
30 34 35 36 37 37 36 36 37 36 35 35 38 38 37 36 35 34 33 33 32 33 32 32 35 34 34 34 29 16 14 14 13 13 16 18 20 21 20 22 22 21 19 20
35 35 34 35 36 35 36 36 35 35 35 35 36 38 38 36 35 34 33 33 34 33 33 33 34 33 33 32 25 16 15 17 15 15 16 14 13 15 17 18 14 13 15 17
35 35 35 35 35 35 36 36 36 35 35 35 37 38 38 37 35 35 34 34 35 34 34 34 34 34 33 29 20 16 16 17 15 15 14 10 7 5 4 4 4 4 8 13
35 34 34 34 34 36 36 35 35 35 35 35 34 37 38 38 37 36 35 34 34 33 34 34 34 34 31 24 18 17 17 17 15 12 10 8 6 5 5 5 5 5 6 7
32 32 34 34 33 33 33 34 35 35 35 36 36 35 37 37 37 36 34 33 34 34 35 34 34 32 28 21 18 17 17 17 16 10 10 7 6 5 5 5 5 6 7 8
32 32 33 33 34 34 34 34 34 35 35 37 37 36 35 36 36 36 35 33 32 33 34 34 34 29 26 21 18 17 16 15 15 10 10 7 6 6 5 5 6 7 8 9
33 33 33 33 33 34 34 35 34 31 29 29 30 35 36 35 36 36 35 33 31 32 32 33 33 29 26 22 19 17 16 15 15 11 9 9 9 6 6 6 7 8 9 10
32 32 32 33 33 33 33 34 34 31 28 27 30 35 37 35 35 35 34 33 32 32 33 32 32 29 28 26 23 17 16 15 14 10 8 8 8 8 6 8 8 8 10 10
32 31 32 32 32 32 32 32 32 31 31 27 28 30 32 33 34 34 33 32 32 33 32 32 32 29 28 27 26 18 16 15 11 8 8 10 8 10 8 7 7 9 10 10
31 31 31 31 31 31 31 31 31 30 31 31 28 28 29 31 31 32 32 32 32 33 33 32 32 31 27 30 30 24 18 13 10 8 7 8 10 8 8 7 8 10 11 11
28 28 29 28 29 30 31 30 30 30 29 29 29 30 30 29 29 29 29 30 31 33 32 32 32 32 32 31 30 27 25 17 9 7 8 9 10 10 9 9 11 13 15 15
23 25 24 23 26 28 26 28 29 30 29 30 29 29 29 29 29 31 31 32 32 32 32 31 32 32 33 30 28 26 25 18 9 9 8 11 12 13 13 13 15 16 16 17
20 21 19 17 19 19 23 26 28 28 27 26 28 30 29 29 28 29 28 29 30 31 31 32 32 32 32 28 27 26 24 16 14 13 9 11 14 14 14 15 15 14 15 15
16 15 16 16 18 18 21 23 24 25 26 26 26 26 25 27 28 28 27 27 29 30 30 30 32 32 30 28 27 26 25 23 22 16 13 13 14 14 14 15 15 15 16 16
14 14 15 13 14 15 18 22 21 21 19 22 24 27 25 23 26 28 28 27 27 28 29 28 30 32 30 27 26 25 24 23 22 16 17 16 16 16 16 16 16 16 15 15

GFSNGP_sfc_30mbdewp_075.txt.gz
Dewpoint
26 27 29 28 28 27 24 24 20 22 21 24 25 24 24 27 32 38 37 37 37 36 35 34 34 34 34 34 36 36 36 36 35 35 35 35 35 36 36 36 36 36 36 36
24 26 26 26 28 29 26 25 25 25 23 22 25 25 25 29 34 37 37 36 36 36 35 33 33 33 33 33 34 35 35 35 35 35 35 35 34 35 35 35 35 35 36 35
24 26 26 23 26 28 29 28 26 22 23 26 24 25 30 34 37 38 37 35 35 34 33 34 33 34 33 33 33 34 34 34 34 35 34 34 34 33 33 33 33 33 34 35
24 24 17 23 28 29 28 29 28 27 26 26 29 31 33 36 38 39 37 35 33 34 34 34 34 33 33 34 34 34 34 34 35 35 34 34 33 32 32 32 31 32 32 34
22 22 22 27 28 27 27 27 29 28 28 29 34 35 35 36 36 37 34 33 33 34 34 35 35 34 34 33 33 34 34 34 35 35 33 33 32 32 31 31 30 30 30 29
23 21 19 30 29 30 31 30 31 29 28 30 36 31 36 33 32 32 32 32 33 34 34 34 34 34 34 34 34 34 34 34 34 34 33 32 32 32 32 31 31 31 29 28
23 23 23 33 33 32 29 30 33 32 33 36 35 36 37 31 30 31 32 32 32 33 33 34 35 35 34 34 34 35 34 33 34 34 33 33 32 32 30 30 28 28 27 27
21 21 19 31 30 28 34 36 36 37 37 37 37 34 32 31 31 32 31 32 32 32 33 34 35 35 34 33 34 34 34 33 33 33 33 32 31 30 29 25 22 20 21 22
23 22 28 33 32 33 37 36 36 36 37 38 37 35 33 32 32 32 32 32 33 33 33 34 35 35 33 33 34 34 33 33 33 33 32 31 28 25 22 18 14 13 13 14
26 28 28 32 34 35 34 36 37 37 36 37 38 37 34 34 33 32 32 32 33 33 32 32 33 34 34 35 35 34 33 33 32 32 31 29 20 17 12 10 8 9 11 13
28 28 29 30 36 37 37 38 38 38 37 36 37 38 36 35 34 33 33 33 33 32 31 31 32 34 35 35 35 33 33 32 29 22 16 16 16 10 13 19 11 9 12 14
28 30 32 35 36 37 36 36 36 36 36 37 36 38 37 35 35 34 33 32 32 32 32 32 33 34 35 35 34 33 30 21 14 14 13 20 21 23 24 24 24 23 22 17
30 35 35 36 37 37 36 36 36 36 36 35 36 38 37 36 35 34 33 32 32 32 32 32 33 33 35 35 34 27 23 15 16 12 12 17 20 21 20 23 22 21 20 21
35 35 34 36 36 35 36 36 35 35 35 36 36 38 38 36 36 35 33 33 33 33 32 32 34 34 35 34 32 22 17 17 14 12 14 18 20 20 19 17 13 12 18 18
35 35 35 35 35 35 36 36 35 35 35 34 36 37 38 37 36 35 34 33 33 33 33 33 34 34 34 33 29 19 16 18 15 15 16 16 14 15 14 14 7 4 9 15
35 34 34 34 35 35 35 34 34 34 35 35 35 35 37 38 37 36 35 34 34 33 33 33 33 34 34 32 28 20 16 18 17 15 15 14 8 6 5 4 4 4 5 6
33 33 33 33 33 33 33 34 34 35 35 35 36 36 35 36 38 37 35 34 35 34 34 34 34 35 34 31 26 19 17 20 20 15 13 11 7 6 5 5 4 5 5 8
32 33 33 34 34 34 34 34 34 35 34 34 34 35 35 35 35 37 36 35 34 34 35 35 35 34 32 28 24 20 18 18 20 14 11 10 7 6 6 5 5 5 6 8
33 33 33 33 33 33 33 34 35 33 31 29 28 28 30 33 35 36 37 35 34 33 34 35 35 33 31 26 23 20 18 17 17 14 11 11 12 7 6 6 6 6 7 8
32 32 32 32 33 33 32 33 33 33 33 30 28 27 30 35 36 35 35 35 34 33 34 34 34 32 30 26 28 21 18 16 16 14 11 10 10 9 6 8 7 7 7 9
31 31 32 31 31 32 32 31 31 30 31 32 31 27 28 31 34 34 34 34 33 33 33 33 34 33 30 29 30 23 19 17 15 13 11 12 9 10 8 7 7 8 8 9
31 30 29 30 30 30 31 31 30 30 30 29 30 30 30 28 30 32 32 32 32 33 33 33 34 33 31 31 31 25 22 24 20 14 11 11 10 10 10 10 9 9 8 9
28 27 27 24 24 28 29 29 29 29 28 29 29 28 28 29 30 29 29 30 31 32 33 32 33 33 33 33 32 29 29 28 27 24 17 12 13 14 14 13 12 11 10 11
22 23 22 19 21 21 20 25 27 28 28 29 29 29 28 27 28 30 30 31 32 32 32 32 33 34 34 32 31 29 28 28 27 26 24 16 16 18 15 13 12 12 13 14
18 18 17 15 15 17 20 22 23 25 26 26 26 27 28 29 28 28 28 28 29 30 31 32 32 33 33 31 29 28 28 27 26 25 24 18 24 19 16 14 14 14 15 16
14 13 15 15 15 16 18 21 22 22 20 19 23 26 26 25 26 27 28 28 28 29 30 30 31 32 31 29 28 27 27 26 26 25 24 24 24 20 16 15 16 17 17 16
14 15 13 11 14 14 15 21 21 21 19 18 21 23 24 23 22 23 27 28 28 28 29 29 29 31 31 29 28 27 26 26 26 26 25 24 23 18 17 16 15 15 15 15

GFSNGP_sfc_30mbdewp_078.txt.gz
Dewpoint
26 29 28 27 28 29 28 24 21 21 20 23 26 28 30 33 38 38 38 40 39 37 35 34 34 33 34 35 37 36 36 35 35 35 35 35 36 36 36 36 36 36 35 35
24 26 26 25 28 28 26 24 25 25 23 25 27 26 27 29 33 37 38 38 38 37 35 34 33 33 34 35 36 36 36 35 35 35 35 35 35 35 35 35 35 35 34 34
20 26 26 21 25 28 28 28 26 22 23 25 26 25 25 26 30 35 38 37 36 36 35 34 33 34 33 33 35 35 35 35 35 35 34 34 34 34 33 33 34 34 35 36
24 24 16 18 28 28 28 29 28 26 26 26 26 27 29 33 32 36 38 36 36 35 34 34 34 33 33 34 34 34 34 34 35 35 34 33 33 32 32 32 33 33 34 35
22 21 20 25 27 28 28 27 29 28 28 30 32 33 33 36 37 39 39 36 35 34 34 34 33 33 34 34 34 34 34 35 35 35 33 33 32 31 32 31 31 31 31 30
24 20 16 27 30 30 31 28 32 29 28 32 35 29 29 34 34 35 34 34 34 34 34 34 34 34 33 33 34 34 34 35 35 34 33 32 32 32 32 31 29 28 27 27
23 22 23 27 33 33 28 26 32 30 29 33 33 33 37 32 31 32 33 33 34 34 34 34 35 35 34 34 34 35 34 35 34 34 33 32 32 32 30 29 29 27 26 26
22 20 17 32 31 30 33 36 36 36 36 36 37 35 34 32 31 32 32 33 33 33 34 35 35 35 34 34 35 34 34 34 33 33 33 32 31 30 29 27 25 24 24 24
23 21 25 31 31 33 37 36 37 37 37 38 36 35 33 32 32 32 32 32 32 33 34 35 35 35 34 34 34 34 33 33 33 33 31 31 29 27 25 21 19 19 19 20
26 26 28 32 33 34 34 36 37 37 36 38 37 37 35 34 32 32 32 32 33 33 33 33 35 35 35 35 34 34 32 32 33 32 31 30 27 24 19 16 12 11 12 13
27 28 29 30 34 36 37 37 37 38 37 36 37 38 36 35 34 33 33 33 33 33 32 32 33 34 35 35 35 34 33 33 32 31 30 27 20 16 12 11 10 9 11 13
27 29 29 33 36 37 37 36 36 36 36 37 37 36 38 36 35 34 33 33 33 33 32 32 32 34 35 35 35 34 33 32 30 27 20 18 15 18 23 25 23 20 19 16
29 33 34 36 37 37 37 36 36 35 36 35 35 37 38 37 36 35 34 33 33 32 32 32 32 34 35 35 34 33 31 27 23 16 16 19 19 19 20 23 23 23 22 22
33 36 35 37 36 36 36 36 35 35 35 35 36 37 38 37 36 35 34 33 33 32 32 32 33 32 34 35 34 31 29 25 16 14 13 17 19 20 20 19 15 14 20 19
35 35 34 35 35 35 36 36 35 35 35 35 35 36 38 37 36 36 35 34 33 33 32 32 33 33 34 35 34 29 26 23 16 15 13 16 18 19 19 18 16 11 10 16
35 34 34 34 35 35 35 34 34 34 34 35 35 35 35 36 37 37 36 34 33 33 33 33 33 34 35 35 33 28 22 21 19 15 15 18 17 17 17 15 12 6 4 6
33 33 33 33 33 33 33 34 34 34 34 34 35 35 36 36 35 37 36 35 34 34 34 33 33 34 34 34 32 27 21 20 22 16 15 16 14 11 9 7 5 4 4 5
33 33 34 34 34 33 34 34 34 35 34 33 31 31 31 31 33 35 36 36 35 35 35 34 34 34 34 34 32 27 23 20 22 19 15 14 13 10 8 6 5 5 5 6
33 32 32 32 32 33 33 33 34 34 34 32 30 28 28 28 30 32 34 36 35 34 34 35 35 35 35 34 32 28 25 21 20 20 15 14 15 10 8 6 6 6 6 6
32 32 32 32 33 33 32 32 32 32 32 32 32 30 28 29 31 33 35 35 35 35 35 35 36 35 34 33 32 28 25 22 19 18 15 13 13 12 9 8 7 6 6 6
31 31 32 32 31 32 31 30 29 29 30 30 30 30 30 30 29 32 34 34 34 34 34 34 35 35 34 32 32 29 25 23 19 17 15 15 12 12 10 8 8 8 6 7
31 29 29 28 28 29 30 30 29 29 29 29 29 29 29 29 30 29 30 32 32 33 33 32 32 33 33 32 31 31 27 24 24 25 19 16 13 12 12 11 11 10 10 10
28 27 26 23 19 26 26 26 27 29 28 28 28 28 28 28 29 28 28 31 32 32 32 32 32 33 34 33 32 32 28 26 28 28 27 26 24 18 17 17 16 16 14 13
22 21 22 17 20 17 16 21 23 26 26 26 27 28 28 26 27 30 30 30 30 31 31 32 33 34 35 34 32 32 30 29 29 28 28 28 26 25 25 22 21 19 17 16
17 17 16 15 13 15 17 20 21 22 21 19 22 25 26 26 27 27 28 29 29 30 29 31 32 33 33 32 31 31 30 29 29 28 27 27 26 25 25 26 25 20 17 15
14 12 13 15 15 15 15 19 21 21 21 17 18 22 23 24 23 24 25 28 29 29 29 29 30 31 31 31 31 30 29 28 29 29 27 26 26 26 26 25 25 20 18 17
15 16 14 11 12 13 13 17 19 20 19 16 18 20 20 22 22 23 23 23 25 27 28 29 29 29 30 30 29 28 28 27 28 27 26 25 26 26 26 25 23 18 17 17

GFSNGP_sfc_30mbdewp_084.txt.gz
Dewpoint
26 27 31 30 29 31 29 27 23 24 24 25 25 23 28 36 39 39 39 40 39 38 37 35 35 35 37 37 36 36 35 35 35 35 35 35 35 35 35 35 35 35 34 34
24 28 28 27 29 31 30 29 29 27 25 26 26 28 30 35 39 39 39 40 40 39 37 35 34 34 36 36 36 36 35 35 35 35 35 35 35 35 35 35 34 34 35 35
18 25 24 18 23 29 31 32 31 28 28 29 27 26 29 33 38 39 39 40 40 39 38 36 34 34 35 36 36 36 36 36 35 35 35 35 34 35 35 35 35 35 35 35
23 23 12 16 28 28 29 30 31 30 28 27 26 27 27 31 34 38 39 39 40 40 38 36 35 34 35 36 36 35 35 35 35 35 34 34 34 34 34 34 34 34 35 35
21 21 19 22 27 27 26 24 29 29 30 28 31 30 28 29 31 35 37 39 39 39 38 36 34 34 34 35 35 35 34 35 35 35 34 34 33 33 33 33 33 32 31 31
23 19 13 23 31 30 29 24 31 31 30 29 32 26 27 35 36 37 38 37 37 37 36 35 34 34 33 34 34 34 34 35 35 35 34 33 33 32 32 32 30 28 27 27
22 21 22 24 28 32 26 25 33 31 31 30 31 30 33 34 33 34 35 35 35 35 35 34 34 34 33 34 34 34 35 35 35 35 34 33 32 32 31 29 26 26 26 26
24 23 18 25 31 28 30 36 36 34 31 31 35 36 34 33 33 33 34 35 35 35 34 34 34 34 33 33 35 35 35 35 34 34 34 33 32 30 29 27 25 24 25 25
23 23 24 26 32 32 35 36 37 37 37 36 36 35 34 34 33 33 33 34 34 34 34 35 34 34 33 34 35 35 35 34 34 33 33 32 30 29 28 26 24 23 23 22
25 26 27 28 32 34 35 37 36 37 38 37 37 36 35 34 33 33 33 33 34 34 34 34 35 35 35 35 35 34 34 33 33 32 32 31 30 28 27 25 23 22 20 19
27 28 28 29 32 35 36 37 36 37 37 37 38 38 37 38 36 34 33 32 33 33 33 33 34 34 35 35 34 34 33 33 32 32 31 30 29 28 26 24 21 18 16 14
25 29 28 29 32 37 37 37 37 36 36 36 36 37 37 37 37 35 34 33 32 33 33 33 33 34 35 35 34 33 33 32 32 32 31 30 28 25 27 23 22 22 18 14
29 31 33 36 37 37 36 36 36 35 35 35 36 36 37 37 37 37 35 33 33 33 33 33 33 33 34 35 35 34 33 32 32 32 30 29 26 22 18 22 25 26 24 22
31 35 35 36 35 36 36 36 35 35 35 35 35 36 36 37 36 36 36 35 34 34 33 33 32 33 34 35 35 34 34 33 32 30 29 27 24 19 18 20 21 21 25 25
34 35 34 36 36 35 35 35 34 34 34 34 35 35 35 35 35 35 36 36 34 34 33 33 33 33 34 35 35 34 33 33 31 29 28 26 22 19 18 18 19 16 14 18
34 34 35 35 35 35 34 34 33 33 33 34 33 34 34 34 34 33 34 36 34 34 33 34 33 33 34 34 35 34 33 32 29 27 24 23 20 18 18 18 17 17 14 10
33 33 33 34 33 33 33 33 34 34 34 34 33 33 32 31 31 31 30 31 34 35 34 34 34 34 34 34 34 34 32 32 31 25 22 19 18 17 17 17 17 17 16 15
34 33 34 33 33 33 33 34 34 34 34 34 33 32 31 30 29 29 29 31 32 33 35 35 34 34 34 34 35 35 33 31 32 28 23 19 18 16 16 16 16 16 16 14
32 32 32 32 33 33 33 33 31 31 31 30 30 31 32 31 30 30 30 30 31 32 33 35 35 34 34 34 35 35 33 30 29 29 25 23 21 18 16 15 14 14 13 11
32 32 32 32 32 32 31 30 29 29 29 29 29 29 29 29 30 30 30 29 32 33 34 34 35 35 34 35 36 34 33 31 29 28 26 24 22 19 17 16 14 13 11 10
31 29 28 28 28 29 28 28 27 27 28 28 27 27 28 28 29 29 29 29 31 32 33 33 33 33 34 35 35 35 33 32 30 29 28 27 25 26 22 17 15 14 11 10
31 30 29 24 19 24 28 25 24 26 27 26 26 27 26 26 26 27 29 29 30 31 31 31 32 32 33 35 35 35 34 32 31 31 31 30 30 29 28 25 24 22 14 12
30 29 25 20 15 23 21 21 21 24 24 21 22 25 25 24 25 25 25 26 28 29 30 30 31 33 34 35 34 34 34 33 32 32 31 31 30 30 29 28 27 26 25 18
26 20 18 18 14 15 12 16 18 21 22 21 19 22 23 22 23 26 25 25 26 27 28 30 31 32 32 32 32 33 32 32 32 31 31 31 30 30 29 29 28 27 27 27
20 17 16 14 10 10 14 15 15 19 20 20 17 18 21 21 22 22 23 23 25 25 26 27 28 30 30 30 30 31 31 31 32 31 31 30 30 29 29 29 29 29 28 27
16 14 13 12 12 13 13 13 12 17 19 18 15 17 20 17 19 20 20 21 22 23 24 25 26 27 28 28 29 30 30 31 31 31 31 30 29 29 29 29 28 28 29 28
18 23 23 18 12 10 12 12 15 13 16 18 16 18 17 15 18 18 17 18 19 21 22 23 23 24 25 25 26 27 28 29 30 30 30 30 29 29 28 28 28 28 28 29

GFSNGP_sfc_30mbdewp_087.txt.gz
Dewpoint
27 27 30 29 30 30 28 27 23 23 24 24 25 26 25 30 38 38 39 40 39 38 37 36 36 36 38 37 36 36 36 35 35 35 35 35 35 35 35 35 35 35 35 35
25 28 29 28 29 30 30 29 28 27 26 27 27 27 28 32 38 38 39 40 40 39 38 36 35 35 37 37 36 36 36 35 35 35 35 35 35 35 35 35 35 35 35 36
21 25 24 17 22 28 30 31 29 27 27 28 27 27 27 30 37 39 39 40 40 40 39 37 35 35 36 37 36 36 36 35 35 35 35 35 35 35 35 35 35 35 35 36
22 22 11 15 27 28 28 30 32 31 31 30 30 28 27 29 33 38 40 40 41 40 39 38 36 35 35 36 36 36 35 35 36 36 35 35 35 35 35 35 35 35 35 36
21 20 19 23 27 27 26 24 28 30 32 31 29 30 28 29 31 36 39 40 40 41 40 38 36 35 35 36 36 35 35 35 35 35 35 34 34 34 34 34 34 33 34 34
23 18 12 22 30 30 29 24 30 31 30 30 31 27 28 33 33 33 35 36 38 39 38 37 35 34 35 35 35 35 35 35 35 35 35 34 34 33 34 33 32 30 29 29
21 20 21 24 27 31 24 25 34 33 31 30 30 29 33 34 34 35 36 36 36 36 37 36 35 34 34 34 34 35 35 35 36 35 35 34 33 33 32 31 28 27 27 28
23 20 17 24 31 28 30 35 37 36 31 31 35 35 34 33 34 34 35 35 35 35 35 35 35 34 34 34 35 35 36 36 35 35 34 33 33 32 31 28 26 25 26 26
23 21 24 24 32 32 33 36 36 37 36 35 35 35 35 34 33 33 34 34 35 35 34 34 34 34 34 34 35 35 35 35 34 34 34 33 31 30 29 26 24 24 24 24
25 25 26 28 29 32 36 37 36 38 38 37 36 35 35 34 34 33 33 33 34 34 34 34 34 34 34 34 35 35 35 34 34 33 32 32 30 29 28 26 24 23 22 21
27 27 28 29 30 34 37 37 36 37 37 37 38 38 37 37 36 34 33 33 33 34 34 34 34 35 35 35 35 34 34 34 33 33 32 30 30 29 28 26 24 23 22 20
25 29 29 29 34 36 36 37 37 36 36 36 36 36 37 37 37 36 35 33 33 33 33 33 34 34 35 35 35 34 33 33 32 32 31 30 29 29 30 28 28 26 22 18
29 30 31 34 37 37 36 36 35 35 35 35 36 37 37 37 37 37 36 34 33 33 33 33 33 33 35 35 35 34 33 33 33 32 31 30 29 28 26 27 27 25 25 24
33 32 34 36 35 36 36 35 35 35 35 35 35 35 35 35 35 36 36 36 35 34 34 33 33 33 35 35 35 34 33 33 33 32 31 30 30 28 23 21 22 24 27 26
33 35 34 36 35 35 35 34 34 34 34 34 34 34 34 34 34 34 34 35 36 34 34 34 33 33 34 35 35 35 34 34 33 32 31 30 29 26 22 19 20 20 20 23
33 34 35 35 34 34 34 33 33 33 33 33 33 33 33 32 32 32 32 32 34 35 34 34 34 34 34 35 35 35 34 34 33 31 30 29 27 26 22 19 18 18 16 14
33 33 33 33 33 33 33 33 34 34 34 33 33 33 32 31 30 30 29 29 30 31 33 35 35 35 34 34 35 34 34 34 34 30 28 28 27 25 22 19 17 17 16 16
33 33 33 33 33 33 33 34 33 33 32 32 31 31 31 31 30 30 30 30 30 30 32 33 35 35 34 34 34 34 34 33 33 31 29 26 25 24 21 19 17 17 17 17
32 32 32 33 33 33 32 30 30 30 29 29 29 29 30 30 30 30 31 30 30 31 32 33 34 35 35 34 34 34 34 33 32 33 30 30 29 24 20 18 17 16 16 16
32 33 33 31 31 31 30 29 27 27 28 28 28 28 27 27 29 29 29 30 31 30 32 33 33 33 34 34 35 35 34 33 32 31 31 30 30 29 25 23 19 17 16 15
30 29 25 23 25 28 28 27 24 24 27 26 26 26 25 26 25 26 27 28 29 30 31 32 32 32 33 34 35 35 34 33 32 31 31 31 30 30 29 27 26 23 18 15
31 30 29 27 18 23 25 22 21 25 24 22 22 24 24 24 23 24 26 27 26 27 29 30 30 31 33 34 34 34 34 34 33 32 32 31 31 30 30 29 28 28 27 26
31 30 26 22 14 21 21 19 19 22 22 20 18 21 23 22 22 23 23 24 25 26 26 27 28 30 31 32 32 33 33 33 33 32 32 32 32 31 31 31 30 29 28 28
30 25 18 19 14 14 12 14 16 20 21 21 19 19 21 18 18 24 22 23 23 25 25 26 27 28 29 30 30 30 31 32 32 32 32 32 32 32 31 31 30 30 29 29
30 23 17 15 11 10 12 15 13 15 18 19 18 16 20 20 19 19 21 20 21 22 23 24 25 25 25 26 27 28 29 30 31 31 31 31 31 31 31 31 30 30 30 29
22 18 15 14 13 12 12 13 10 12 16 16 16 16 19 17 16 18 18 18 18 19 20 21 22 22 23 24 25 25 26 27 29 30 31 31 31 31 30 30 30 30 30 30
21 19 21 24 21 14 11 11 10 13 13 15 16 17 18 15 15 17 17 15 16 17 18 20 20 20 21 23 23 23 24 25 26 27 28 29 30 30 29 29 29 29 29 29

GFSNGP_sfc_30mbdewp_090.txt.gz
Dewpoint
28 28 29 30 30 30 28 28 25 23 24 23 23 25 26 29 35 37 39 40 40 40 39 39 39 39 40 39 38 38 37 37 37 37 37 36 36 36 36 36 36 37 37 37
25 28 29 28 30 31 30 29 27 26 25 26 26 27 27 28 34 36 38 40 40 40 39 39 38 38 39 38 38 38 37 37 37 36 36 37 36 36 36 36 36 36 37 37
24 25 24 20 22 29 30 31 29 27 27 28 27 27 28 29 33 37 37 39 40 40 40 39 38 38 37 38 37 37 37 36 36 36 36 37 37 36 36 36 36 36 37 37
22 22 12 18 26 28 28 29 31 30 30 30 30 31 30 28 29 33 38 39 40 41 41 40 38 37 37 37 37 37 37 36 36 37 37 36 36 36 37 36 36 37 36 37
20 18 19 26 28 27 26 26 30 30 30 31 32 31 31 31 30 30 37 39 40 41 41 41 39 37 36 37 37 37 36 37 37 37 36 36 36 36 36 35 35 35 36 36
24 19 12 24 29 30 29 27 32 32 31 31 31 28 27 33 35 32 35 40 41 42 42 41 39 37 36 36 36 36 36 36 37 37 36 36 36 35 35 35 34 34 33 34
22 20 19 24 29 31 24 28 34 35 32 31 30 31 34 34 35 36 37 37 38 39 40 40 39 37 36 36 36 37 37 37 36 36 36 36 35 34 34 33 32 31 30 30
23 20 17 24 31 28 30 34 37 37 32 32 35 36 35 34 35 35 36 36 37 38 38 38 37 37 37 37 38 37 36 36 36 37 36 35 34 33 33 31 29 27 26 26
23 20 25 25 32 33 33 35 37 37 35 34 36 36 35 35 35 34 35 35 36 36 36 36 36 36 36 37 36 36 36 36 36 36 35 34 33 32 30 28 27 26 25 24
25 26 27 28 29 30 34 37 37 38 38 38 36 36 36 35 35 35 34 34 35 35 35 35 35 35 35 35 35 35 35 35 35 35 34 33 32 31 30 28 26 26 23 22
26 28 29 30 31 32 37 38 37 38 37 38 39 38 38 37 37 36 35 34 34 35 35 35 35 35 34 35 35 35 35 35 35 34 34 32 31 31 30 29 28 26 21 21
25 29 29 29 35 36 36 37 37 37 36 36 37 37 38 37 37 37 36 35 34 35 35 34 34 35 35 35 35 35 34 35 34 33 33 31 31 30 32 32 31 26 24 22
30 31 31 32 37 37 37 36 35 35 36 36 36 37 37 37 37 37 36 36 35 34 34 34 34 34 35 35 35 35 34 34 34 33 32 31 30 30 29 31 30 29 29 26
33 34 32 36 35 36 36 36 35 35 35 35 35 36 36 35 36 35 35 36 37 36 35 34 34 34 35 35 35 35 35 34 34 34 32 32 31 30 30 29 27 27 28 28
33 34 35 36 35 35 35 35 34 34 34 34 34 34 34 33 33 33 33 33 35 35 35 35 34 34 35 35 35 35 35 34 34 34 32 32 31 30 29 27 23 22 23 25
33 34 35 35 35 34 34 34 33 33 34 33 33 33 33 33 32 32 31 30 31 31 32 35 35 35 35 35 35 35 35 34 34 33 32 32 30 30 28 27 24 20 19 19
33 33 34 34 34 33 33 34 34 34 34 33 32 32 32 32 32 31 31 31 31 31 32 33 34 36 35 35 35 35 35 34 35 33 31 31 30 29 28 28 26 21 18 17
33 33 33 34 33 33 34 33 32 32 31 30 30 30 30 30 30 30 30 31 31 31 33 34 34 35 35 35 35 35 35 34 34 34 31 31 31 30 29 28 26 23 20 17
33 33 33 33 34 33 31 30 30 29 29 28 28 29 29 28 29 29 29 30 31 31 31 32 33 34 34 35 35 35 34 34 33 33 32 31 31 30 30 29 27 24 21 18
32 32 32 31 31 30 28 26 25 25 27 27 26 25 25 26 26 26 28 30 28 29 31 31 32 32 32 34 35 35 34 34 33 33 33 31 31 30 29 29 29 29 26 20
30 30 28 23 24 27 27 23 22 23 25 24 23 23 23 24 23 24 26 28 27 27 28 30 31 31 32 33 34 34 34 34 33 33 32 32 31 31 31 30 29 29 29 29
31 30 29 29 24 26 25 21 20 23 22 20 19 22 22 21 20 22 25 26 24 25 26 26 27 28 30 31 33 32 33 33 33 33 32 32 32 31 31 31 30 29 30 29
31 30 28 26 20 19 22 21 18 20 21 21 19 18 20 20 18 21 18 20 22 23 25 25 26 27 28 29 29 30 30 31 32 33 33 32 32 32 32 31 31 31 30 30
31 30 29 23 18 17 14 17 18 18 21 21 22 19 20 19 18 22 21 21 21 21 21 23 24 25 25 25 26 27 27 28 29 30 31 32 32 32 32 32 32 32 31 31
32 31 29 21 15 13 12 14 15 14 17 19 20 18 19 21 18 17 19 19 19 19 19 20 22 23 22 22 23 24 24 25 26 28 29 31 31 31 32 32 32 32 32 32
29 27 21 17 17 15 13 13 11 10 12 13 14 16 16 19 16 16 17 17 16 17 17 18 19 20 20 20 21 22 22 23 24 25 26 27 29 30 31 31 31 31 31 32
24 23 20 18 23 23 18 12 10 9 13 12 12 15 18 18 15 16 17 15 14 15 16 16 18 18 19 19 20 20 21 21 22 23 23 24 25 27 28 29 30 31 31 31

GFSNGP_sfc_30mbdewp_096.txt.gz
Dewpoint
27 28 30 30 31 31 29 28 24 25 23 24 25 25 25 28 31 36 38 38 38 38 39 40 41 41 41 40 40 40 39 39 38 38 38 38 38 37 38 37 38 38 38 39
26 28 28 29 31 30 30 29 27 27 27 27 27 27 28 28 31 33 37 38 39 39 39 40 41 40 40 40 39 39 39 38 38 38 37 38 37 37 37 37 37 38 38 38
27 26 25 25 28 30 30 30 29 27 29 30 29 29 28 30 30 32 35 39 39 39 39 40 40 40 40 39 39 39 38 38 38 38 38 38 37 37 37 37 38 38 38 38
21 22 18 22 25 27 29 28 28 28 29 29 30 30 30 31 31 30 34 37 40 40 40 40 40 40 40 39 38 38 38 37 38 38 38 38 38 38 38 37 37 37 36 38
22 18 21 26 27 26 27 27 31 30 31 31 31 33 33 34 34 32 31 35 39 40 40 41 40 39 39 38 38 38 38 37 38 38 38 38 37 37 37 37 35 36 37 37
23 19 15 26 28 30 29 27 33 34 33 31 31 30 33 35 35 36 36 39 40 41 42 41 40 39 38 38 38 38 38 38 38 38 38 37 37 37 36 37 35 36 36 36
23 21 21 26 29 31 26 31 36 36 32 31 33 34 35 35 36 37 37 38 39 42 42 42 41 39 38 38 38 39 39 38 38 38 38 37 37 37 35 35 35 34 34 35
22 21 19 30 31 30 32 36 37 37 32 33 36 36 36 36 36 37 37 38 40 40 40 40 40 39 39 38 39 39 39 38 38 38 38 37 36 35 34 34 33 33 32 32
24 24 25 26 26 28 30 30 37 37 35 35 37 36 36 36 36 36 36 36 37 38 38 38 39 39 39 40 39 39 38 38 37 38 37 36 36 34 33 33 32 31 30 30
25 27 27 30 31 32 32 37 38 38 38 38 37 38 38 38 37 36 36 35 36 36 36 36 37 37 39 39 39 38 37 37 37 37 36 35 35 34 33 32 31 30 29 28
26 29 31 31 32 35 36 38 38 38 38 40 39 38 38 38 37 37 36 35 35 35 35 35 36 35 36 37 36 36 36 36 36 36 35 34 34 33 32 32 31 30 30 30
32 30 29 29 31 37 36 38 38 37 37 37 37 37 37 37 37 37 37 37 36 36 35 36 36 35 35 35 35 35 35 35 35 35 34 35 33 33 34 34 33 34 33 31
29 32 32 33 34 37 37 36 36 37 37 35 36 36 37 36 36 36 35 35 36 37 37 36 35 35 35 36 36 35 35 35 35 35 34 34 33 32 31 33 36 35 36 36
33 33 33 34 34 36 37 36 36 36 36 36 37 36 35 35 34 34 33 33 32 33 36 36 36 35 35 35 36 35 35 36 35 35 35 34 33 32 32 31 31 32 35 36
33 33 33 34 35 36 36 35 35 35 34 34 34 34 34 33 33 33 32 32 31 32 32 33 34 36 36 35 35 35 35 35 36 35 35 34 33 32 32 31 31 31 31 33
32 33 34 35 35 35 35 35 34 34 34 34 33 32 32 32 32 32 32 32 31 31 32 34 34 34 35 36 35 35 35 35 35 35 34 34 33 32 31 31 31 31 31 30
32 31 32 33 34 34 34 34 34 34 33 32 30 31 31 31 31 30 30 31 31 32 33 32 33 33 33 36 36 35 35 35 36 35 34 33 32 31 31 31 30 31 31 32
34 34 34 35 35 36 34 33 33 31 30 30 29 30 29 28 28 28 29 30 31 32 30 30 32 32 33 34 34 35 35 35 34 34 34 33 32 32 31 31 30 30 31 31
33 33 33 33 33 34 34 32 32 30 26 26 25 25 26 26 26 24 26 28 28 27 27 28 29 31 31 32 34 34 34 34 34 34 34 34 33 32 31 31 31 31 31 31
32 32 30 31 31 32 30 30 30 27 24 24 22 21 20 21 22 21 23 26 28 26 26 26 26 27 27 29 29 31 33 32 33 33 33 33 32 32 32 32 31 31 31 31
31 30 29 28 29 28 24 23 20 22 24 22 18 18 19 20 21 20 21 24 24 23 24 25 26 25 25 26 26 27 29 30 31 31 32 32 32 32 32 32 31 31 31 31
30 29 29 30 29 29 29 27 23 22 25 25 24 20 18 18 19 18 19 24 23 22 22 23 24 24 25 25 25 25 24 25 26 28 30 30 31 31 31 32 31 32 31 31
31 30 29 29 28 27 28 28 28 28 23 21 22 20 19 18 19 18 15 21 21 21 21 21 22 23 23 24 24 24 23 23 23 23 25 26 28 29 30 31 32 32 32 32
31 30 29 30 30 29 27 27 25 24 20 19 20 21 21 17 18 20 21 20 19 21 21 20 21 21 22 22 22 21 22 22 22 22 22 23 23 25 25 28 29 30 31 31
30 32 31 30 28 28 28 28 21 18 18 17 18 20 22 21 19 19 20 19 19 19 19 19 19 19 20 21 20 20 20 20 21 22 22 21 21 21 22 23 24 27 28 30
28 28 29 31 30 29 25 18 17 16 12 10 11 15 17 18 18 20 18 16 17 17 17 16 17 18 18 19 19 19 19 19 19 20 21 20 21 20 20 21 21 22 23 25
23 24 25 25 24 21 19 19 19 20 16 12 11 11 13 15 18 19 18 16 15 15 15 15 16 17 18 18 18 18 18 18 19 19 19 18 19 20 19 19 20 21 22 22

GFSNGP_sfc_30mbdewp_099.txt.gz
Dewpoint
30 30 30 29 29 31 30 27 25 28 24 26 25 25 26 29 35 37 37 38 38 39 40 42 42 42 41 41 40 40 40 39 39 38 38 38 37 37 38 38 38 38 38 39
27 28 30 30 31 31 31 30 29 28 27 29 27 28 28 29 32 36 38 38 38 39 40 41 41 41 40 40 40 40 39 38 38 38 38 37 37 37 37 37 38 38 38 38
26 26 25 24 28 31 30 30 29 27 29 30 29 29 30 30 30 33 37 38 39 39 40 41 41 41 40 39 40 39 39 38 38 37 37 37 37 37 37 37 37 37 37 37
23 22 17 22 25 28 30 28 28 28 29 30 30 31 33 34 31 31 32 39 39 39 40 40 41 40 40 39 39 39 38 38 38 38 38 38 37 37 37 37 37 37 36 37
22 19 21 26 27 27 26 29 31 31 32 32 32 32 33 35 35 33 33 39 39 40 40 40 40 40 40 39 39 38 38 38 38 38 38 38 37 37 37 37 37 36 36 36
24 20 16 26 28 30 29 28 35 34 31 30 31 29 32 35 35 36 37 38 40 41 41 40 40 40 39 38 38 38 38 38 38 38 38 37 37 37 37 37 35 35 35 36
24 22 21 27 29 31 20 29 36 34 31 33 32 33 35 36 37 37 38 39 41 42 41 41 40 39 38 38 38 38 39 38 38 38 38 37 37 37 36 35 35 34 35 36
23 22 20 30 31 29 32 34 37 35 32 36 36 36 36 36 36 36 36 38 40 40 39 40 40 39 38 38 38 39 39 38 38 38 38 37 37 36 35 35 34 34 34 34
24 25 25 26 26 29 29 30 37 36 36 36 36 36 36 35 36 36 36 36 38 38 38 38 39 39 38 39 39 39 38 38 37 37 37 37 36 35 34 34 33 33 32 32
25 30 31 33 34 35 36 37 38 39 38 37 37 38 38 37 37 36 35 35 36 36 36 36 37 37 39 39 39 38 37 37 37 37 36 36 36 35 34 33 32 32 31 31
30 30 31 30 33 36 36 38 38 38 40 39 39 38 38 38 37 36 36 36 36 35 35 35 36 35 38 38 38 37 37 37 37 37 37 35 35 34 34 33 33 32 31 31
31 33 33 32 33 37 37 37 38 38 37 38 37 37 37 37 37 37 37 37 37 37 36 36 36 35 35 35 36 36 35 36 36 36 35 35 34 34 35 35 34 35 34 33
30 33 32 33 36 36 37 36 36 38 37 36 36 37 36 36 35 35 33 33 33 34 36 36 36 35 35 35 35 35 35 35 36 36 35 34 34 33 32 33 36 36 36 36
33 32 33 33 32 35 36 36 36 36 37 37 37 36 36 35 34 33 32 31 32 32 34 34 35 35 35 35 35 35 35 36 35 35 35 34 34 33 33 32 31 32 36 36
32 33 33 34 34 36 36 35 35 35 34 34 34 34 33 33 33 32 32 32 32 32 32 33 34 34 34 35 35 35 35 35 35 35 35 35 34 33 32 32 31 31 32 33
32 32 33 33 34 35 35 35 35 34 34 34 34 33 32 32 32 31 31 31 31 31 33 33 33 32 33 34 35 35 35 35 36 35 34 34 34 33 32 31 31 31 31 31
31 30 31 31 33 35 34 34 34 34 32 31 31 31 31 30 30 29 29 31 32 32 31 30 31 31 33 34 34 34 35 35 36 36 34 34 33 33 32 31 31 31 31 32
34 33 34 34 34 35 34 34 33 33 31 31 28 28 28 27 26 26 26 29 29 30 27 27 29 30 32 32 33 34 34 33 34 34 34 33 33 33 32 31 31 31 31 32
32 32 32 33 33 34 33 31 31 31 30 29 26 23 25 24 23 22 24 27 27 26 25 26 27 28 27 27 28 29 32 32 32 33 33 33 33 33 32 31 31 31 31 31
32 32 31 30 31 32 30 30 30 29 24 22 20 19 19 20 22 20 21 25 27 25 24 25 27 26 25 26 27 26 28 29 30 31 32 32 32 32 32 32 32 31 31 31
30 30 29 29 29 27 23 21 20 21 23 21 18 18 18 20 21 19 18 20 24 23 23 23 23 25 25 26 25 25 25 25 24 25 28 30 30 31 31 31 31 31 31 31
30 29 29 29 28 28 29 26 23 23 26 28 29 28 25 20 21 19 18 20 22 22 22 21 21 23 24 25 23 24 24 23 23 23 23 23 24 26 27 29 31 31 31 31
30 30 30 29 28 27 27 28 28 28 28 24 21 21 20 18 18 17 14 20 22 21 21 21 22 22 23 22 21 21 21 22 22 21 21 21 22 22 23 24 26 26 29 30
30 31 30 30 30 28 27 28 28 26 26 25 23 22 20 18 17 19 21 22 20 20 21 20 21 21 21 20 20 20 20 20 20 21 21 22 21 21 21 21 22 23 24 23
29 30 30 30 29 29 28 28 29 24 21 19 18 18 20 22 19 17 20 20 20 19 19 20 18 18 18 19 19 19 20 19 19 20 20 20 21 21 20 20 21 22 23 23
27 27 27 28 29 29 29 28 23 18 17 15 12 12 16 19 19 20 20 19 18 18 16 16 16 17 18 18 18 18 18 18 18 18 19 19 18 18 18 19 20 20 20 20
22 24 24 25 25 26 25 22 20 19 20 19 16 13 12 13 15 18 19 18 15 14 15 15 15 17 18 18 18 17 17 17 17 18 18 17 16 16 17 18 18 19 19 21

GFSNGP_sfc_30mbdewp_102.txt.gz
Dewpoint
30 30 30 28 28 30 29 31 29 29 28 26 25 25 26 29 35 36 37 37 39 41 42 42 43 43 43 42 42 41 41 40 40 39 38 38 38 38 38 38 38 38 39 39
27 27 30 30 30 30 32 30 31 32 29 30 29 29 29 30 34 36 37 38 38 40 41 42 42 42 41 41 40 40 40 39 38 38 38 37 37 37 37 37 38 38 38 38
23 25 25 24 29 30 31 30 29 28 28 30 29 29 30 30 30 33 37 38 38 39 40 41 42 41 41 40 40 39 39 38 38 38 37 37 37 37 37 37 37 37 37 37
23 20 16 22 25 30 29 28 29 29 29 30 31 33 34 34 33 31 32 38 39 39 40 41 41 41 40 40 39 39 38 38 38 37 37 37 37 37 36 36 36 36 37 36
21 19 20 26 29 27 27 29 32 32 32 31 31 33 33 35 35 36 36 39 39 40 40 41 41 40 40 39 39 39 38 38 38 38 37 37 36 36 36 37 37 37 36 35
24 20 16 26 28 29 29 28 35 33 30 31 32 28 32 35 36 37 37 39 41 41 40 40 41 40 39 39 39 38 38 38 38 38 38 37 37 36 36 37 37 36 35 35
23 22 21 27 29 31 21 27 36 32 31 33 31 33 35 36 37 37 38 40 41 41 41 40 40 40 39 39 38 39 39 38 38 38 38 37 36 36 36 36 35 35 34 35
23 23 20 30 31 29 31 34 37 34 33 35 36 36 36 36 36 36 36 38 39 39 39 40 40 40 39 39 39 39 39 38 38 38 38 37 36 36 36 36 35 34 34 34
24 24 26 30 29 32 31 30 37 35 35 36 36 36 36 36 35 35 35 36 37 37 38 38 39 39 38 38 39 39 39 38 37 37 37 37 36 36 35 35 34 34 33 33
26 31 31 32 34 36 37 37 38 39 38 37 36 37 37 37 36 36 35 35 36 36 36 36 37 37 39 39 39 38 38 37 37 37 36 36 36 35 35 34 33 33 33 32
29 30 30 31 33 36 37 38 38 39 40 39 39 38 38 37 36 36 36 36 36 35 35 35 35 35 38 39 39 38 37 37 37 37 37 36 36 35 35 34 34 33 33 33
29 32 33 34 36 36 37 37 38 37 38 38 39 38 37 37 37 36 35 35 36 36 36 35 35 35 35 35 36 36 36 36 37 37 37 36 35 35 36 36 35 35 36 34
30 32 32 32 34 34 36 36 36 38 37 37 37 37 36 35 35 34 32 32 32 34 36 36 35 35 35 35 35 35 35 35 35 36 36 35 35 34 33 34 36 36 37 36
32 32 32 33 32 33 35 36 36 37 37 38 37 37 36 36 35 33 32 31 32 33 32 33 34 34 34 35 35 34 34 35 35 35 35 35 35 34 34 33 32 32 34 36
32 33 33 33 35 35 36 35 35 35 34 34 34 34 33 33 32 32 31 31 32 32 33 34 33 32 32 34 35 35 34 35 35 35 35 35 34 34 33 33 32 32 32 33
32 32 32 32 32 34 36 35 35 34 34 34 34 33 33 33 32 31 30 31 31 31 31 31 31 31 32 34 34 35 35 36 36 35 35 35 34 34 33 32 32 32 32 32
31 30 30 30 31 33 35 34 34 34 32 31 31 31 31 31 29 28 28 31 32 31 27 28 29 30 32 32 33 34 34 34 35 35 35 34 34 33 33 32 32 31 32 33
34 33 32 33 33 33 35 34 34 33 32 31 31 31 28 26 25 24 25 28 29 28 24 25 27 28 29 28 29 29 32 32 32 32 33 33 33 33 33 32 32 31 32 32
32 31 32 32 32 33 33 32 32 31 31 30 29 29 28 27 23 21 21 26 27 25 22 24 28 26 25 26 28 26 29 29 30 31 31 32 32 32 32 32 31 32 32 31
31 32 31 30 30 31 31 31 30 28 25 23 21 21 19 21 22 20 20 24 27 24 24 23 24 26 25 25 27 25 25 25 25 26 27 30 30 31 31 32 32 31 31 31
30 30 30 29 29 29 23 21 21 23 22 20 18 18 20 24 26 24 20 21 26 23 23 22 21 22 24 26 24 23 24 23 23 23 23 23 23 24 26 28 29 31 31 31
29 29 29 29 28 28 28 28 24 21 23 25 27 28 28 26 24 21 20 19 23 22 22 21 21 23 24 24 22 21 22 22 22 22 22 21 21 21 21 21 23 24 24 27
30 30 30 30 29 28 28 28 28 27 28 28 26 23 21 20 19 16 13 21 22 21 21 21 22 23 23 21 20 20 20 20 20 20 21 21 21 21 21 20 21 21 22 23
29 29 29 31 30 29 27 26 28 29 28 26 28 27 23 20 21 23 22 23 22 21 20 20 21 20 20 19 18 19 19 19 19 18 19 22 21 21 20 20 20 20 21 21
28 28 29 29 29 29 30 29 28 28 28 26 22 21 20 22 19 16 21 20 21 20 18 20 18 18 18 18 17 18 18 18 17 18 18 17 18 19 19 18 18 20 21 23
25 26 27 28 28 28 28 28 28 27 22 18 17 15 14 18 21 22 21 20 19 18 17 16 16 17 17 17 18 18 17 17 17 17 18 17 17 16 16 17 17 18 18 19
22 25 24 24 25 26 26 27 26 25 22 20 20 19 14 13 15 16 17 18 18 15 14 15 15 16 18 18 18 17 16 16 16 17 17 16 15 15 15 16 16 16 17 17

GFSNGP_sfc_30mbdewp_105.txt.gz
Dewpoint
30 29 29 28 28 30 28 30 24 28 27 26 26 26 27 29 35 36 37 37 39 41 42 42 43 43 43 43 43 43 42 42 41 40 39 39 38 38 38 38 38 38 38 38
26 27 30 29 29 30 31 31 32 30 28 30 30 30 30 31 33 35 37 37 39 41 41 42 42 42 42 42 42 42 41 40 39 38 38 38 37 37 37 37 38 38 38 38
21 23 26 23 25 30 30 30 32 27 29 30 29 30 31 32 31 31 33 38 38 39 41 42 42 42 41 41 41 40 40 39 38 38 37 37 37 37 37 36 37 36 36 36
22 19 16 22 26 30 29 29 29 29 29 31 31 33 34 35 34 33 33 38 39 39 39 41 42 42 41 40 40 39 39 38 38 38 37 37 37 36 36 36 36 36 36 36
20 19 20 27 29 31 29 30 33 32 32 31 31 33 33 35 36 36 36 37 39 40 40 41 41 41 40 40 39 39 38 38 38 38 37 37 36 36 36 36 36 36 36 36
23 19 17 25 27 29 29 28 35 32 30 31 31 27 31 35 37 36 37 39 40 41 41 41 41 41 40 39 39 39 38 38 38 38 37 37 36 36 36 36 36 36 36 35
23 22 21 25 30 30 21 25 36 32 31 32 30 32 35 36 36 36 37 39 40 41 41 40 41 40 40 39 39 39 39 38 38 38 37 37 36 36 36 36 35 36 35 35
23 23 20 27 31 28 30 34 37 34 33 35 35 36 36 35 35 36 36 37 38 39 39 40 41 40 39 39 39 39 39 38 38 38 38 37 36 36 35 36 36 35 35 35
23 23 29 33 33 35 36 31 37 36 35 36 36 36 36 35 35 35 35 36 37 37 38 38 39 40 39 39 39 39 38 38 37 37 37 36 36 36 36 36 35 34 34 34
28 30 31 32 34 36 37 37 38 39 38 37 36 36 37 37 36 35 35 35 35 35 35 35 36 39 39 39 39 38 38 37 37 37 36 36 36 36 36 35 34 34 33 33
29 30 30 32 35 35 37 38 38 39 40 39 39 38 38 37 36 36 37 36 36 35 35 35 35 35 37 38 38 38 37 37 36 36 37 36 36 36 35 35 35 34 34 33
28 31 32 33 36 36 35 36 36 37 38 39 40 39 37 37 36 35 34 34 35 36 35 35 35 34 35 35 36 36 36 36 36 37 37 37 36 35 36 37 36 36 36 36
30 32 32 32 34 33 34 35 36 37 37 37 38 38 37 35 34 34 32 31 31 34 34 35 35 34 34 34 34 34 34 34 34 36 36 36 36 35 34 34 36 37 37 37
32 31 31 32 32 34 35 35 36 36 37 37 37 37 36 35 34 33 32 32 32 32 33 34 33 32 32 34 34 34 34 34 34 34 34 35 35 34 34 34 33 33 34 36
32 33 32 33 33 34 35 35 35 35 34 34 34 34 34 34 32 31 31 31 32 33 33 33 32 30 32 34 34 34 34 34 34 34 34 35 34 34 34 34 33 33 33 34
32 31 31 31 31 33 34 34 34 34 34 34 34 33 33 34 33 32 31 31 30 31 31 31 31 30 32 32 32 33 34 35 36 35 35 35 34 34 33 33 33 33 32 32
30 29 30 30 30 31 33 34 33 34 32 32 32 33 33 32 31 29 27 30 31 30 26 26 27 28 31 29 30 31 32 32 33 32 33 34 33 33 33 33 32 32 32 33
32 32 32 32 32 32 32 34 34 34 33 32 32 31 30 28 26 24 23 27 30 28 24 24 27 28 26 25 28 26 27 31 31 31 31 32 32 33 32 32 32 32 32 33
33 31 32 31 33 32 33 33 32 32 31 31 30 29 29 29 27 25 25 26 27 26 22 23 26 26 25 25 28 24 25 25 25 27 29 31 31 31 31 31 31 31 32 31
31 31 31 30 30 30 31 31 31 30 28 26 23 25 22 22 23 22 21 21 26 25 24 23 22 23 25 25 27 23 24 23 23 23 23 24 24 26 27 29 30 30 31 31
30 31 30 29 29 29 27 22 21 26 23 21 18 17 19 23 27 28 27 26 25 25 23 23 21 21 22 25 25 22 22 22 22 22 22 22 22 22 21 22 23 24 24 25
29 29 29 29 29 28 28 28 25 20 21 24 25 26 28 27 26 24 24 21 22 24 22 22 22 22 24 25 22 20 20 21 21 21 21 21 21 21 21 22 22 22 22 23
29 29 29 30 29 29 29 29 28 27 26 25 27 27 24 21 21 18 14 18 23 23 23 22 22 23 23 21 19 19 20 19 20 20 19 19 21 22 22 21 20 21 21 20
28 28 28 29 30 30 28 28 28 28 28 28 28 27 27 27 23 22 23 24 25 25 22 21 21 22 21 19 18 18 18 19 19 18 18 20 18 17 19 20 20 19 18 18
28 28 27 28 29 29 30 30 30 29 28 28 28 27 25 24 22 17 19 22 23 21 21 20 20 19 19 18 17 17 18 17 16 17 17 16 17 17 17 17 16 17 18 19
27 27 27 27 28 28 29 28 28 28 27 26 23 19 18 18 20 22 21 21 20 20 20 19 16 17 18 17 18 18 18 17 17 16 17 17 16 16 15 15 16 16 16 17
23 24 23 24 25 26 26 26 26 26 26 26 23 21 20 16 15 17 18 17 17 18 17 15 15 16 17 18 18 18 16 16 16 16 17 15 14 14 14 15 15 15 15 15

GFSNGP_sfc_30mbdewp_108.txt.gz
Dewpoint
30 29 30 29 28 30 29 28 24 26 25 26 28 28 29 32 35 36 37 37 40 41 41 42 43 43 43 43 44 44 43 43 42 41 40 39 39 39 39 39 38 39 38 38
25 26 30 28 29 31 30 31 30 29 28 30 30 30 30 31 31 32 36 38 38 41 41 42 42 43 43 43 42 42 42 41 40 39 38 38 38 38 38 37 37 38 38 37
20 22 27 22 23 29 30 30 30 26 29 30 30 31 32 33 33 31 34 38 38 38 41 42 42 42 42 42 41 41 40 39 38 38 37 37 37 37 37 37 37 36 36 36
21 19 16 22 28 28 30 29 29 29 30 31 31 33 34 35 34 34 35 36 38 39 39 41 42 42 41 41 40 40 39 38 38 38 37 37 37 36 36 36 36 36 36 36
20 18 20 27 28 32 30 31 34 32 31 30 32 33 33 36 36 36 36 37 39 41 41 40 42 41 40 40 39 39 38 38 38 38 37 37 36 36 36 35 35 36 36 36
23 18 17 25 27 28 31 28 35 32 30 31 31 26 31 36 36 36 37 39 40 40 41 41 41 41 40 39 39 39 38 38 38 38 37 36 36 35 35 35 36 36 36 36
23 21 21 24 30 31 21 23 36 32 32 32 31 32 35 36 36 36 37 38 39 40 40 41 41 40 40 39 39 39 39 38 38 38 37 37 36 36 36 35 35 36 36 35
23 22 19 30 30 27 29 33 37 35 33 35 35 36 35 35 35 35 36 36 38 38 38 39 41 40 39 39 39 39 39 38 38 37 37 36 36 36 35 35 35 35 36 35
22 23 30 33 34 35 36 34 37 37 36 36 36 36 36 36 36 35 35 35 36 37 36 38 39 40 39 38 39 39 38 38 38 37 37 36 36 35 35 35 36 35 35 34
28 30 30 33 34 36 37 37 38 39 38 37 36 36 37 36 35 36 36 35 35 35 35 35 38 39 39 39 39 38 38 37 37 36 36 36 36 36 36 36 35 35 34 34
27 30 30 32 34 35 36 36 37 38 40 39 38 38 37 36 36 36 36 36 36 35 35 35 35 35 35 37 38 38 37 37 37 36 37 36 36 36 36 36 35 34 34 34
26 30 30 32 36 34 34 35 36 37 37 39 40 40 38 36 36 34 32 32 34 35 35 34 34 34 34 35 35 36 36 36 36 36 36 36 36 36 37 37 37 37 37 35
31 33 33 33 34 34 33 34 36 36 37 37 38 38 37 35 34 34 32 31 32 33 34 34 33 32 33 34 34 34 34 34 34 35 36 36 36 36 35 35 37 38 38 38
32 31 30 32 32 34 35 35 36 36 36 37 37 37 36 35 34 33 32 32 32 33 33 33 32 31 32 33 34 33 33 34 34 33 33 34 34 34 34 34 34 34 35 36
32 32 31 32 32 33 34 34 34 34 34 34 34 34 34 35 33 32 31 31 32 32 32 32 31 30 31 33 32 33 34 34 34 34 33 34 34 34 34 34 34 34 33 34
31 31 31 31 31 31 33 34 33 33 34 34 34 33 33 33 33 32 31 31 32 32 31 29 30 28 31 30 30 32 33 34 34 33 33 34 34 34 33 33 33 33 33 33
29 29 30 30 30 30 31 32 33 33 33 33 33 33 33 33 32 31 30 30 31 29 25 24 25 27 30 26 28 28 26 30 32 31 31 32 32 32 32 32 32 32 32 33
31 31 30 30 30 30 31 33 34 34 33 32 32 32 30 30 28 27 24 24 29 28 26 22 25 28 25 24 28 25 25 27 26 28 30 30 31 32 31 31 31 31 32 33
32 31 31 31 32 32 33 33 33 32 32 31 30 29 29 29 28 26 24 23 26 26 25 22 24 25 25 24 28 23 23 23 23 23 24 25 26 28 29 30 30 31 31 31
31 31 31 30 30 30 31 31 31 30 29 28 26 27 25 22 22 22 21 19 22 26 24 23 23 20 23 24 27 23 22 22 22 22 22 23 22 23 23 23 24 25 25 27
30 30 30 29 29 29 28 25 22 25 27 23 19 20 18 20 23 26 27 26 26 28 28 24 23 21 21 25 26 22 21 21 21 21 21 21 21 21 21 21 22 22 22 23
29 29 29 29 28 28 29 28 26 22 20 22 23 25 26 27 27 26 24 22 22 26 24 22 22 22 24 25 23 20 20 20 20 21 20 20 21 21 22 22 22 21 22 23
28 29 29 29 29 29 29 29 28 28 27 25 24 25 27 27 22 18 15 16 21 23 24 23 23 23 24 23 20 19 19 19 19 20 19 18 19 21 20 19 21 21 21 20
28 28 28 28 29 30 29 29 29 28 28 28 27 27 27 26 26 26 25 24 23 24 24 23 22 22 22 21 19 18 17 18 18 18 17 19 18 17 17 18 17 17 17 17
28 27 27 27 28 28 29 29 29 29 29 28 28 28 28 27 26 24 18 18 23 24 23 22 21 21 20 18 17 17 17 18 17 17 17 16 16 16 16 16 15 15 16 17
27 27 27 27 28 28 28 28 28 28 28 28 27 26 24 20 20 22 22 21 20 21 20 21 19 16 17 18 17 18 18 17 17 16 16 16 16 16 15 15 15 15 15 15
25 25 24 23 23 25 26 27 26 26 26 26 26 25 24 21 18 18 19 19 19 19 19 19 17 16 16 17 18 18 17 16 16 16 16 15 14 13 14 14 14 14 14 14

GFSNGP_sfc_30mbdewp_111.txt.gz
Dewpoint
29 30 30 29 30 30 28 28 22 25 25 28 29 30 30 31 32 34 37 38 40 41 42 43 43 43 43 45 46 47 47 46 45 44 42 41 41 40 40 40 39 39 38 38
24 29 27 26 29 30 30 29 29 28 27 30 30 32 32 33 31 33 36 38 39 40 41 42 42 43 43 43 43 44 44 43 41 40 40 39 39 38 38 38 38 38 38 38
20 23 26 20 24 29 29 31 29 27 29 30 31 32 33 33 34 34 35 35 37 39 39 42 42 42 42 42 42 42 41 40 39 39 38 38 38 38 37 37 37 37 37 37
20 18 15 21 30 28 30 31 29 30 31 31 32 34 35 35 35 35 35 36 37 39 40 40 42 42 41 41 41 41 40 39 38 38 37 37 37 37 36 36 37 37 37 37
19 18 20 26 28 31 29 31 34 31 29 31 32 32 33 36 36 36 36 38 39 40 40 41 41 41 40 40 40 39 39 38 38 38 37 37 36 36 36 36 36 36 37 37
23 17 17 25 27 29 31 29 34 30 30 31 30 26 30 36 36 36 37 38 39 40 41 41 41 41 40 39 39 39 38 38 38 37 37 36 36 36 36 36 36 37 37 37
23 21 21 24 28 31 19 25 37 32 33 33 31 32 35 35 35 36 36 37 38 39 39 40 41 40 40 39 39 39 39 38 38 38 37 37 36 36 36 36 36 36 36 36
22 21 19 30 30 25 27 32 37 35 34 35 35 36 35 35 35 35 35 36 37 37 38 39 40 40 39 39 39 39 39 38 38 38 37 36 36 36 36 35 35 35 36 35
22 22 28 34 34 35 36 35 37 37 36 36 36 35 36 36 36 35 35 35 35 36 37 38 39 40 39 38 39 39 38 38 38 37 37 36 36 36 35 35 35 35 35 35
27 30 31 32 34 36 37 37 38 39 38 37 36 36 37 36 35 36 36 35 35 35 35 35 36 37 38 39 39 38 38 37 37 37 37 36 36 36 35 35 35 35 35 34
27 30 31 32 34 35 36 36 36 37 39 39 37 37 37 36 36 36 35 35 35 35 34 34 34 34 35 35 38 38 38 38 37 37 37 36 36 36 36 36 36 36 35 35
25 29 29 30 35 34 34 34 36 37 37 38 40 40 38 36 36 33 32 32 34 34 34 34 33 33 33 34 34 35 36 37 37 37 37 37 36 36 37 37 37 37 36 35
31 32 33 34 33 34 34 34 35 36 37 37 37 38 37 35 33 33 32 32 32 32 34 33 32 31 33 34 34 34 33 34 34 34 35 36 36 36 35 36 38 38 38 38
32 31 31 33 32 34 35 35 35 35 35 36 36 37 36 35 34 33 32 32 32 33 33 33 31 30 32 33 33 33 34 34 33 33 33 33 33 33 34 34 34 34 36 37
31 30 30 32 32 33 33 34 34 33 34 34 34 34 35 35 33 32 32 32 32 32 31 32 31 29 31 31 31 32 33 34 34 34 34 34 34 34 34 34 34 34 34 34
31 31 31 31 31 31 32 32 33 33 34 34 34 33 34 33 32 31 30 31 31 31 31 30 29 28 31 29 29 31 29 32 33 32 32 32 33 33 33 33 33 33 33 33
29 29 29 29 30 30 31 31 32 33 33 33 33 34 34 33 33 31 30 31 32 31 26 24 24 27 28 25 27 27 25 27 30 30 31 31 31 31 32 32 32 32 32 33
29 29 30 29 29 30 31 33 34 34 34 33 33 33 31 30 30 28 24 23 26 29 27 23 23 28 25 23 27 25 23 24 24 24 26 26 30 31 31 31 31 31 31 32
31 30 30 31 32 31 32 33 33 33 33 32 31 30 29 29 28 27 24 21 22 25 26 23 23 23 25 25 28 26 23 22 22 22 22 24 23 24 25 26 27 27 28 30
31 30 31 31 30 30 31 32 32 31 31 30 29 28 27 25 23 22 22 19 20 21 25 23 23 21 21 23 25 25 22 21 21 21 21 22 21 22 22 22 22 22 23 25
30 30 29 29 29 29 28 27 25 25 28 26 24 22 23 19 21 22 26 26 26 27 27 27 24 22 21 23 26 24 21 20 20 20 20 20 20 21 21 21 22 21 21 23
29 29 29 28 28 28 28 28 26 25 21 22 22 21 22 25 26 27 27 26 22 24 25 25 22 22 22 25 24 22 20 19 19 19 20 19 19 19 21 22 22 22 22 22
29 29 28 28 27 27 29 29 28 28 27 25 23 22 24 26 27 24 19 18 19 21 23 23 23 24 24 24 22 21 20 20 19 19 20 19 18 20 20 18 19 20 20 19
28 28 28 28 28 29 27 28 29 29 29 28 28 27 27 26 27 26 25 24 27 25 24 24 24 23 23 24 22 20 18 18 18 18 17 18 18 18 17 17 17 17 17 17
28 27 27 27 27 28 28 28 28 29 29 29 29 28 28 28 28 27 26 21 21 23 24 26 24 23 22 21 21 19 18 18 18 17 18 17 16 16 16 16 16 16 17 17
27 27 27 27 28 28 28 28 27 27 27 28 28 28 27 26 25 24 23 22 21 21 23 21 21 21 19 17 17 17 17 18 18 17 17 17 16 16 15 15 15 15 15 15
25 26 25 25 24 25 25 25 26 26 27 27 26 26 26 25 23 21 19 19 19 20 21 21 20 20 18 17 17 17 18 18 18 17 16 16 15 13 13 14 14 14 14 14

GFSNGP_sfc_30mbdewp_114.txt.gz
Dewpoint
29 29 29 30 29 28 28 26 25 25 26 28 30 31 31 32 34 37 38 38 40 41 42 43 43 44 47 49 50 51 51 51 50 49 48 48 47 46 45 44 43 42 41 40
26 25 26 26 28 28 28 27 27 27 28 30 32 32 32 33 33 34 35 36 39 39 42 42 43 43 44 46 47 48 48 47 46 44 44 44 43 42 42 41 40 40 39 40
23 24 25 23 27 29 29 29 29 27 29 31 31 32 33 34 34 34 35 36 37 39 40 42 43 43 43 43 44 44 44 43 43 42 41 41 40 40 40 39 39 39 39 40
20 19 16 25 30 30 31 32 31 31 30 31 32 34 35 36 35 35 35 37 38 39 40 41 42 42 42 43 42 42 41 41 40 40 40 39 39 39 39 39 39 39 39 39
19 19 23 26 29 32 30 31 33 29 30 31 33 33 34 36 36 36 37 38 39 40 41 41 42 42 42 42 42 41 40 40 40 39 39 38 39 39 39 39 39 39 39 38
22 18 17 24 27 31 31 28 34 31 31 31 30 26 32 36 36 36 37 39 39 40 41 41 42 41 41 41 41 41 40 40 39 39 39 38 39 39 39 39 39 39 39 39
22 20 21 25 28 31 20 27 36 33 34 33 31 34 36 36 36 36 36 38 39 40 40 41 42 41 41 40 40 40 40 40 39 39 39 39 39 38 38 39 38 38 38 38
23 21 19 30 30 24 30 35 37 35 35 35 36 36 36 37 36 36 36 36 38 39 39 40 41 41 41 40 41 40 40 39 39 39 38 38 38 38 38 38 38 37 37 37
22 22 30 34 34 36 35 36 38 38 37 36 36 36 36 37 36 36 36 36 36 37 37 37 38 39 39 39 40 40 39 39 39 38 38 37 37 37 36 37 36 36 36 36
27 29 32 33 35 37 37 37 38 39 38 37 36 37 37 36 36 36 36 36 36 36 35 35 35 35 36 38 39 39 38 38 38 38 37 37 37 37 37 36 36 37 36 36
27 30 31 33 34 36 36 37 37 38 40 38 37 38 37 37 36 35 35 35 35 35 34 34 34 34 34 35 38 39 39 39 38 38 38 37 36 37 37 37 37 37 37 37
24 29 28 30 34 35 34 35 36 37 37 38 40 39 39 37 36 33 32 33 34 34 34 33 33 33 34 34 35 35 35 36 37 37 38 38 37 37 38 38 38 38 38 37
29 31 33 34 34 34 34 35 36 36 37 37 38 39 37 36 34 33 32 32 33 33 34 33 32 32 33 33 33 34 34 35 34 34 34 36 36 36 36 37 39 39 38 38
32 33 33 33 32 34 35 35 36 36 36 36 37 37 37 35 35 33 33 32 33 33 33 33 32 31 33 33 32 33 33 34 34 34 34 34 34 34 35 35 35 35 37 38
32 30 32 33 33 34 34 34 34 34 34 34 35 35 36 35 34 33 32 32 32 32 32 32 31 29 31 31 31 32 32 33 34 34 34 35 35 34 34 34 34 34 35 35
31 31 32 31 32 32 33 33 33 33 34 34 34 34 34 34 33 32 31 31 32 32 32 30 30 28 30 29 29 30 29 28 31 32 32 32 32 32 33 33 33 33 33 34
30 30 30 30 31 30 30 31 31 32 33 33 33 34 34 34 33 32 31 31 32 31 28 25 24 26 27 25 27 27 25 25 26 25 26 29 31 31 31 31 31 32 32 33
30 30 30 29 30 30 30 31 33 33 33 34 34 34 32 32 32 31 29 23 23 28 28 26 22 26 25 23 25 25 23 23 23 23 23 23 26 27 29 30 30 30 31 32
30 30 30 30 30 30 30 31 33 33 34 33 32 31 30 30 29 28 26 23 21 22 24 27 22 23 21 24 26 27 24 22 22 22 22 23 22 22 23 24 24 25 26 27
30 31 31 31 31 31 31 32 32 32 32 31 30 29 28 28 26 23 23 21 20 20 25 25 22 22 21 21 24 25 23 20 19 19 20 20 20 20 21 21 21 21 21 22
31 31 31 30 29 29 29 30 29 29 30 29 27 26 24 24 21 22 22 24 28 28 28 27 26 25 21 20 24 26 23 20 18 18 19 19 18 19 20 20 21 21 20 20
31 30 30 30 29 29 29 28 27 26 25 23 25 23 21 21 23 25 27 28 28 25 24 25 26 24 22 22 26 25 22 19 18 18 19 19 19 18 19 20 21 21 21 22
30 30 30 29 29 29 29 29 29 28 28 27 25 22 22 23 26 26 26 23 22 20 22 23 24 25 24 23 25 23 22 20 19 19 20 21 20 20 20 20 19 19 20 19
30 30 30 29 29 28 28 29 29 30 29 29 28 28 27 27 27 27 27 28 28 26 27 24 24 25 25 24 25 24 22 19 19 20 19 19 19 20 19 18 18 18 18 18
29 29 28 28 28 28 29 28 28 28 29 29 30 30 29 29 29 29 29 29 28 24 23 24 26 26 25 24 24 23 21 20 20 20 19 19 19 18 17 17 17 17 17 18
28 28 28 28 28 28 28 28 27 27 28 28 28 29 29 29 28 29 28 27 24 23 23 23 24 24 23 22 21 19 17 18 19 19 19 18 18 18 17 17 16 16 16 17
27 27 27 26 26 26 27 27 26 26 27 28 27 27 26 26 26 25 23 21 20 21 21 21 22 22 22 20 19 18 18 18 19 19 18 18 18 17 16 15 16 16 16 16

GFSNGP_sfc_30mbdewp_117.txt.gz
Dewpoint
26 28 27 27 27 26 26 26 26 27 27 29 30 31 32 33 34 35 37 40 43 44 43 43 45 49 50 51 52 54 54 54 53 53 53 51 51 51 51 51 49 46 44 43
24 25 26 27 28 28 28 27 27 27 28 31 32 32 32 32 33 34 35 37 39 41 44 43 43 44 47 49 50 51 51 50 49 49 49 48 47 46 45 44 43 42 42 41
23 24 23 22 29 29 29 30 28 27 29 30 31 33 33 33 33 34 35 37 38 39 41 42 43 43 43 45 47 47 47 46 46 46 46 45 45 44 44 42 42 41 41 41
20 19 16 26 31 32 31 31 29 29 29 30 32 34 35 35 34 35 36 38 39 39 41 41 42 42 43 43 43 44 44 45 45 44 44 43 42 42 41 41 41 41 41 42
19 19 23 26 29 32 33 30 29 29 29 29 32 33 35 36 36 36 38 39 40 40 41 42 42 42 42 42 43 42 41 41 41 41 41 40 41 41 41 41 41 40 40 41
21 18 16 23 28 31 31 28 32 31 31 30 29 28 33 36 36 36 38 39 40 41 41 42 42 42 41 41 41 41 41 40 41 41 41 41 41 41 41 41 40 40 40 40
20 19 22 25 29 31 23 30 34 33 33 32 33 34 36 37 37 37 37 38 40 41 41 42 42 42 41 41 41 41 41 40 40 40 40 40 40 40 40 40 39 40 39 39
20 18 19 30 30 26 33 37 35 35 35 35 36 36 37 37 37 37 36 36 39 39 39 39 41 41 41 40 41 41 40 40 40 40 39 40 40 39 40 39 39 38 38 37
22 23 31 34 34 35 34 35 37 36 37 36 36 36 37 36 36 36 36 36 36 37 37 36 37 38 38 39 40 40 40 40 40 39 39 39 38 38 38 38 38 37 37 37
26 29 32 34 36 37 37 37 38 39 38 38 36 37 37 36 36 36 36 36 36 36 35 35 35 35 35 37 40 39 38 38 38 38 38 37 38 38 37 37 37 37 37 37
26 29 31 33 34 36 37 37 37 38 40 38 37 37 37 37 36 35 35 35 35 34 34 34 34 34 35 35 36 38 39 39 39 39 39 38 37 38 37 38 38 37 38 38
19 26 27 28 33 36 36 35 36 37 38 39 39 38 39 38 36 34 33 34 34 34 34 33 33 33 33 34 34 35 35 35 36 37 38 38 38 38 39 40 40 40 39 39
26 29 30 32 34 34 34 35 35 35 37 37 38 39 39 37 35 33 33 33 33 34 34 33 33 33 33 33 33 34 34 34 34 34 34 34 36 36 36 37 40 40 40 40
31 33 33 34 33 34 34 35 36 35 36 36 37 37 38 37 35 33 33 33 33 34 34 33 32 32 33 32 33 33 33 34 34 34 34 34 34 34 35 35 35 36 39 40
32 31 32 34 34 34 35 35 34 34 34 35 35 36 36 36 35 34 33 33 33 33 32 32 32 30 31 32 31 31 31 32 32 34 33 34 34 34 34 34 34 34 35 35
32 31 33 33 33 33 33 33 33 32 33 33 34 34 34 34 35 34 33 32 32 33 33 31 29 28 27 28 25 27 27 26 28 31 30 32 32 32 32 32 33 33 33 34
31 31 31 31 32 31 31 31 31 32 33 34 33 34 34 34 34 33 32 32 32 32 31 29 26 25 25 24 24 25 24 23 25 23 24 25 26 30 31 31 31 31 32 33
32 32 31 30 30 29 29 30 31 31 32 34 34 35 34 34 33 33 32 29 24 23 27 27 26 23 24 23 22 24 23 23 22 22 22 22 23 25 25 26 28 29 30 31
31 31 30 29 29 29 30 30 32 33 34 34 34 33 32 31 31 30 29 27 25 22 22 25 26 22 20 21 25 25 25 23 21 20 21 22 23 22 23 23 23 23 24 25
30 30 30 30 30 30 30 31 32 32 32 32 31 30 30 30 29 28 25 24 23 21 24 26 24 22 20 22 23 24 24 22 20 18 19 20 20 19 20 21 21 21 21 21
31 31 31 30 30 30 30 30 30 30 31 30 30 29 28 27 26 23 23 22 24 29 29 28 27 25 27 22 21 23 25 23 20 18 18 18 18 18 19 20 20 21 21 21
32 32 31 31 30 29 29 28 28 28 27 26 26 27 26 24 22 22 23 23 27 29 26 26 27 27 27 23 22 24 26 23 19 18 19 19 20 20 20 20 21 21 21 22
32 32 31 31 30 30 30 30 29 29 28 28 27 26 24 23 23 26 26 28 29 26 24 23 24 25 26 25 24 25 25 23 21 19 19 21 22 22 21 21 21 20 20 21
31 31 31 31 31 30 28 30 30 30 30 30 29 29 28 27 27 27 28 28 28 28 27 26 26 25 26 26 24 25 25 24 22 21 21 21 21 21 21 20 19 19 20 19
31 31 31 30 29 28 29 30 30 29 29 30 30 30 30 30 30 30 30 30 30 31 30 25 24 26 26 26 25 25 24 24 23 22 21 21 21 21 20 19 19 19 19 19
30 30 29 29 29 28 28 28 28 27 27 27 28 29 30 30 30 30 30 30 29 28 27 26 25 24 26 26 24 24 23 21 19 19 20 21 20 20 19 19 18 18 17 18
29 29 29 28 28 28 28 28 28 27 27 27 27 27 28 28 27 27 26 25 23 23 23 23 23 23 24 22 21 20 19 19 19 20 20 20 20 19 19 18 17 17 17 17

GFSNGP_sfc_30mbdewp_123.txt.gz
Dewpoint
30 29 32 33 32 33 31 31 27 29 29 32 33 34 36 38 39 40 41 42 43 44 46 48 49 50 51 51 53 54 54 54 54 55 56 56 56 56 57 58 57 58 57 57
24 27 29 31 31 31 32 29 29 31 30 34 34 35 35 37 38 39 40 42 43 43 44 45 46 47 48 48 49 51 50 50 51 52 52 52 52 52 51 50 50 51 51 51
21 24 22 23 32 28 28 28 28 27 31 34 34 34 35 37 38 38 40 41 42 43 44 44 44 46 46 46 46 47 47 47 48 48 48 48 48 49 49 49 48 47 46 45
21 20 17 27 33 31 30 30 30 31 33 34 35 35 36 36 38 38 39 40 41 41 41 42 43 42 42 43 44 46 46 46 46 45 45 45 45 45 45 46 46 46 46 45
18 21 25 28 30 30 30 30 32 31 32 34 35 35 36 36 37 39 40 41 41 42 42 42 42 42 41 41 41 41 41 42 44 44 43 43 43 43 42 42 43 43 44 43
21 19 19 26 29 31 31 27 33 33 32 33 33 30 34 36 36 38 39 39 39 40 40 41 41 41 41 40 41 40 41 41 42 43 43 43 42 42 41 41 41 41 42 43
21 19 22 27 29 30 24 28 34 34 35 35 34 35 36 37 36 37 38 38 38 38 38 39 40 40 39 40 40 41 41 41 40 42 42 42 41 42 40 40 40 39 40 40
20 19 15 30 30 28 32 35 35 35 36 36 37 36 36 36 36 36 36 37 36 36 36 37 38 39 39 39 40 41 40 40 39 40 40 39 39 40 40 39 39 39 39 39
22 21 31 34 33 36 36 36 36 36 36 37 37 36 36 36 36 36 36 35 35 35 35 35 35 36 37 39 39 39 38 38 38 38 39 39 38 38 38 38 38 37 37 37
24 28 32 35 36 37 38 38 38 38 38 37 37 36 36 36 35 35 35 35 34 34 33 33 34 34 34 35 38 38 38 38 39 39 38 38 38 38 37 37 37 37 37 37
26 30 33 34 36 37 38 39 39 39 38 38 37 37 37 36 35 35 34 34 34 33 33 33 34 34 33 34 34 35 35 35 35 36 37 38 38 39 39 39 40 38 38 38
20 30 29 31 36 37 37 37 38 39 39 39 39 38 37 36 35 34 34 34 33 33 33 33 34 34 34 33 33 34 34 33 34 34 34 34 35 35 37 38 39 40 41 40
25 29 31 32 36 37 36 37 37 38 38 38 38 39 37 35 33 34 34 34 35 34 33 33 33 33 33 32 33 33 33 33 33 33 33 33 33 33 33 34 35 36 38 39
32 32 33 35 35 36 35 35 36 36 37 37 37 38 38 35 35 33 33 33 34 34 34 33 32 31 32 32 31 31 32 32 32 31 32 31 31 31 32 32 32 33 35 36
32 32 33 34 35 35 35 36 35 34 34 35 36 36 36 36 35 33 33 33 33 33 32 32 32 31 30 31 29 28 30 29 28 28 29 29 28 29 30 31 31 32 33 33
32 33 34 33 34 34 35 34 34 34 34 34 34 34 34 34 34 33 32 32 32 32 32 31 30 29 27 28 25 25 26 25 25 25 24 24 26 25 27 28 27 27 29 31
31 32 33 33 34 34 34 34 33 33 33 33 34 34 34 33 33 33 32 32 32 32 31 30 30 27 26 26 23 24 25 23 24 22 22 22 22 22 25 24 24 26 27 30
32 32 33 33 34 34 33 33 32 33 33 33 34 34 33 33 32 33 33 32 29 27 25 24 27 26 25 24 22 22 24 23 24 22 22 21 21 22 23 22 23 23 23 24
32 32 33 33 34 33 32 31 31 32 32 33 33 32 32 32 31 31 30 29 28 27 26 24 25 27 24 22 23 23 23 25 24 22 21 22 22 21 22 21 21 22 21 22
32 32 32 32 32 31 31 31 32 32 33 33 32 31 31 30 30 30 29 28 27 26 24 24 26 25 24 22 22 23 24 22 23 23 21 19 20 20 20 20 21 21 21 21
32 31 30 30 30 30 31 32 32 31 32 32 31 30 29 29 28 27 26 25 25 24 25 26 25 25 26 25 25 25 22 20 22 24 22 19 19 19 19 19 19 20 21 22
31 30 30 30 30 30 31 31 30 30 30 30 29 28 27 27 27 26 25 24 24 25 28 28 27 26 26 27 27 25 22 21 23 25 22 19 19 19 19 20 20 20 21 21
30 30 30 29 29 28 29 28 28 27 26 26 26 26 26 26 26 26 25 25 25 26 27 27 28 29 28 27 26 26 24 22 22 24 23 21 20 19 19 20 20 20 20 20
30 30 30 29 28 28 27 28 27 27 27 27 27 27 27 27 27 26 26 27 28 28 28 27 26 27 29 30 29 27 25 24 23 23 23 23 20 19 19 20 19 20 19 19
30 30 29 29 28 27 27 27 28 28 28 28 28 28 29 28 28 28 28 28 29 30 29 30 31 31 30 30 30 28 25 24 23 22 22 21 20 20 19 19 19 19 19 18
30 30 29 29 28 27 27 28 26 27 27 26 26 27 27 28 28 29 29 29 29 29 29 29 28 28 27 26 25 24 24 24 25 24 23 21 20 19 19 19 19 18 18 18
29 30 29 29 28 28 27 27 26 25 27 27 26 26 26 26 26 28 28 27 27 26 25 25 24 24 24 23 23 23 24 22 22 21 19 17 17 18 18 18 18 18 17 17

GFSNGP_sfc_30mbdewp_126.txt.gz
Dewpoint
33 32 31 30 30 29 28 30 25 28 28 32 33 34 36 37 38 39 41 42 43 45 47 48 49 49 50 51 53 56 54 54 55 56 56 56 57 58 58 58 59 59 58 58
27 30 29 29 30 28 28 28 28 29 30 34 35 36 35 36 38 39 40 41 42 43 44 45 47 47 48 48 49 50 50 50 51 52 52 52 53 53 54 55 55 56 57 56
20 23 21 23 31 29 29 30 29 28 31 34 34 34 35 36 38 38 40 40 41 42 43 43 44 45 46 47 47 47 47 47 48 48 48 48 49 49 49 49 49 49 49 50
20 20 14 24 33 31 30 31 31 31 33 34 35 35 36 37 38 38 39 39 40 41 41 41 41 41 42 43 44 45 45 45 45 45 46 45 45 45 45 46 46 46 46 46
19 22 24 27 30 29 29 29 33 31 32 34 35 34 35 36 37 38 39 39 39 40 41 40 40 41 40 40 41 42 42 43 43 43 43 43 43 43 43 43 43 44 44 44
21 19 18 24 29 31 31 23 33 32 33 32 32 30 34 36 37 38 38 38 38 38 39 39 39 40 40 40 40 40 40 41 43 43 43 42 42 41 41 41 41 42 43 43
21 19 21 26 30 30 23 23 34 34 35 34 33 35 36 36 36 37 37 37 37 37 38 38 39 39 39 39 40 40 40 40 40 40 41 41 41 41 40 40 39 39 39 40
20 18 10 29 29 26 29 35 35 35 36 36 36 36 36 36 36 35 35 35 35 35 35 36 37 39 38 38 39 39 39 39 38 39 39 38 38 38 38 39 39 39 39 39
19 18 28 33 31 35 35 35 36 35 37 37 36 36 36 35 35 35 35 34 34 34 33 34 34 35 36 38 39 39 38 38 38 37 38 38 37 37 37 37 37 37 37 37
23 25 31 34 36 36 37 36 37 37 37 37 36 36 36 35 35 35 35 33 33 33 33 33 33 33 33 34 36 35 35 35 36 38 38 38 38 38 37 37 37 37 36 36
25 29 32 34 35 37 38 38 38 38 37 37 37 36 36 35 35 34 34 34 33 33 33 34 34 33 33 34 34 34 33 34 34 34 34 35 36 38 39 39 39 39 39 39
13 27 28 30 35 38 38 38 38 38 38 38 38 37 37 36 35 34 34 34 33 33 33 33 33 33 32 33 33 33 33 33 34 33 32 33 33 33 34 36 36 37 39 40
20 29 30 31 36 38 37 38 39 38 38 38 39 38 37 36 34 34 34 34 34 34 34 33 33 33 32 31 31 31 31 32 31 31 31 31 30 31 30 32 34 35 36 36
30 33 32 34 35 37 37 37 38 38 38 38 39 38 37 36 34 33 33 34 34 34 34 33 33 32 31 31 30 30 30 31 30 29 30 29 29 28 29 29 29 31 33 34
31 31 31 34 36 36 36 36 36 36 36 36 37 37 37 35 34 33 33 33 33 33 33 32 32 32 31 29 29 26 27 28 25 25 27 28 26 27 27 27 27 26 28 29
32 32 34 35 36 35 35 35 34 34 34 34 35 36 36 35 34 33 33 33 32 32 32 32 32 31 30 28 27 24 26 26 25 24 22 22 23 22 23 26 25 26 25 26
31 31 33 33 34 34 34 35 34 34 34 34 34 34 34 34 33 32 32 32 32 32 32 31 31 30 27 26 25 23 24 24 24 22 22 22 22 21 22 23 22 23 23 25
32 32 33 33 34 34 34 34 34 34 33 33 33 33 33 32 32 32 32 32 31 29 27 26 25 27 26 25 24 22 23 23 23 23 22 21 21 22 23 22 22 21 22 22
32 32 33 33 34 34 34 34 33 32 33 33 33 33 32 32 31 31 30 29 28 28 28 26 25 27 26 24 25 23 22 23 24 24 22 22 21 20 20 21 20 21 21 21
32 32 33 33 34 34 33 33 32 32 32 32 32 31 31 31 31 30 29 28 28 28 26 24 25 26 26 24 25 23 22 23 23 22 23 22 20 20 20 20 21 20 20 20
32 32 32 33 33 33 32 31 31 31 32 32 31 30 30 29 29 29 28 26 27 26 25 25 25 24 24 25 26 24 23 23 22 20 21 22 21 19 19 19 19 19 20 21
32 31 31 32 32 31 31 31 31 31 31 31 30 29 28 28 27 26 26 26 27 26 26 26 27 28 27 27 27 26 25 23 21 21 23 23 22 20 19 19 19 20 20 20
31 30 30 30 30 30 30 31 30 30 30 29 29 27 27 26 26 26 25 26 25 25 26 26 26 28 30 30 27 27 26 26 25 23 22 22 23 21 20 19 19 19 20 19
30 30 30 30 29 29 29 29 28 28 27 27 26 26 26 26 26 26 26 28 28 29 28 28 28 29 29 28 28 28 28 27 26 25 23 24 23 21 19 19 19 19 19 19
29 29 29 28 28 28 27 27 26 26 27 26 27 27 27 27 28 27 27 27 29 30 29 30 31 31 29 29 30 29 28 28 27 25 23 22 22 20 20 19 18 18 18 18
29 29 29 28 28 28 27 27 27 27 27 27 27 27 27 27 27 28 28 28 28 29 28 28 28 28 27 27 26 25 25 24 25 25 25 23 21 20 19 18 18 18 18 17
29 30 29 28 28 28 27 27 26 25 27 26 25 26 26 26 25 26 27 27 26 25 25 24 23 23 22 22 22 22 23 23 24 22 21 20 18 17 17 18 18 18 17 16

GFSNGP_sfc_30mbdewp_132.txt.gz
Dewpoint
31 32 30 29 28 28 27 28 24 26 29 31 33 34 33 35 36 36 37 39 40 41 42 44 46 48 49 49 50 51 52 51 50 54 57 57 56 58 58 59 59 59 58 59
27 30 28 26 28 29 29 29 28 29 30 33 34 36 35 35 35 35 36 37 39 40 41 41 43 45 46 47 48 49 49 49 50 50 50 51 51 51 52 52 53 54 57 57
22 24 22 19 26 29 29 30 30 26 30 34 34 35 35 35 36 35 36 37 37 38 39 40 41 42 43 44 45 45 45 46 45 46 46 48 48 49 49 49 49 50 49 49
21 19 11 19 32 31 31 31 32 31 32 33 34 35 35 36 36 36 36 37 37 38 39 39 39 40 41 42 42 43 43 43 44 43 43 43 43 44 44 46 46 46 46 46
18 19 18 24 28 30 29 26 32 30 32 33 34 34 34 35 36 36 36 36 37 38 38 38 38 38 38 39 39 39 39 40 41 41 41 41 41 42 43 43 43 43 43 44
21 17 7 18 29 31 30 23 32 32 32 32 33 28 32 35 35 35 36 36 36 37 37 38 38 38 38 38 38 37 38 38 39 39 39 39 39 39 40 40 40 41 41 42
20 20 18 22 30 30 20 15 32 33 33 33 31 32 34 35 34 34 34 34 33 33 34 35 38 38 37 37 36 38 37 37 37 37 37 37 37 37 38 38 38 38 39 39
20 18 4 27 30 25 23 33 33 34 33 33 34 35 35 34 34 33 32 33 33 33 33 33 34 34 34 34 35 36 37 37 37 37 37 37 36 37 37 37 36 36 36 37
20 14 19 29 28 30 33 34 34 34 34 34 34 34 34 34 34 33 32 33 33 33 33 33 33 33 33 33 33 33 33 34 35 35 36 38 37 37 37 37 37 37 37 37
21 20 22 27 31 33 35 34 35 35 36 36 34 35 34 34 33 33 33 33 33 33 33 32 32 32 32 33 33 32 32 32 32 33 32 34 35 36 35 34 36 37 36 36
22 22 25 27 30 33 35 35 35 36 36 36 35 35 35 34 33 33 33 33 33 33 33 32 32 31 31 31 31 30 30 30 29 30 31 32 32 33 33 35 36 36 36 36
1 15 18 17 28 34 35 36 36 36 36 37 36 35 35 35 34 33 33 33 33 33 32 32 32 31 30 30 30 30 29 29 29 28 27 28 27 25 29 32 33 34 34 35
12 17 26 28 31 35 36 36 36 37 37 37 37 36 36 35 34 34 33 33 33 33 33 32 32 31 30 29 29 29 29 28 26 27 26 25 23 23 21 24 29 28 29 30
26 30 27 30 26 34 36 37 38 37 37 37 38 37 37 36 35 34 33 33 33 33 33 32 32 31 30 29 27 25 27 27 23 24 25 24 24 23 24 24 22 22 26 27
24 29 28 31 32 34 37 37 37 36 37 37 38 38 37 36 36 35 33 32 33 33 33 32 32 31 31 29 27 24 24 25 24 22 23 23 23 22 22 23 21 21 22 23
24 27 30 31 30 33 36 36 36 36 36 36 36 36 37 36 35 34 32 32 32 32 32 32 32 31 31 29 27 25 23 25 25 22 21 21 21 19 20 21 21 20 20 21
23 24 28 29 31 32 34 36 36 36 35 35 35 35 35 35 34 34 33 32 32 33 32 32 31 31 31 29 27 25 23 22 24 22 21 21 21 20 20 22 21 21 20 22
25 28 28 30 30 32 33 35 36 35 35 35 34 34 34 33 32 32 32 32 32 31 31 31 30 30 27 27 27 25 23 21 21 21 22 23 21 21 22 22 20 20 20 21
26 28 30 31 32 32 33 34 35 35 34 34 33 33 33 32 32 32 31 31 31 30 31 30 29 29 28 27 27 25 23 22 22 22 23 24 22 21 20 20 20 20 20 20
25 29 31 32 32 33 33 34 35 34 34 33 33 32 32 32 31 31 30 30 30 30 29 28 27 25 25 26 28 26 24 23 22 21 22 22 22 21 22 22 21 20 19 19
27 28 30 31 32 32 33 34 34 34 33 33 32 32 32 31 31 30 29 29 29 29 29 29 28 27 25 25 27 25 24 24 23 22 22 21 20 20 20 21 21 20 19 19
27 28 28 29 30 31 32 33 33 33 32 32 32 31 30 30 30 29 29 29 28 29 28 27 26 26 26 27 26 25 25 24 24 23 23 22 22 22 21 21 21 21 20 19
25 28 30 30 30 31 31 31 32 32 32 31 31 30 30 29 29 28 27 28 28 27 28 27 27 27 29 30 28 27 26 27 26 25 26 26 25 24 23 22 21 21 20 19
25 26 28 30 30 30 30 30 31 31 31 30 30 30 29 28 28 27 27 28 28 27 27 27 28 30 30 30 29 28 28 27 27 27 27 28 26 24 22 21 21 21 19 19
25 26 27 29 29 29 30 30 29 29 30 29 29 29 29 28 27 26 26 26 28 29 29 29 31 31 31 31 30 29 28 29 28 27 27 26 25 23 22 21 20 19 18 17
25 26 26 27 29 30 30 29 29 29 29 28 28 28 27 27 26 27 27 28 28 29 29 29 29 29 28 28 28 27 26 25 25 25 25 24 24 23 22 20 18 17 17 17
25 28 28 28 29 29 29 29 29 29 29 27 27 27 27 27 27 28 29 28 28 28 27 27 26 26 25 24 23 22 22 21 23 23 24 22 20 19 17 16 16 16 16 15

GFSNGP_sfc_30mbdewp_135.txt.gz
Dewpoint
30 31 31 29 28 28 27 27 25 25 28 30 34 35 35 36 37 36 37 37 38 39 40 42 43 44 45 46 47 50 49 49 51 50 52 51 55 55 56 55 58 59 59 59
26 28 29 27 27 28 28 28 28 28 28 33 34 36 35 36 36 35 36 36 37 38 39 39 41 43 43 44 45 46 45 46 50 50 51 51 52 57 54 55 55 55 56 56
22 23 23 18 21 26 28 30 30 23 28 32 32 35 35 35 35 35 35 36 36 37 38 38 39 40 41 42 42 43 43 44 45 45 45 45 46 47 48 48 49 48 48 48
21 19 12 14 30 31 30 31 32 31 31 32 33 35 35 36 35 35 35 35 36 37 38 38 38 38 38 39 39 39 39 40 41 42 42 43 44 44 44 44 44 44 44 44
19 19 17 21 24 29 29 25 32 31 31 32 34 33 33 35 35 35 35 35 36 36 37 38 38 38 38 37 37 37 37 38 38 39 39 40 40 41 42 43 42 43 43 44
21 17 7 15 29 31 30 21 32 32 31 32 33 25 31 35 34 33 33 33 33 33 34 35 36 38 38 37 37 37 37 37 37 37 37 38 38 39 39 40 40 40 40 41
21 19 18 20 30 30 19 13 32 32 32 33 29 29 33 35 33 33 33 33 33 33 33 33 34 34 34 35 35 37 37 38 37 37 37 37 37 37 37 37 37 37 37 37
20 19 6 27 30 25 23 32 32 33 32 32 33 34 34 34 33 32 33 33 33 32 32 33 33 33 32 33 33 34 35 35 36 37 37 37 38 38 38 38 37 37 38 38
20 16 18 29 28 30 31 32 32 32 33 33 34 34 34 33 33 32 33 33 33 33 32 32 32 32 32 32 32 32 32 33 33 34 35 35 35 35 35 36 36 36 36 36
20 15 21 23 29 31 33 34 33 34 34 34 33 34 34 33 33 33 32 33 33 32 32 32 31 31 31 31 31 30 28 29 31 32 32 33 33 33 33 33 33 34 34 34
21 20 22 23 25 29 32 35 34 35 35 34 34 34 34 33 33 33 32 33 33 33 32 32 31 31 30 30 30 28 28 28 27 29 29 29 31 31 32 34 34 33 34 34
7 12 16 12 21 28 31 33 35 35 35 36 35 34 35 34 34 33 33 33 33 33 32 32 31 31 29 29 29 27 26 26 27 25 24 24 23 23 30 29 30 31 31 31
17 24 22 26 31 31 31 34 35 35 35 36 36 36 35 35 34 34 33 33 33 33 33 32 32 31 30 29 28 28 26 24 24 24 22 21 22 22 21 23 26 27 28 29
20 25 24 28 24 31 34 35 37 36 36 36 37 37 36 35 35 34 34 33 33 33 33 32 31 31 30 28 26 26 28 25 22 23 22 22 22 21 23 21 19 20 24 26
19 23 25 29 31 32 35 36 36 36 36 36 36 37 36 36 35 35 34 33 33 33 33 32 31 31 30 29 26 24 25 24 22 21 23 23 21 21 22 22 20 20 21 21
21 23 24 26 29 31 34 35 36 36 35 36 36 37 37 36 36 35 33 32 32 32 32 32 32 31 31 29 27 24 24 26 24 22 21 21 20 19 20 21 20 20 20 20
23 21 23 25 27 29 32 35 36 36 36 35 36 36 36 36 35 34 33 32 32 32 32 32 31 31 30 29 27 25 23 22 24 21 21 22 21 19 20 21 21 20 20 21
25 24 25 27 26 27 29 32 34 36 36 36 35 35 35 34 34 33 33 32 31 31 31 31 31 30 30 27 27 26 24 22 21 21 21 22 22 21 21 22 21 20 20 21
25 24 26 27 30 31 31 31 32 34 35 35 34 34 34 34 33 32 31 31 31 31 30 31 31 30 29 28 27 26 24 22 22 22 22 23 24 22 20 20 20 20 20 20
26 27 28 29 30 31 32 32 33 33 34 34 34 33 33 33 32 31 30 30 30 30 30 29 29 28 27 26 29 26 24 23 22 22 21 22 22 21 21 22 22 21 21 19
23 26 27 28 29 31 32 32 33 33 33 33 33 33 33 33 31 31 30 30 30 30 30 29 28 27 25 26 28 27 26 24 23 23 22 22 21 21 20 20 20 21 21 20
22 23 24 26 28 29 30 31 32 32 32 32 32 33 32 31 31 30 30 30 29 31 30 29 29 29 27 27 26 25 25 24 24 23 23 23 22 23 24 23 22 21 21 21
21 22 24 24 25 27 29 30 30 31 31 32 32 32 32 32 31 30 30 30 29 30 29 28 28 28 28 28 27 27 26 25 26 26 25 25 26 26 25 24 23 21 21 21
21 23 23 25 27 27 26 27 29 30 31 31 31 32 31 30 29 29 29 29 29 29 29 27 29 30 29 30 30 29 28 28 28 27 27 28 27 26 25 24 23 21 20 20
23 24 24 25 25 25 26 27 28 29 29 29 30 30 31 31 31 29 28 28 29 29 28 29 30 31 31 31 30 30 29 29 28 28 28 27 26 25 24 22 21 21 20 18
24 24 24 26 26 26 27 28 28 29 28 29 29 29 29 28 28 27 27 27 28 29 28 29 31 32 31 31 30 29 28 27 27 26 26 25 24 24 22 21 20 19 18 17
25 26 26 27 27 27 28 28 28 28 29 29 29 29 28 28 27 26 27 27 27 29 28 28 29 30 28 28 27 27 25 23 23 22 23 23 22 21 19 17 17 16 16 15

GFSNGP_sfc_30mbdewp_138.txt.gz
Dewpoint
29 29 30 29 28 27 28 27 26 24 27 32 34 36 36 37 37 36 36 36 37 37 38 39 40 41 42 43 45 48 50 49 49 50 51 51 50 48 48 50 50 50 51 53
27 27 28 28 28 27 27 28 28 27 25 29 32 35 36 37 36 36 36 36 37 37 38 38 38 39 40 41 42 45 46 47 51 50 48 50 50 50 52 53 54 55 55 55
23 23 21 19 20 23 26 28 27 23 23 30 31 34 36 36 37 36 36 36 36 37 38 38 38 38 38 40 41 41 42 43 44 45 46 46 46 48 49 48 47 46 47 47
22 20 11 15 30 29 27 29 31 30 30 30 33 35 36 36 36 35 34 33 34 34 36 37 38 38 38 38 39 39 39 40 41 42 43 44 44 45 45 45 45 44 44 44
20 18 16 18 22 29 28 23 29 31 30 31 34 34 34 36 34 33 33 33 33 33 33 34 35 37 37 38 38 38 37 38 38 40 40 41 41 41 42 42 42 42 42 42
22 18 9 12 27 31 30 22 30 31 28 30 32 25 30 35 33 33 33 33 33 33 32 32 33 33 34 36 37 38 38 38 38 39 39 38 39 39 39 39 39 39 40 41
21 19 17 21 30 31 21 14 32 32 30 31 30 28 34 34 33 33 33 33 33 33 33 33 33 33 33 33 34 36 38 38 38 39 39 39 39 39 39 39 39 39 39 39
21 19 10 25 30 26 23 30 32 32 32 32 32 34 34 34 33 33 34 34 34 33 33 33 33 32 32 32 33 34 34 35 35 36 36 37 37 37 37 38 37 37 37 38
18 16 20 29 30 30 29 31 32 32 32 32 33 33 34 33 33 33 34 34 34 33 33 32 32 32 31 31 30 29 31 33 33 33 33 34 34 34 34 34 34 35 35 35
19 15 20 21 26 31 31 33 33 33 32 34 33 33 33 33 33 33 33 34 34 33 32 32 32 31 31 30 29 27 26 27 29 31 31 32 33 33 33 32 32 32 32 33
20 20 19 22 23 24 30 33 34 34 34 33 33 33 33 33 34 33 33 34 34 34 33 32 32 31 30 30 29 28 27 26 25 24 25 27 30 30 30 31 31 29 30 29
9 13 14 16 23 27 25 30 34 35 35 35 34 33 34 34 34 34 34 33 34 34 33 33 33 32 30 29 28 26 25 25 24 21 22 23 25 27 29 30 31 31 31 30
18 20 23 24 25 26 29 28 31 35 35 35 36 35 35 34 35 35 34 34 33 34 34 34 33 32 31 29 28 27 24 22 21 19 20 20 22 23 22 24 27 28 28 29
21 21 18 20 20 27 31 31 33 35 36 36 36 36 36 36 36 36 35 34 34 34 34 34 33 33 32 30 27 27 25 23 20 20 22 21 20 21 21 20 19 20 23 26
19 20 20 21 22 25 31 34 34 35 35 36 36 37 37 36 36 36 36 35 34 34 34 34 33 33 32 30 27 26 25 23 21 22 23 22 20 20 21 21 19 19 20 21
22 24 24 23 23 24 28 33 34 35 36 36 36 36 37 37 37 37 36 35 34 33 34 34 33 33 32 31 28 26 25 24 22 22 22 21 20 19 20 21 20 19 19 19
23 22 23 23 25 26 27 31 33 35 36 36 36 37 37 37 37 36 36 35 34 34 34 34 33 33 32 31 29 27 24 25 24 22 21 22 21 20 20 20 20 20 20 21
25 25 25 24 24 27 28 29 31 34 36 37 37 37 37 37 37 37 36 35 34 33 33 33 33 32 32 31 29 27 25 23 24 21 21 23 23 21 21 21 20 20 20 20
25 27 26 26 27 27 29 31 32 32 34 35 36 36 36 36 36 37 36 34 33 33 33 33 32 31 31 30 28 27 26 24 22 22 22 23 25 24 22 20 20 20 21 20
24 26 27 28 29 30 30 31 32 32 33 34 35 35 35 35 36 35 34 33 33 33 33 32 32 32 31 29 30 27 26 24 23 22 22 22 22 22 21 21 21 21 22 21
23 24 25 25 26 27 29 30 30 30 32 33 33 34 34 35 35 34 33 32 33 32 31 31 31 31 29 28 30 27 25 24 23 23 23 23 23 23 22 21 21 21 21 21
21 22 23 25 26 26 28 29 30 31 31 32 33 33 34 34 34 33 33 33 34 32 32 31 30 29 28 28 28 28 26 25 24 24 24 23 23 23 23 25 25 24 23 23
23 23 23 24 25 25 27 27 28 29 29 30 31 32 32 33 33 32 32 32 32 32 32 31 31 30 30 30 27 26 25 25 25 26 25 26 26 27 27 27 26 25 24 23
25 25 24 25 25 25 25 27 28 28 29 29 30 31 32 32 32 33 33 33 32 32 31 30 31 32 31 29 27 27 27 28 28 28 28 28 28 28 28 27 25 25 23 23
26 26 26 26 26 26 26 27 28 28 28 28 29 30 31 32 32 33 31 31 32 32 31 30 31 31 31 30 29 29 30 30 30 30 29 29 28 28 27 26 25 24 23 22
27 27 27 26 26 27 27 28 27 28 28 28 28 29 30 30 31 31 30 30 30 31 30 30 30 31 31 30 31 30 30 30 30 30 29 28 28 27 26 24 23 23 23 21
27 28 28 28 28 28 28 28 28 28 29 29 28 29 29 29 29 30 29 29 29 30 29 30 31 32 31 31 31 30 29 28 28 27 26 26 26 25 24 23 21 19 19 18